<?xml version="1.0" encoding="UTF-8"?><gpx xmlns="http://www.topografix.com/GPX/1/1" version="1.1" creator="iOrient"><trk><name>Большая прогулка. Первая гонка</name><trkseg><trkpt lat="55.8344109" lon="48.9580507"><time>2021-04-17T07:35:02.803</time></trkpt><trkpt lat="55.8344482" lon="48.9579757"><time>2021-04-17T07:35:06.910</time></trkpt><trkpt lat="55.8344886" lon="48.9578805"><time>2021-04-17T07:35:09.860</time></trkpt><trkpt lat="55.8345101" lon="48.9578009"><time>2021-04-17T07:35:11.767</time></trkpt><trkpt lat="55.8345436" lon="48.9577123"><time>2021-04-17T07:35:15.470</time></trkpt><trkpt lat="55.8345787" lon="48.9576228"><time>2021-04-17T07:35:19.697</time></trkpt><trkpt lat="55.8346091" lon="48.9575241"><time>2021-04-17T07:35:22.547</time></trkpt><trkpt lat="55.8346291" lon="48.9574445"><time>2021-04-17T07:35:25.487</time></trkpt><trkpt lat="55.8346558" lon="48.9573686"><time>2021-04-17T07:35:29.777</time></trkpt><trkpt lat="55.8346902" lon="48.9572939"><time>2021-04-17T07:35:34.887</time></trkpt><trkpt lat="55.8347144" lon="48.9571896"><time>2021-04-17T07:35:42.777</time></trkpt><trkpt lat="55.8347121" lon="48.9570884"><time>2021-04-17T07:35:45.907</time></trkpt><trkpt lat="55.8347074" lon="48.9569893"><time>2021-04-17T07:35:47.780</time></trkpt><trkpt lat="55.8347155" lon="48.9568822"><time>2021-04-17T07:35:50.787</time></trkpt><trkpt lat="55.8347249" lon="48.9567688"><time>2021-04-17T07:35:55.600</time></trkpt><trkpt lat="55.8347306" lon="48.9566847"><time>2021-04-17T07:36:00.493</time></trkpt><trkpt lat="55.8347508" lon="48.9565968"><time>2021-04-17T07:36:04.553</time></trkpt><trkpt lat="55.8347850" lon="48.9564984"><time>2021-04-17T07:36:08.870</time></trkpt><trkpt lat="55.8348381" lon="48.9563554"><time>2021-04-17T07:36:13.400</time></trkpt><trkpt lat="55.8348709" lon="48.9562707"><time>2021-04-17T07:36:16.400</time></trkpt><trkpt lat="55.8348990" lon="48.9561900"><time>2021-04-17T07:36:19.487</time></trkpt><trkpt lat="55.8349173" lon="48.9561166"><time>2021-04-17T07:36:21.580</time></trkpt><trkpt lat="55.8349419" lon="48.9560432"><time>2021-04-17T07:36:23.493</time></trkpt><trkpt lat="55.8349756" lon="48.9559389"><time>2021-04-17T07:36:26.487</time></trkpt><trkpt lat="55.8349966" lon="48.9558577"><time>2021-04-17T07:36:28.490</time></trkpt><trkpt lat="55.8350185" lon="48.9557673"><time>2021-04-17T07:36:31.490</time></trkpt><trkpt lat="55.8350419" lon="48.9556676"><time>2021-04-17T07:36:34.480</time></trkpt><trkpt lat="55.8350767" lon="48.9555853"><time>2021-04-17T07:36:37.487</time></trkpt><trkpt lat="55.8351185" lon="48.9555051"><time>2021-04-17T07:36:40.487</time></trkpt><trkpt lat="55.8351582" lon="48.9554229"><time>2021-04-17T07:36:43.537</time></trkpt><trkpt lat="55.8351986" lon="48.9553437"><time>2021-04-17T07:36:46.543</time></trkpt><trkpt lat="55.8352223" lon="48.9552738"><time>2021-04-17T07:36:48.557</time></trkpt><trkpt lat="55.8352532" lon="48.9552091"><time>2021-04-17T07:36:50.537</time></trkpt><trkpt lat="55.8352865" lon="48.9551531"><time>2021-04-17T07:36:52.553</time></trkpt><trkpt lat="55.8353187" lon="48.9550779"><time>2021-04-17T07:36:55.567</time></trkpt><trkpt lat="55.8353434" lon="48.9549899"><time>2021-04-17T07:36:58.493</time></trkpt><trkpt lat="55.8353750" lon="48.9549177"><time>2021-04-17T07:37:01.487</time></trkpt><trkpt lat="55.8354023" lon="48.9548225"><time>2021-04-17T07:37:04.497</time></trkpt><trkpt lat="55.8354224" lon="48.9547414"><time>2021-04-17T07:37:07.407</time></trkpt><trkpt lat="55.8354482" lon="48.9546648"><time>2021-04-17T07:37:09.383</time></trkpt><trkpt lat="55.8354682" lon="48.9545897"><time>2021-04-17T07:37:11.493</time></trkpt><trkpt lat="55.8354915" lon="48.9545164"><time>2021-04-17T07:37:13.490</time></trkpt><trkpt lat="55.8355171" lon="48.9544341"><time>2021-04-17T07:37:15.493</time></trkpt><trkpt lat="55.8355359" lon="48.9543396"><time>2021-04-17T07:37:18.593</time></trkpt><trkpt lat="55.8355653" lon="48.9542524"><time>2021-04-17T07:37:21.497</time></trkpt><trkpt lat="55.8355924" lon="48.9541380"><time>2021-04-17T07:37:25.520</time></trkpt><trkpt lat="55.8356122" lon="48.9540499"><time>2021-04-17T07:37:28.697</time></trkpt><trkpt lat="55.8356494" lon="48.9539414"><time>2021-04-17T07:37:32.487</time></trkpt><trkpt lat="55.8356788" lon="48.9538607"><time>2021-04-17T07:37:35.490</time></trkpt><trkpt lat="55.8357133" lon="48.9537784"><time>2021-04-17T07:37:39.490</time></trkpt><trkpt lat="55.8357497" lon="48.9537086"><time>2021-04-17T07:37:42.490</time></trkpt><trkpt lat="55.8357801" lon="48.9536224"><time>2021-04-17T07:37:45.490</time></trkpt><trkpt lat="55.8358155" lon="48.9535391"><time>2021-04-17T07:37:48.867</time></trkpt><trkpt lat="55.8358455" lon="48.9534680"><time>2021-04-17T07:37:52.860</time></trkpt><trkpt lat="55.8359014" lon="48.9533491"><time>2021-04-17T07:37:57.850</time></trkpt><trkpt lat="55.8359292" lon="48.9532707"><time>2021-04-17T07:37:59.853</time></trkpt><trkpt lat="55.8359567" lon="48.9531641"><time>2021-04-17T07:38:02.740</time></trkpt><trkpt lat="55.8359866" lon="48.9530591"><time>2021-04-17T07:38:05.487</time></trkpt><trkpt lat="55.8360129" lon="48.9529795"><time>2021-04-17T07:38:08.490</time></trkpt><trkpt lat="55.8360387" lon="48.9528815"><time>2021-04-17T07:38:11.567</time></trkpt><trkpt lat="55.8360731" lon="48.9527581"><time>2021-04-17T07:38:16.563</time></trkpt><trkpt lat="55.8360865" lon="48.9526475"><time>2021-04-17T07:38:19.497</time></trkpt><trkpt lat="55.8361243" lon="48.9525479"><time>2021-04-17T07:38:23.500</time></trkpt><trkpt lat="55.8361484" lon="48.9524564"><time>2021-04-17T07:38:27.420</time></trkpt><trkpt lat="55.8361729" lon="48.9523829"><time>2021-04-17T07:38:30.840</time></trkpt><trkpt lat="55.8362046" lon="48.9522969"><time>2021-04-17T07:38:33.503</time></trkpt><trkpt lat="55.8362191" lon="48.9522081"><time>2021-04-17T07:38:36.617</time></trkpt><trkpt lat="55.8362254" lon="48.9521128"><time>2021-04-17T07:38:39.380</time></trkpt><trkpt lat="55.8362310" lon="48.9520178"><time>2021-04-17T07:38:43.393</time></trkpt><trkpt lat="55.8362290" lon="48.9519231"><time>2021-04-17T07:38:46.397</time></trkpt><trkpt lat="55.8362529" lon="48.9518236"><time>2021-04-17T07:38:49.380</time></trkpt><trkpt lat="55.8362781" lon="48.9517358"><time>2021-04-17T07:38:53.500</time></trkpt><trkpt lat="55.8363075" lon="48.9516549"><time>2021-04-17T07:38:57.883</time></trkpt><trkpt lat="55.8363337" lon="48.9515840"><time>2021-04-17T07:39:00.893</time></trkpt><trkpt lat="55.8363639" lon="48.9515093"><time>2021-04-17T07:39:04.893</time></trkpt><trkpt lat="55.8364042" lon="48.9513860"><time>2021-04-17T07:39:10.687</time></trkpt><trkpt lat="55.8364378" lon="48.9513265"><time>2021-04-17T07:39:13.487</time></trkpt><trkpt lat="55.8364773" lon="48.9512318"><time>2021-04-17T07:39:18.490</time></trkpt><trkpt lat="55.8365223" lon="48.9511137"><time>2021-04-17T07:39:24.727</time></trkpt><trkpt lat="55.8365469" lon="48.9510309"><time>2021-04-17T07:39:27.593</time></trkpt><trkpt lat="55.8365630" lon="48.9509488"><time>2021-04-17T07:39:31.497</time></trkpt><trkpt lat="55.8365898" lon="48.9508671"><time>2021-04-17T07:39:37.487</time></trkpt><trkpt lat="55.8366175" lon="48.9507431"><time>2021-04-17T07:39:42.590</time></trkpt><trkpt lat="55.8366505" lon="48.9506545"><time>2021-04-17T07:39:45.397</time></trkpt><trkpt lat="55.8366554" lon="48.9505523"><time>2021-04-17T07:39:49.487</time></trkpt><trkpt lat="55.8366857" lon="48.9504579"><time>2021-04-17T07:39:53.513</time></trkpt><trkpt lat="55.8367151" lon="48.9503795"><time>2021-04-17T07:39:57.593</time></trkpt><trkpt lat="55.8367397" lon="48.9502937"><time>2021-04-17T07:40:01.737</time></trkpt><trkpt lat="55.8367715" lon="48.9501998"><time>2021-04-17T07:40:04.650</time></trkpt><trkpt lat="55.8368015" lon="48.9501209"><time>2021-04-17T07:40:06.650</time></trkpt><trkpt lat="55.8368178" lon="48.9500286"><time>2021-04-17T07:40:08.640</time></trkpt><trkpt lat="55.8368280" lon="48.9499342"><time>2021-04-17T07:40:10.650</time></trkpt><trkpt lat="55.8368628" lon="48.9498541"><time>2021-04-17T07:40:13.650</time></trkpt><trkpt lat="55.8368899" lon="48.9497719"><time>2021-04-17T07:40:16.763</time></trkpt><trkpt lat="55.8369269" lon="48.9497109"><time>2021-04-17T07:40:21.777</time></trkpt><trkpt lat="55.8369627" lon="48.9496253"><time>2021-04-17T07:40:24.483</time></trkpt><trkpt lat="55.8369874" lon="48.9495367"><time>2021-04-17T07:40:27.390</time></trkpt><trkpt lat="55.8370255" lon="48.9494566"><time>2021-04-17T07:40:30.480</time></trkpt><trkpt lat="55.8370482" lon="48.9493764"><time>2021-04-17T07:40:33.497</time></trkpt><trkpt lat="55.8370851" lon="48.9492911"><time>2021-04-17T07:40:37.597</time></trkpt><trkpt lat="55.8371127" lon="48.9492216"><time>2021-04-17T07:40:40.490</time></trkpt><trkpt lat="55.8371470" lon="48.9491333"><time>2021-04-17T07:40:43.487</time></trkpt><trkpt lat="55.8371870" lon="48.9490582"><time>2021-04-17T07:40:46.410</time></trkpt><trkpt lat="55.8372230" lon="48.9490044"><time>2021-04-17T07:40:49.887</time></trkpt><trkpt lat="55.8372492" lon="48.9489326"><time>2021-04-17T07:40:52.757</time></trkpt><trkpt lat="55.8372774" lon="48.9488415"><time>2021-04-17T07:40:56.487</time></trkpt><trkpt lat="55.8373129" lon="48.9487697"><time>2021-04-17T07:41:00.483</time></trkpt><trkpt lat="55.8373174" lon="48.9486801"><time>2021-04-17T07:41:10.433</time></trkpt><trkpt lat="55.8373160" lon="48.9485775"><time>2021-04-17T07:41:15.747</time></trkpt><trkpt lat="55.8373292" lon="48.9484959"><time>2021-04-17T07:41:19.750</time></trkpt><trkpt lat="55.8373296" lon="48.9484122"><time>2021-04-17T07:41:22.590</time></trkpt><trkpt lat="55.8373553" lon="48.9483303"><time>2021-04-17T07:41:27.487</time></trkpt><trkpt lat="55.8373333" lon="48.9482552"><time>2021-04-17T07:41:31.380</time></trkpt><trkpt lat="55.8373656" lon="48.9481891"><time>2021-04-17T07:41:35.383</time></trkpt><trkpt lat="55.8373773" lon="48.9481690"><time>2021-04-17T07:41:38.143</time></trkpt><trkpt lat="55.8373975" lon="48.9481237"><time>2021-04-17T07:41:42.300</time></trkpt><trkpt lat="55.8374079" lon="48.9480363"><time>2021-04-17T07:41:51.777</time></trkpt><trkpt lat="55.8374120" lon="48.9479490"><time>2021-04-17T07:42:04.407</time></trkpt><trkpt lat="55.8374413" lon="48.9478788"><time>2021-04-17T07:42:15.600</time></trkpt><trkpt lat="55.8374427" lon="48.9477941"><time>2021-04-17T07:42:26.883</time></trkpt><trkpt lat="55.8374675" lon="48.9477061"><time>2021-04-17T07:42:33.517</time></trkpt><trkpt lat="55.8375018" lon="48.9476005"><time>2021-04-17T07:42:38.377</time></trkpt><trkpt lat="55.8375294" lon="48.9475048"><time>2021-04-17T07:42:41.403</time></trkpt><trkpt lat="55.8375129" lon="48.9474130"><time>2021-04-17T07:42:45.410</time></trkpt><trkpt lat="55.8375218" lon="48.9473189"><time>2021-04-17T07:42:52.397</time></trkpt><trkpt lat="55.8375331" lon="48.9472345"><time>2021-04-17T07:42:56.407</time></trkpt><trkpt lat="55.8375512" lon="48.9471574"><time>2021-04-17T07:43:02.697</time></trkpt><trkpt lat="55.8375861" lon="48.9470979"><time>2021-04-17T07:43:07.487</time></trkpt><trkpt lat="55.8376094" lon="48.9469894"><time>2021-04-17T07:43:11.490</time></trkpt><trkpt lat="55.8376319" lon="48.9469188"><time>2021-04-17T07:43:13.497</time></trkpt><trkpt lat="55.8376682" lon="48.9468321"><time>2021-04-17T07:43:16.493</time></trkpt><trkpt lat="55.8376953" lon="48.9467525"><time>2021-04-17T07:43:21.493</time></trkpt><trkpt lat="55.8377173" lon="48.9466805"><time>2021-04-17T07:43:26.440</time></trkpt><trkpt lat="55.8377421" lon="48.9465977"><time>2021-04-17T07:43:31.987</time></trkpt><trkpt lat="55.8377700" lon="48.9465303"><time>2021-04-17T07:43:34.853</time></trkpt><trkpt lat="55.8378126" lon="48.9464279"><time>2021-04-17T07:43:40.873</time></trkpt><trkpt lat="55.8378404" lon="48.9463520"><time>2021-04-17T07:43:44.887</time></trkpt><trkpt lat="55.8378684" lon="48.9462783"><time>2021-04-17T07:43:48.867</time></trkpt><trkpt lat="55.8379013" lon="48.9462149"><time>2021-04-17T07:43:51.900</time></trkpt><trkpt lat="55.8379306" lon="48.9461422"><time>2021-04-17T07:43:55.567</time></trkpt><trkpt lat="55.8379554" lon="48.9460747"><time>2021-04-17T07:44:02.493</time></trkpt><trkpt lat="55.8379826" lon="48.9460054"><time>2021-04-17T07:44:06.493</time></trkpt><trkpt lat="55.8380158" lon="48.9459401"><time>2021-04-17T07:44:09.493</time></trkpt><trkpt lat="55.8380445" lon="48.9458647"><time>2021-04-17T07:44:14.490</time></trkpt><trkpt lat="55.8380754" lon="48.9457849"><time>2021-04-17T07:44:20.397</time></trkpt><trkpt lat="55.8381013" lon="48.9456965"><time>2021-04-17T07:44:24.400</time></trkpt><trkpt lat="55.8381380" lon="48.9456008"><time>2021-04-17T07:44:29.483</time></trkpt><trkpt lat="55.8381709" lon="48.9455249"><time>2021-04-17T07:44:32.757</time></trkpt><trkpt lat="55.8382070" lon="48.9454662"><time>2021-04-17T07:44:35.877</time></trkpt><trkpt lat="55.8382446" lon="48.9453984"><time>2021-04-17T07:44:39.757</time></trkpt><trkpt lat="55.8382655" lon="48.9453237"><time>2021-04-17T07:44:42.810</time></trkpt><trkpt lat="55.8382931" lon="48.9452363"><time>2021-04-17T07:44:46.643</time></trkpt><trkpt lat="55.8383133" lon="48.9451622"><time>2021-04-17T07:45:02.497</time></trkpt><trkpt lat="55.8383268" lon="48.9450809"><time>2021-04-17T07:45:09.503</time></trkpt><trkpt lat="55.8383524" lon="48.9450118"><time>2021-04-17T07:45:12.960</time></trkpt><trkpt lat="55.8383614" lon="48.9449299"><time>2021-04-17T07:45:15.817</time></trkpt><trkpt lat="55.8383907" lon="48.9448432"><time>2021-04-17T07:45:18.520</time></trkpt><trkpt lat="55.8384285" lon="48.9447738"><time>2021-04-17T07:45:21.393</time></trkpt><trkpt lat="55.8384652" lon="48.9446943"><time>2021-04-17T07:45:24.487</time></trkpt><trkpt lat="55.8385139" lon="48.9445976"><time>2021-04-17T07:45:28.483</time></trkpt><trkpt lat="55.8385507" lon="48.9445325"><time>2021-04-17T07:45:32.393</time></trkpt><trkpt lat="55.8385553" lon="48.9444473"><time>2021-04-17T07:45:39.610</time></trkpt><trkpt lat="55.8385847" lon="48.9443674"><time>2021-04-17T07:45:46.863</time></trkpt><trkpt lat="55.8386189" lon="48.9442994"><time>2021-04-17T07:45:52.860</time></trkpt><trkpt lat="55.8386527" lon="48.9442349"><time>2021-04-17T07:45:57.720</time></trkpt><trkpt lat="55.8386842" lon="48.9441767"><time>2021-04-17T07:46:01.607</time></trkpt><trkpt lat="55.8387153" lon="48.9441050"><time>2021-04-17T07:46:04.617</time></trkpt><trkpt lat="55.8387466" lon="48.9440365"><time>2021-04-17T07:46:07.490</time></trkpt><trkpt lat="55.8387852" lon="48.9439574"><time>2021-04-17T07:46:10.397</time></trkpt><trkpt lat="55.8388252" lon="48.9438924"><time>2021-04-17T07:46:13.487</time></trkpt><trkpt lat="55.8388642" lon="48.9438282"><time>2021-04-17T07:46:16.563</time></trkpt><trkpt lat="55.8389034" lon="48.9437595"><time>2021-04-17T07:46:19.490</time></trkpt><trkpt lat="55.8389354" lon="48.9436829"><time>2021-04-17T07:46:22.490</time></trkpt><trkpt lat="55.8389724" lon="48.9436072"><time>2021-04-17T07:46:26.490</time></trkpt><trkpt lat="55.8390219" lon="48.9435263"><time>2021-04-17T07:46:29.400</time></trkpt><trkpt lat="55.8390633" lon="48.9434681"><time>2021-04-17T07:46:31.553</time></trkpt><trkpt lat="55.8391106" lon="48.9433980"><time>2021-04-17T07:46:34.397</time></trkpt><trkpt lat="55.8391459" lon="48.9433140"><time>2021-04-17T07:46:38.597</time></trkpt><trkpt lat="55.8391891" lon="48.9432503"><time>2021-04-17T07:46:41.617</time></trkpt><trkpt lat="55.8392348" lon="48.9431816"><time>2021-04-17T07:46:44.483</time></trkpt><trkpt lat="55.8392814" lon="48.9431215"><time>2021-04-17T07:46:47.607</time></trkpt><trkpt lat="55.8393271" lon="48.9430561"><time>2021-04-17T07:46:50.610</time></trkpt><trkpt lat="55.8393586" lon="48.9429838"><time>2021-04-17T07:46:53.980</time></trkpt><trkpt lat="55.8393669" lon="48.9429017"><time>2021-04-17T07:46:59.863</time></trkpt><trkpt lat="55.8393464" lon="48.9428287"><time>2021-04-17T07:47:03.867</time></trkpt><trkpt lat="55.8393344" lon="48.9427494"><time>2021-04-17T07:47:08.857</time></trkpt><trkpt lat="55.8392971" lon="48.9426844"><time>2021-04-17T07:47:11.860</time></trkpt><trkpt lat="55.8392521" lon="48.9426067"><time>2021-04-17T07:47:14.867</time></trkpt><trkpt lat="55.8392086" lon="48.9425396"><time>2021-04-17T07:47:17.877</time></trkpt><trkpt lat="55.8391672" lon="48.9424501"><time>2021-04-17T07:47:20.870</time></trkpt><trkpt lat="55.8391317" lon="48.9423625"><time>2021-04-17T07:47:23.877</time></trkpt><trkpt lat="55.8391025" lon="48.9422982"><time>2021-04-17T07:47:26.877</time></trkpt><trkpt lat="55.8390504" lon="48.9422619"><time>2021-04-17T07:47:29.877</time></trkpt><trkpt lat="55.8390054" lon="48.9422339"><time>2021-04-17T07:47:32.873</time></trkpt><trkpt lat="55.8389486" lon="48.9422148"><time>2021-04-17T07:47:41.863</time></trkpt><trkpt lat="55.8389105" lon="48.9421678"><time>2021-04-17T07:47:47.880</time></trkpt><trkpt lat="55.8388687" lon="48.9421131"><time>2021-04-17T07:47:55.857</time></trkpt><trkpt lat="55.8388298" lon="48.9420614"><time>2021-04-17T07:48:00.887</time></trkpt><trkpt lat="55.8388298" lon="48.9420614"><time>2021-04-17T07:48:04.117</time></trkpt><trkpt lat="55.8387846" lon="48.9419988"><time>2021-04-17T07:48:21.657</time></trkpt><trkpt lat="55.8387325" lon="48.9419978"><time>2021-04-17T07:48:27.513</time></trkpt><trkpt lat="55.8387402" lon="48.9419161"><time>2021-04-17T07:48:58.490</time></trkpt><trkpt lat="55.8387901" lon="48.9418485"><time>2021-04-17T07:49:05.753</time></trkpt><trkpt lat="55.8388463" lon="48.9418356"><time>2021-04-17T07:49:09.747</time></trkpt><trkpt lat="55.8389001" lon="48.9418590"><time>2021-04-17T07:49:13.757</time></trkpt><trkpt lat="55.8389456" lon="48.9418636"><time>2021-04-17T07:49:16.493</time></trkpt><trkpt lat="55.8389923" lon="48.9418712"><time>2021-04-17T07:49:20.497</time></trkpt><trkpt lat="55.8390323" lon="48.9419145"><time>2021-04-17T07:49:24.790</time></trkpt><trkpt lat="55.8390820" lon="48.9419433"><time>2021-04-17T07:49:28.487</time></trkpt><trkpt lat="55.8391308" lon="48.9419670"><time>2021-04-17T07:49:35.497</time></trkpt><trkpt lat="55.8391913" lon="48.9419789"><time>2021-04-17T07:49:41.493</time></trkpt><trkpt lat="55.8392376" lon="48.9420081"><time>2021-04-17T07:49:46.490</time></trkpt><trkpt lat="55.8392891" lon="48.9419608"><time>2021-04-17T07:49:50.487</time></trkpt><trkpt lat="55.8393190" lon="48.9418813"><time>2021-04-17T07:49:54.490</time></trkpt><trkpt lat="55.8393645" lon="48.9418123"><time>2021-04-17T07:49:57.397</time></trkpt><trkpt lat="55.8394023" lon="48.9417582"><time>2021-04-17T07:49:59.490</time></trkpt><trkpt lat="55.8394473" lon="48.9416813"><time>2021-04-17T07:50:02.410</time></trkpt><trkpt lat="55.8394906" lon="48.9416125"><time>2021-04-17T07:50:05.487</time></trkpt><trkpt lat="55.8395258" lon="48.9415625"><time>2021-04-17T07:50:08.757</time></trkpt><trkpt lat="55.8395727" lon="48.9415061"><time>2021-04-17T07:50:12.750</time></trkpt><trkpt lat="55.8396151" lon="48.9414357"><time>2021-04-17T07:50:16.767</time></trkpt><trkpt lat="55.8396530" lon="48.9413876"><time>2021-04-17T07:50:19.763</time></trkpt><trkpt lat="55.8397056" lon="48.9413274"><time>2021-04-17T07:50:23.487</time></trkpt><trkpt lat="55.8397400" lon="48.9412689"><time>2021-04-17T07:50:26.483</time></trkpt><trkpt lat="55.8397866" lon="48.9412121"><time>2021-04-17T07:50:30.730</time></trkpt><trkpt lat="55.8398268" lon="48.9411592"><time>2021-04-17T07:50:34.670</time></trkpt><trkpt lat="55.8398695" lon="48.9410815"><time>2021-04-17T07:50:38.497</time></trkpt><trkpt lat="55.8399068" lon="48.9410047"><time>2021-04-17T07:50:42.500</time></trkpt><trkpt lat="55.8399483" lon="48.9409379"><time>2021-04-17T07:50:45.573</time></trkpt><trkpt lat="55.8399824" lon="48.9408608"><time>2021-04-17T07:50:49.490</time></trkpt><trkpt lat="55.8400163" lon="48.9407976"><time>2021-04-17T07:50:52.587</time></trkpt><trkpt lat="55.8400548" lon="48.9407360"><time>2021-04-17T07:50:55.420</time></trkpt><trkpt lat="55.8400334" lon="48.9406582"><time>2021-04-17T07:51:08.587</time></trkpt><trkpt lat="55.8400359" lon="48.9405720"><time>2021-04-17T07:51:13.407</time></trkpt><trkpt lat="55.8400277" lon="48.9404766"><time>2021-04-17T07:51:19.877</time></trkpt><trkpt lat="55.8400626" lon="48.9403566"><time>2021-04-17T07:51:25.863</time></trkpt><trkpt lat="55.8400876" lon="48.9402811"><time>2021-04-17T07:51:29.877</time></trkpt><trkpt lat="55.8401170" lon="48.9402144"><time>2021-04-17T07:51:32.487</time></trkpt><trkpt lat="55.8401424" lon="48.9401448"><time>2021-04-17T07:51:35.497</time></trkpt><trkpt lat="55.8401782" lon="48.9400770"><time>2021-04-17T07:51:39.873</time></trkpt><trkpt lat="55.8402071" lon="48.9400130"><time>2021-04-17T07:51:42.653</time></trkpt><trkpt lat="55.8402383" lon="48.9399503"><time>2021-04-17T07:51:46.630</time></trkpt><trkpt lat="55.8402725" lon="48.9398633"><time>2021-04-17T07:51:51.497</time></trkpt><trkpt lat="55.8403027" lon="48.9397842"><time>2021-04-17T07:51:55.490</time></trkpt><trkpt lat="55.8403107" lon="48.9397010"><time>2021-04-17T07:52:04.560</time></trkpt><trkpt lat="55.8403125" lon="48.9396102"><time>2021-04-17T07:52:12.487</time></trkpt><trkpt lat="55.8403409" lon="48.9395455"><time>2021-04-17T07:52:15.497</time></trkpt><trkpt lat="55.8403587" lon="48.9394611"><time>2021-04-17T07:52:22.407</time></trkpt><trkpt lat="55.8403826" lon="48.9393810"><time>2021-04-17T07:52:30.700</time></trkpt><trkpt lat="55.8404198" lon="48.9393339"><time>2021-04-17T07:52:36.730</time></trkpt><trkpt lat="55.8404416" lon="48.9392619"><time>2021-04-17T07:52:42.733</time></trkpt><trkpt lat="55.8403969" lon="48.9392094"><time>2021-04-17T07:52:49.857</time></trkpt><trkpt lat="55.8403558" lon="48.9391638"><time>2021-04-17T07:52:55.850</time></trkpt><trkpt lat="55.8403138" lon="48.9391112"><time>2021-04-17T07:53:01.857</time></trkpt><trkpt lat="55.8402818" lon="48.9390396"><time>2021-04-17T07:53:11.863</time></trkpt><trkpt lat="55.8402734" lon="48.9390366"><time>2021-04-17T07:53:13.813</time></trkpt><trkpt lat="55.8402346" lon="48.9390158"><time>2021-04-17T07:53:31.937</time></trkpt><trkpt lat="55.8401857" lon="48.9390072"><time>2021-04-17T07:53:44.887</time></trkpt><trkpt lat="55.8401377" lon="48.9389764"><time>2021-04-17T07:53:53.887</time></trkpt><trkpt lat="55.8400807" lon="48.9389803"><time>2021-04-17T07:54:08.887</time></trkpt><trkpt lat="55.8400200" lon="48.9389340"><time>2021-04-17T07:54:26.880</time></trkpt><trkpt lat="55.8399864" lon="48.9388709"><time>2021-04-17T07:54:40.897</time></trkpt><trkpt lat="55.8399766" lon="48.9387922"><time>2021-04-17T07:54:56.897</time></trkpt><trkpt lat="55.8400236" lon="48.9387362"><time>2021-04-17T07:55:03.897</time></trkpt><trkpt lat="55.8400689" lon="48.9386775"><time>2021-04-17T07:55:08.903</time></trkpt><trkpt lat="55.8401072" lon="48.9386060"><time>2021-04-17T07:55:14.897</time></trkpt><trkpt lat="55.8401334" lon="48.9385378"><time>2021-04-17T07:55:21.023</time></trkpt><trkpt lat="55.8401720" lon="48.9384706"><time>2021-04-17T07:55:28.900</time></trkpt><trkpt lat="55.8402138" lon="48.9384210"><time>2021-04-17T07:55:36.890</time></trkpt><trkpt lat="55.8402415" lon="48.9383521"><time>2021-04-17T07:55:44.877</time></trkpt><trkpt lat="55.8402520" lon="48.9382734"><time>2021-04-17T07:56:03.883</time></trkpt><trkpt lat="55.8402779" lon="48.9382059"><time>2021-04-17T07:56:32.893</time></trkpt><trkpt lat="55.8402919" lon="48.9381225"><time>2021-04-17T07:57:06.810</time></trkpt><trkpt lat="55.8403104" lon="48.9380392"><time>2021-04-17T07:57:14.100</time></trkpt><trkpt lat="55.8403346" lon="48.9379528"><time>2021-04-17T07:57:17.813</time></trkpt><trkpt lat="55.8403714" lon="48.9378669"><time>2021-04-17T07:57:20.800</time></trkpt><trkpt lat="55.8403946" lon="48.9377732"><time>2021-04-17T07:57:26.813</time></trkpt><trkpt lat="55.8404071" lon="48.9376791"><time>2021-04-17T07:57:31.807</time></trkpt><trkpt lat="55.8404175" lon="48.9376001"><time>2021-04-17T07:57:35.820</time></trkpt><trkpt lat="55.8404301" lon="48.9375124"><time>2021-04-17T07:57:42.803</time></trkpt><trkpt lat="55.8404491" lon="48.9374149"><time>2021-04-17T07:57:47.813</time></trkpt><trkpt lat="55.8404773" lon="48.9373413"><time>2021-04-17T07:57:51.813</time></trkpt><trkpt lat="55.8404803" lon="48.9372595"><time>2021-04-17T07:57:54.823</time></trkpt><trkpt lat="55.8404593" lon="48.9371841"><time>2021-04-17T07:57:57.823</time></trkpt><trkpt lat="55.8404426" lon="48.9371098"><time>2021-04-17T07:58:02.830</time></trkpt><trkpt lat="55.8404419" lon="48.9370241"><time>2021-04-17T07:58:08.853</time></trkpt><trkpt lat="55.8404446" lon="48.9369368"><time>2021-04-17T07:58:18.367</time></trkpt><trkpt lat="55.8404535" lon="48.9368274"><time>2021-04-17T07:58:21.857</time></trkpt><trkpt lat="55.8404772" lon="48.9367427"><time>2021-04-17T07:58:24.863</time></trkpt><trkpt lat="55.8405134" lon="48.9366731"><time>2021-04-17T07:58:29.867</time></trkpt><trkpt lat="55.8405384" lon="48.9366046"><time>2021-04-17T07:58:36.867</time></trkpt><trkpt lat="55.8405697" lon="48.9365454"><time>2021-04-17T07:58:42.583</time></trkpt><trkpt lat="55.8405969" lon="48.9364788"><time>2021-04-17T07:58:46.687</time></trkpt><trkpt lat="55.8406054" lon="48.9363843"><time>2021-04-17T07:58:50.387</time></trkpt><trkpt lat="55.8406163" lon="48.9362812"><time>2021-04-17T07:58:56.603</time></trkpt><trkpt lat="55.8406501" lon="48.9362278"><time>2021-04-17T07:59:02.753</time></trkpt><trkpt lat="55.8406699" lon="48.9361359"><time>2021-04-17T07:59:09.503</time></trkpt><trkpt lat="55.8406815" lon="48.9360397"><time>2021-04-17T07:59:15.753</time></trkpt><trkpt lat="55.8407029" lon="48.9359494"><time>2021-04-17T07:59:20.753</time></trkpt><trkpt lat="55.8407427" lon="48.9358426"><time>2021-04-17T07:59:27.977</time></trkpt><trkpt lat="55.8407722" lon="48.9357756"><time>2021-04-17T07:59:31.860</time></trkpt><trkpt lat="55.8407935" lon="48.9356962"><time>2021-04-17T07:59:36.873</time></trkpt><trkpt lat="55.8408060" lon="48.9355915"><time>2021-04-17T07:59:42.457</time></trkpt><trkpt lat="55.8408364" lon="48.9355153"><time>2021-04-17T07:59:46.613</time></trkpt><trkpt lat="55.8408765" lon="48.9354272"><time>2021-04-17T07:59:52.837</time></trkpt><trkpt lat="55.8409066" lon="48.9353235"><time>2021-04-17T07:59:56.833</time></trkpt><trkpt lat="55.8409310" lon="48.9352389"><time>2021-04-17T08:00:00.837</time></trkpt><trkpt lat="55.8409564" lon="48.9351660"><time>2021-04-17T08:00:04.533</time></trkpt><trkpt lat="55.8409708" lon="48.9350657"><time>2021-04-17T08:00:09.497</time></trkpt><trkpt lat="55.8409978" lon="48.9349657"><time>2021-04-17T08:00:13.557</time></trkpt><trkpt lat="55.8410260" lon="48.9348888"><time>2021-04-17T08:00:16.723</time></trkpt><trkpt lat="55.8410460" lon="48.9348036"><time>2021-04-17T08:00:19.663</time></trkpt><trkpt lat="55.8410669" lon="48.9347266"><time>2021-04-17T08:00:22.550</time></trkpt><trkpt lat="55.8410894" lon="48.9346528"><time>2021-04-17T08:00:26.810</time></trkpt><trkpt lat="55.8410964" lon="48.9345671"><time>2021-04-17T08:00:30.810</time></trkpt><trkpt lat="55.8411142" lon="48.9344910"><time>2021-04-17T08:00:33.813</time></trkpt><trkpt lat="55.8411396" lon="48.9343964"><time>2021-04-17T08:00:39.513</time></trkpt><trkpt lat="55.8411778" lon="48.9343536"><time>2021-04-17T08:00:44.487</time></trkpt><trkpt lat="55.8412311" lon="48.9343358"><time>2021-04-17T08:00:49.487</time></trkpt><trkpt lat="55.8412756" lon="48.9343132"><time>2021-04-17T08:00:52.587</time></trkpt><trkpt lat="55.8413318" lon="48.9342850"><time>2021-04-17T08:00:56.493</time></trkpt><trkpt lat="55.8413720" lon="48.9342388"><time>2021-04-17T08:01:00.490</time></trkpt><trkpt lat="55.8414245" lon="48.9341901"><time>2021-04-17T08:01:05.497</time></trkpt><trkpt lat="55.8414738" lon="48.9341373"><time>2021-04-17T08:01:11.603</time></trkpt><trkpt lat="55.8415130" lon="48.9341111"><time>2021-04-17T08:01:14.410</time></trkpt><trkpt lat="55.8415283" lon="48.9340944"><time>2021-04-17T08:01:14.500</time></trkpt><trkpt lat="55.8415663" lon="48.9340471"><time>2021-04-17T08:01:18.330</time></trkpt><trkpt lat="55.8416084" lon="48.9340014"><time>2021-04-17T08:01:21.433</time></trkpt><trkpt lat="55.8416253" lon="48.9339108"><time>2021-04-17T08:01:30.493</time></trkpt><trkpt lat="55.8415932" lon="48.9338463"><time>2021-04-17T08:01:37.717</time></trkpt><trkpt lat="55.8415584" lon="48.9337952"><time>2021-04-17T08:01:44.720</time></trkpt><trkpt lat="55.8415106" lon="48.9337511"><time>2021-04-17T08:02:00.487</time></trkpt><trkpt lat="55.8414648" lon="48.9337104"><time>2021-04-17T08:02:06.483</time></trkpt><trkpt lat="55.8414194" lon="48.9336726"><time>2021-04-17T08:02:10.490</time></trkpt><trkpt lat="55.8413742" lon="48.9336513"><time>2021-04-17T08:02:14.403</time></trkpt><trkpt lat="55.8413307" lon="48.9336194"><time>2021-04-17T08:02:19.533</time></trkpt><trkpt lat="55.8412829" lon="48.9335687"><time>2021-04-17T08:02:24.493</time></trkpt><trkpt lat="55.8412399" lon="48.9335368"><time>2021-04-17T08:02:28.397</time></trkpt><trkpt lat="55.8411938" lon="48.9334758"><time>2021-04-17T08:02:35.490</time></trkpt><trkpt lat="55.8411388" lon="48.9334480"><time>2021-04-17T08:02:39.383</time></trkpt><trkpt lat="55.8410924" lon="48.9333982"><time>2021-04-17T08:02:49.870</time></trkpt><trkpt lat="55.8410491" lon="48.9333768"><time>2021-04-17T08:02:52.853</time></trkpt><trkpt lat="55.8410165" lon="48.9333214"><time>2021-04-17T08:02:56.627</time></trkpt><trkpt lat="55.8409641" lon="48.9332800"><time>2021-04-17T08:03:00.387</time></trkpt><trkpt lat="55.8409032" lon="48.9332472"><time>2021-04-17T08:03:03.487</time></trkpt><trkpt lat="55.8408462" lon="48.9332157"><time>2021-04-17T08:03:06.487</time></trkpt><trkpt lat="55.8407996" lon="48.9331760"><time>2021-04-17T08:03:09.460</time></trkpt><trkpt lat="55.8407585" lon="48.9331325"><time>2021-04-17T08:03:12.493</time></trkpt><trkpt lat="55.8407194" lon="48.9330880"><time>2021-04-17T08:03:16.473</time></trkpt><trkpt lat="55.8406732" lon="48.9330523"><time>2021-04-17T08:03:19.493</time></trkpt><trkpt lat="55.8406260" lon="48.9330163"><time>2021-04-17T08:03:23.400</time></trkpt><trkpt lat="55.8405773" lon="48.9329656"><time>2021-04-17T08:03:28.607</time></trkpt><trkpt lat="55.8405330" lon="48.9329142"><time>2021-04-17T08:03:32.490</time></trkpt><trkpt lat="55.8404887" lon="48.9328995"><time>2021-04-17T08:03:39.493</time></trkpt><trkpt lat="55.8404460" lon="48.9328661"><time>2021-04-17T08:03:43.760</time></trkpt><trkpt lat="55.8403976" lon="48.9328227"><time>2021-04-17T08:03:48.780</time></trkpt><trkpt lat="55.8403553" lon="48.9327797"><time>2021-04-17T08:03:52.807</time></trkpt><trkpt lat="55.8403270" lon="48.9327150"><time>2021-04-17T08:03:56.800</time></trkpt><trkpt lat="55.8402726" lon="48.9326783"><time>2021-04-17T08:04:02.853</time></trkpt><trkpt lat="55.8402273" lon="48.9326521"><time>2021-04-17T08:04:07.953</time></trkpt><trkpt lat="55.8401769" lon="48.9326298"><time>2021-04-17T08:04:12.743</time></trkpt><trkpt lat="55.8401332" lon="48.9325926"><time>2021-04-17T08:04:16.547</time></trkpt><trkpt lat="55.8400909" lon="48.9325657"><time>2021-04-17T08:04:20.497</time></trkpt><trkpt lat="55.8400334" lon="48.9325311"><time>2021-04-17T08:04:25.487</time></trkpt><trkpt lat="55.8399812" lon="48.9325073"><time>2021-04-17T08:04:29.400</time></trkpt><trkpt lat="55.8399303" lon="48.9324974"><time>2021-04-17T08:04:36.487</time></trkpt><trkpt lat="55.8398799" lon="48.9325159"><time>2021-04-17T08:05:04.627</time></trkpt><trkpt lat="55.8398262" lon="48.9325074"><time>2021-04-17T08:05:17.490</time></trkpt><trkpt lat="55.8397824" lon="48.9324530"><time>2021-04-17T08:05:36.490</time></trkpt><trkpt lat="55.8397293" lon="48.9324300"><time>2021-04-17T08:05:41.497</time></trkpt><trkpt lat="55.8396791" lon="48.9324468"><time>2021-04-17T08:05:58.487</time></trkpt><trkpt lat="55.8396439" lon="48.9325010"><time>2021-04-17T08:06:09.493</time></trkpt><trkpt lat="55.8395971" lon="48.9325114"><time>2021-04-17T08:06:13.503</time></trkpt><trkpt lat="55.8395460" lon="48.9324839"><time>2021-04-17T08:06:18.867</time></trkpt><trkpt lat="55.8394880" lon="48.9324594"><time>2021-04-17T08:06:25.857</time></trkpt><trkpt lat="55.8394369" lon="48.9324441"><time>2021-04-17T08:06:28.613</time></trkpt><trkpt lat="55.8393885" lon="48.9324404"><time>2021-04-17T08:06:34.500</time></trkpt><trkpt lat="55.8393403" lon="48.9324451"><time>2021-04-17T08:06:41.447</time></trkpt><trkpt lat="55.8392951" lon="48.9324208"><time>2021-04-17T08:06:47.580</time></trkpt><trkpt lat="55.8392488" lon="48.9323687"><time>2021-04-17T08:06:51.607</time></trkpt><trkpt lat="55.8391989" lon="48.9323274"><time>2021-04-17T08:06:56.493</time></trkpt><trkpt lat="55.8391484" lon="48.9323096"><time>2021-04-17T08:07:00.507</time></trkpt><trkpt lat="55.8391028" lon="48.9322861"><time>2021-04-17T08:07:06.493</time></trkpt><trkpt lat="55.8390567" lon="48.9322773"><time>2021-04-17T08:07:11.597</time></trkpt><trkpt lat="55.8390232" lon="48.9321987"><time>2021-04-17T08:07:18.533</time></trkpt><trkpt lat="55.8390155" lon="48.9321921"><time>2021-04-17T08:07:20.917</time></trkpt><trkpt lat="55.8389780" lon="48.9321697"><time>2021-04-17T08:07:30.763</time></trkpt><trkpt lat="55.8389044" lon="48.9321850"><time>2021-04-17T08:07:48.487</time></trkpt><trkpt lat="55.8388555" lon="48.9321891"><time>2021-04-17T08:07:53.403</time></trkpt><trkpt lat="55.8388088" lon="48.9321468"><time>2021-04-17T08:08:02.543</time></trkpt><trkpt lat="55.8387804" lon="48.9320780"><time>2021-04-17T08:08:08.497</time></trkpt><trkpt lat="55.8387596" lon="48.9320037"><time>2021-04-17T08:08:14.487</time></trkpt><trkpt lat="55.8387132" lon="48.9319389"><time>2021-04-17T08:08:18.577</time></trkpt><trkpt lat="55.8386695" lon="48.9318962"><time>2021-04-17T08:08:21.587</time></trkpt><trkpt lat="55.8386223" lon="48.9318529"><time>2021-04-17T08:08:24.620</time></trkpt><trkpt lat="55.8385758" lon="48.9318161"><time>2021-04-17T08:08:27.603</time></trkpt><trkpt lat="55.8385217" lon="48.9317738"><time>2021-04-17T08:08:30.620</time></trkpt><trkpt lat="55.8384692" lon="48.9317614"><time>2021-04-17T08:08:33.613</time></trkpt><trkpt lat="55.8384293" lon="48.9317237"><time>2021-04-17T08:08:37.893</time></trkpt><trkpt lat="55.8383859" lon="48.9316793"><time>2021-04-17T08:08:41.777</time></trkpt><trkpt lat="55.8383308" lon="48.9316385"><time>2021-04-17T08:08:45.770</time></trkpt><trkpt lat="55.8382880" lon="48.9316033"><time>2021-04-17T08:08:48.760</time></trkpt><trkpt lat="55.8382372" lon="48.9315574"><time>2021-04-17T08:08:51.777</time></trkpt><trkpt lat="55.8381962" lon="48.9315052"><time>2021-04-17T08:08:54.773</time></trkpt><trkpt lat="55.8381566" lon="48.9314598"><time>2021-04-17T08:08:57.783</time></trkpt><trkpt lat="55.8381149" lon="48.9314296"><time>2021-04-17T08:09:00.780</time></trkpt><trkpt lat="55.8380728" lon="48.9313873"><time>2021-04-17T08:09:03.777</time></trkpt><trkpt lat="55.8380303" lon="48.9313586"><time>2021-04-17T08:09:06.773</time></trkpt><trkpt lat="55.8379700" lon="48.9313426"><time>2021-04-17T08:09:10.773</time></trkpt><trkpt lat="55.8379242" lon="48.9313221"><time>2021-04-17T08:09:14.847</time></trkpt><trkpt lat="55.8378747" lon="48.9312889"><time>2021-04-17T08:09:18.773</time></trkpt><trkpt lat="55.8378148" lon="48.9312666"><time>2021-04-17T08:09:22.773</time></trkpt><trkpt lat="55.8377665" lon="48.9312488"><time>2021-04-17T08:09:26.777</time></trkpt><trkpt lat="55.8377143" lon="48.9312037"><time>2021-04-17T08:09:29.903</time></trkpt><trkpt lat="55.8376693" lon="48.9311848"><time>2021-04-17T08:09:31.773</time></trkpt><trkpt lat="55.8376241" lon="48.9311523"><time>2021-04-17T08:09:33.773</time></trkpt><trkpt lat="55.8375754" lon="48.9311269"><time>2021-04-17T08:09:35.890</time></trkpt><trkpt lat="55.8375097" lon="48.9310755"><time>2021-04-17T08:09:38.777</time></trkpt><trkpt lat="55.8374668" lon="48.9310463"><time>2021-04-17T08:09:40.773</time></trkpt><trkpt lat="55.8374117" lon="48.9310243"><time>2021-04-17T08:09:43.780</time></trkpt><trkpt lat="55.8373606" lon="48.9310041"><time>2021-04-17T08:09:46.757</time></trkpt><trkpt lat="55.8373155" lon="48.9309683"><time>2021-04-17T08:09:49.777</time></trkpt><trkpt lat="55.8372586" lon="48.9309146"><time>2021-04-17T08:09:52.767</time></trkpt><trkpt lat="55.8372135" lon="48.9308838"><time>2021-04-17T08:09:54.770</time></trkpt><trkpt lat="55.8371607" lon="48.9308319"><time>2021-04-17T08:09:57.773</time></trkpt><trkpt lat="55.8371002" lon="48.9307842"><time>2021-04-17T08:10:01.770</time></trkpt><trkpt lat="55.8370587" lon="48.9307533"><time>2021-04-17T08:10:03.770</time></trkpt><trkpt lat="55.8370163" lon="48.9307260"><time>2021-04-17T08:10:05.770</time></trkpt><trkpt lat="55.8369701" lon="48.9306855"><time>2021-04-17T08:10:07.773</time></trkpt><trkpt lat="55.8369154" lon="48.9306579"><time>2021-04-17T08:10:10.770</time></trkpt><trkpt lat="55.8368705" lon="48.9306352"><time>2021-04-17T08:10:13.767</time></trkpt><trkpt lat="55.8368222" lon="48.9305838"><time>2021-04-17T08:10:17.770</time></trkpt><trkpt lat="55.8367772" lon="48.9305537"><time>2021-04-17T08:10:20.767</time></trkpt><trkpt lat="55.8367368" lon="48.9305077"><time>2021-04-17T08:10:24.770</time></trkpt><trkpt lat="55.8366861" lon="48.9304624"><time>2021-04-17T08:10:28.767</time></trkpt><trkpt lat="55.8366330" lon="48.9304238"><time>2021-04-17T08:10:31.897</time></trkpt><trkpt lat="55.8365901" lon="48.9303642"><time>2021-04-17T08:10:34.767</time></trkpt><trkpt lat="55.8365273" lon="48.9303457"><time>2021-04-17T08:10:37.880</time></trkpt><trkpt lat="55.8364857" lon="48.9303093"><time>2021-04-17T08:10:39.770</time></trkpt><trkpt lat="55.8364432" lon="48.9302434"><time>2021-04-17T08:10:42.770</time></trkpt><trkpt lat="55.8363929" lon="48.9301910"><time>2021-04-17T08:10:45.763</time></trkpt><trkpt lat="55.8363355" lon="48.9301439"><time>2021-04-17T08:10:48.767</time></trkpt><trkpt lat="55.8362855" lon="48.9301137"><time>2021-04-17T08:11:10.767</time></trkpt><trkpt lat="55.8362429" lon="48.9300737"><time>2021-04-17T08:11:13.770</time></trkpt><trkpt lat="55.8361845" lon="48.9300554"><time>2021-04-17T08:11:16.517</time></trkpt><trkpt lat="55.8361330" lon="48.9300309"><time>2021-04-17T08:11:19.493</time></trkpt><trkpt lat="55.8360791" lon="48.9300174"><time>2021-04-17T08:11:22.633</time></trkpt><trkpt lat="55.8360325" lon="48.9299995"><time>2021-04-17T08:11:27.393</time></trkpt><trkpt lat="55.8359913" lon="48.9299581"><time>2021-04-17T08:11:32.800</time></trkpt><trkpt lat="55.8359477" lon="48.9299232"><time>2021-04-17T08:11:37.757</time></trkpt><trkpt lat="55.8358999" lon="48.9298871"><time>2021-04-17T08:11:41.827</time></trkpt><trkpt lat="55.8358615" lon="48.9298421"><time>2021-04-17T08:11:44.490</time></trkpt><trkpt lat="55.8358260" lon="48.9297883"><time>2021-04-17T08:11:49.610</time></trkpt><trkpt lat="55.8357807" lon="48.9297677"><time>2021-04-17T08:11:53.807</time></trkpt><trkpt lat="55.8357281" lon="48.9297530"><time>2021-04-17T08:11:58.870</time></trkpt><trkpt lat="55.8356684" lon="48.9297264"><time>2021-04-17T08:12:02.870</time></trkpt><trkpt lat="55.8356151" lon="48.9297234"><time>2021-04-17T08:12:05.737</time></trkpt><trkpt lat="55.8355499" lon="48.9297174"><time>2021-04-17T08:12:08.640</time></trkpt><trkpt lat="55.8354998" lon="48.9296915"><time>2021-04-17T08:12:11.670</time></trkpt><trkpt lat="55.8354417" lon="48.9296699"><time>2021-04-17T08:12:14.517</time></trkpt><trkpt lat="55.8353906" lon="48.9296532"><time>2021-04-17T08:12:17.493</time></trkpt><trkpt lat="55.8353475" lon="48.9296266"><time>2021-04-17T08:12:19.493</time></trkpt><trkpt lat="55.8352916" lon="48.9295806"><time>2021-04-17T08:12:22.603</time></trkpt><trkpt lat="55.8352382" lon="48.9295298"><time>2021-04-17T08:12:25.487</time></trkpt><trkpt lat="55.8351874" lon="48.9294931"><time>2021-04-17T08:12:28.400</time></trkpt><trkpt lat="55.8351536" lon="48.9294284"><time>2021-04-17T08:12:32.550</time></trkpt><trkpt lat="55.8351152" lon="48.9293744"><time>2021-04-17T08:12:35.407</time></trkpt><trkpt lat="55.8350797" lon="48.9293065"><time>2021-04-17T08:12:38.490</time></trkpt><trkpt lat="55.8350461" lon="48.9292293"><time>2021-04-17T08:12:42.647</time></trkpt><trkpt lat="55.8350315" lon="48.9291421"><time>2021-04-17T08:12:46.550</time></trkpt><trkpt lat="55.8350596" lon="48.9290780"><time>2021-04-17T08:13:04.407</time></trkpt><trkpt lat="55.8350238" lon="48.9291344"><time>2021-04-17T08:13:30.480</time></trkpt><trkpt lat="55.8350141" lon="48.9291575"><time>2021-04-17T08:13:39.723</time></trkpt><trkpt lat="55.8349752" lon="48.9291474"><time>2021-04-17T08:13:45.510</time></trkpt><trkpt lat="55.8349310" lon="48.9291827"><time>2021-04-17T08:13:50.510</time></trkpt><trkpt lat="55.8348841" lon="48.9292271"><time>2021-04-17T08:13:53.517</time></trkpt><trkpt lat="55.8348390" lon="48.9292408"><time>2021-04-17T08:13:56.520</time></trkpt><trkpt lat="55.8347961" lon="48.9292126"><time>2021-04-17T08:13:59.523</time></trkpt><trkpt lat="55.8347535" lon="48.9291561"><time>2021-04-17T08:14:03.557</time></trkpt><trkpt lat="55.8347242" lon="48.9290922"><time>2021-04-17T08:14:07.520</time></trkpt><trkpt lat="55.8347088" lon="48.9290090"><time>2021-04-17T08:14:11.773</time></trkpt><trkpt lat="55.8346788" lon="48.9289100"><time>2021-04-17T08:14:15.867</time></trkpt><trkpt lat="55.8346328" lon="48.9288506"><time>2021-04-17T08:14:19.527</time></trkpt><trkpt lat="55.8345933" lon="48.9287890"><time>2021-04-17T08:14:22.493</time></trkpt><trkpt lat="55.8345406" lon="48.9287404"><time>2021-04-17T08:14:25.497</time></trkpt><trkpt lat="55.8344982" lon="48.9286987"><time>2021-04-17T08:14:33.397</time></trkpt><trkpt lat="55.8344563" lon="48.9286338"><time>2021-04-17T08:14:38.487</time></trkpt><trkpt lat="55.8344123" lon="48.9285855"><time>2021-04-17T08:14:41.453</time></trkpt><trkpt lat="55.8343718" lon="48.9285118"><time>2021-04-17T08:14:46.603</time></trkpt><trkpt lat="55.8343242" lon="48.9284668"><time>2021-04-17T08:14:49.493</time></trkpt><trkpt lat="55.8342809" lon="48.9284165"><time>2021-04-17T08:14:52.487</time></trkpt><trkpt lat="55.8342552" lon="48.9283441"><time>2021-04-17T08:14:56.490</time></trkpt><trkpt lat="55.8342227" lon="48.9282599"><time>2021-04-17T08:15:01.487</time></trkpt><trkpt lat="55.8341893" lon="48.9282030"><time>2021-04-17T08:15:04.493</time></trkpt><trkpt lat="55.8341478" lon="48.9281543"><time>2021-04-17T08:15:07.493</time></trkpt><trkpt lat="55.8340983" lon="48.9280710"><time>2021-04-17T08:15:10.573</time></trkpt><trkpt lat="55.8340599" lon="48.9280014"><time>2021-04-17T08:15:12.763</time></trkpt><trkpt lat="55.8340349" lon="48.9279246"><time>2021-04-17T08:15:14.763</time></trkpt><trkpt lat="55.8340128" lon="48.9278512"><time>2021-04-17T08:15:16.757</time></trkpt><trkpt lat="55.8340249" lon="48.9277461"><time>2021-04-17T08:15:19.880</time></trkpt><trkpt lat="55.8340244" lon="48.9276502"><time>2021-04-17T08:15:23.517</time></trkpt><trkpt lat="55.8340427" lon="48.9275442"><time>2021-04-17T08:15:27.477</time></trkpt><trkpt lat="55.8340565" lon="48.9274537"><time>2021-04-17T08:15:29.493</time></trkpt><trkpt lat="55.8340605" lon="48.9273510"><time>2021-04-17T08:15:32.510</time></trkpt><trkpt lat="55.8340762" lon="48.9272691"><time>2021-04-17T08:15:34.500</time></trkpt><trkpt lat="55.8340991" lon="48.9271966"><time>2021-04-17T08:15:37.480</time></trkpt><trkpt lat="55.8340887" lon="48.9271122"><time>2021-04-17T08:15:42.487</time></trkpt><trkpt lat="55.8340540" lon="48.9270532"><time>2021-04-17T08:15:46.487</time></trkpt><trkpt lat="55.8340102" lon="48.9269822"><time>2021-04-17T08:15:49.483</time></trkpt><trkpt lat="55.8340201" lon="48.9268806"><time>2021-04-17T08:15:52.497</time></trkpt><trkpt lat="55.8340417" lon="48.9268055"><time>2021-04-17T08:15:56.487</time></trkpt><trkpt lat="55.8340283" lon="48.9267278"><time>2021-04-17T08:16:01.483</time></trkpt><trkpt lat="55.8340312" lon="48.9266113"><time>2021-04-17T08:16:14.403</time></trkpt><trkpt lat="55.8340329" lon="48.9265266"><time>2021-04-17T08:16:21.867</time></trkpt><trkpt lat="55.8340606" lon="48.9264558"><time>2021-04-17T08:16:25.873</time></trkpt><trkpt lat="55.8340763" lon="48.9263696"><time>2021-04-17T08:16:35.403</time></trkpt><trkpt lat="55.8340853" lon="48.9262688"><time>2021-04-17T08:16:40.603</time></trkpt><trkpt lat="55.8340945" lon="48.9261729"><time>2021-04-17T08:16:44.487</time></trkpt><trkpt lat="55.8341030" lon="48.9260653"><time>2021-04-17T08:16:48.490</time></trkpt><trkpt lat="55.8341265" lon="48.9259659"><time>2021-04-17T08:16:51.483</time></trkpt><trkpt lat="55.8341606" lon="48.9258743"><time>2021-04-17T08:16:53.493</time></trkpt><trkpt lat="55.8341789" lon="48.9257669"><time>2021-04-17T08:16:56.487</time></trkpt><trkpt lat="55.8342039" lon="48.9256798"><time>2021-04-17T08:16:58.483</time></trkpt><trkpt lat="55.8342288" lon="48.9256014"><time>2021-04-17T08:17:00.483</time></trkpt><trkpt lat="55.8342514" lon="48.9255235"><time>2021-04-17T08:17:02.483</time></trkpt><trkpt lat="55.8342580" lon="48.9254058"><time>2021-04-17T08:17:05.490</time></trkpt><trkpt lat="55.8342754" lon="48.9253074"><time>2021-04-17T08:17:09.493</time></trkpt><trkpt lat="55.8342775" lon="48.9252126"><time>2021-04-17T08:17:13.607</time></trkpt><trkpt lat="55.8342890" lon="48.9251251"><time>2021-04-17T08:17:17.497</time></trkpt><trkpt lat="55.8343058" lon="48.9250270"><time>2021-04-17T08:17:21.487</time></trkpt><trkpt lat="55.8343237" lon="48.9249484"><time>2021-04-17T08:17:25.390</time></trkpt><trkpt lat="55.8343329" lon="48.9249479"><time>2021-04-17T08:17:26.917</time></trkpt><trkpt lat="55.8343557" lon="48.9248798"><time>2021-04-17T08:17:33.387</time></trkpt><trkpt lat="55.8343507" lon="48.9247964"><time>2021-04-17T08:17:43.877</time></trkpt><trkpt lat="55.8343055" lon="48.9247509"><time>2021-04-17T08:17:54.640</time></trkpt><trkpt lat="55.8342591" lon="48.9247695"><time>2021-04-17T08:17:58.637</time></trkpt><trkpt lat="55.8342116" lon="48.9247748"><time>2021-04-17T08:18:02.647</time></trkpt><trkpt lat="55.8341743" lon="48.9248314"><time>2021-04-17T08:18:07.493</time></trkpt><trkpt lat="55.8341302" lon="48.9248464"><time>2021-04-17T08:18:11.700</time></trkpt><trkpt lat="55.8340746" lon="48.9248738"><time>2021-04-17T08:18:16.587</time></trkpt><trkpt lat="55.8340362" lon="48.9249256"><time>2021-04-17T08:18:22.490</time></trkpt><trkpt lat="55.8339918" lon="48.9249746"><time>2021-04-17T08:18:27.397</time></trkpt><trkpt lat="55.8339460" lon="48.9249943"><time>2021-04-17T08:18:29.490</time></trkpt><trkpt lat="55.8338905" lon="48.9250149"><time>2021-04-17T08:18:32.633</time></trkpt><trkpt lat="55.8338371" lon="48.9250442"><time>2021-04-17T08:18:35.633</time></trkpt><trkpt lat="55.8337882" lon="48.9250704"><time>2021-04-17T08:18:37.847</time></trkpt><trkpt lat="55.8337323" lon="48.9250983"><time>2021-04-17T08:18:40.957</time></trkpt><trkpt lat="55.8336786" lon="48.9250853"><time>2021-04-17T08:18:42.857</time></trkpt><trkpt lat="55.8336308" lon="48.9250834"><time>2021-04-17T08:18:46.483</time></trkpt><trkpt lat="55.8335742" lon="48.9250473"><time>2021-04-17T08:18:50.487</time></trkpt><trkpt lat="55.8335176" lon="48.9250578"><time>2021-04-17T08:18:54.487</time></trkpt><trkpt lat="55.8334547" lon="48.9250753"><time>2021-04-17T08:18:58.400</time></trkpt><trkpt lat="55.8334053" lon="48.9250726"><time>2021-04-17T08:19:02.397</time></trkpt><trkpt lat="55.8333563" lon="48.9250846"><time>2021-04-17T08:19:06.387</time></trkpt><trkpt lat="55.8333100" lon="48.9251145"><time>2021-04-17T08:19:11.500</time></trkpt><trkpt lat="55.8332641" lon="48.9251132"><time>2021-04-17T08:19:14.500</time></trkpt><trkpt lat="55.8332188" lon="48.9251156"><time>2021-04-17T08:19:17.490</time></trkpt><trkpt lat="55.8331719" lon="48.9251083"><time>2021-04-17T08:19:22.487</time></trkpt><trkpt lat="55.8331213" lon="48.9250742"><time>2021-04-17T08:19:25.483</time></trkpt><trkpt lat="55.8330812" lon="48.9250109"><time>2021-04-17T08:19:29.493</time></trkpt><trkpt lat="55.8330398" lon="48.9249650"><time>2021-04-17T08:19:36.487</time></trkpt><trkpt lat="55.8329939" lon="48.9249288"><time>2021-04-17T08:19:42.607</time></trkpt><trkpt lat="55.8329494" lon="48.9249106"><time>2021-04-17T08:19:49.880</time></trkpt><trkpt lat="55.8329011" lon="48.9249599"><time>2021-04-17T08:19:56.490</time></trkpt><trkpt lat="55.8328577" lon="48.9249870"><time>2021-04-17T08:20:00.490</time></trkpt><trkpt lat="55.8328169" lon="48.9250396"><time>2021-04-17T08:20:04.487</time></trkpt><trkpt lat="55.8327769" lon="48.9250923"><time>2021-04-17T08:20:08.493</time></trkpt><trkpt lat="55.8327328" lon="48.9251408"><time>2021-04-17T08:20:12.487</time></trkpt><trkpt lat="55.8326875" lon="48.9251967"><time>2021-04-17T08:20:16.487</time></trkpt><trkpt lat="55.8326518" lon="48.9252568"><time>2021-04-17T08:20:20.487</time></trkpt><trkpt lat="55.8326103" lon="48.9252978"><time>2021-04-17T08:20:24.490</time></trkpt><trkpt lat="55.8325643" lon="48.9253246"><time>2021-04-17T08:20:28.487</time></trkpt><trkpt lat="55.8325142" lon="48.9253629"><time>2021-04-17T08:20:33.527</time></trkpt><trkpt lat="55.8324652" lon="48.9253715"><time>2021-04-17T08:20:37.487</time></trkpt><trkpt lat="55.8324112" lon="48.9253709"><time>2021-04-17T08:20:43.490</time></trkpt><trkpt lat="55.8323628" lon="48.9253770"><time>2021-04-17T08:20:47.597</time></trkpt><trkpt lat="55.8323211" lon="48.9253395"><time>2021-04-17T08:20:54.787</time></trkpt><trkpt lat="55.8322753" lon="48.9253394"><time>2021-04-17T08:20:59.797</time></trkpt><trkpt lat="55.8322196" lon="48.9253244"><time>2021-04-17T08:21:03.537</time></trkpt><trkpt lat="55.8321682" lon="48.9253286"><time>2021-04-17T08:21:07.500</time></trkpt><trkpt lat="55.8321233" lon="48.9252984"><time>2021-04-17T08:21:18.493</time></trkpt><trkpt lat="55.8320688" lon="48.9252831"><time>2021-04-17T08:21:31.383</time></trkpt><trkpt lat="55.8320139" lon="48.9252830"><time>2021-04-17T08:21:35.487</time></trkpt><trkpt lat="55.8319661" lon="48.9252713"><time>2021-04-17T08:21:40.607</time></trkpt><trkpt lat="55.8319108" lon="48.9252462"><time>2021-04-17T08:21:51.487</time></trkpt><trkpt lat="55.8318651" lon="48.9252448"><time>2021-04-17T08:21:57.490</time></trkpt><trkpt lat="55.8318241" lon="48.9252119"><time>2021-04-17T08:22:03.630</time></trkpt><trkpt lat="55.8317776" lon="48.9251883"><time>2021-04-17T08:22:07.863</time></trkpt><trkpt lat="55.8317296" lon="48.9251588"><time>2021-04-17T08:22:12.857</time></trkpt><trkpt lat="55.8316831" lon="48.9251453"><time>2021-04-17T08:22:19.493</time></trkpt><trkpt lat="55.8316315" lon="48.9251376"><time>2021-04-17T08:22:29.500</time></trkpt><trkpt lat="55.8315844" lon="48.9251245"><time>2021-04-17T08:22:37.647</time></trkpt><trkpt lat="55.8315394" lon="48.9250929"><time>2021-04-17T08:22:49.400</time></trkpt><trkpt lat="55.8315036" lon="48.9250178"><time>2021-04-17T08:23:00.483</time></trkpt><trkpt lat="55.8314601" lon="48.9249942"><time>2021-04-17T08:23:04.403</time></trkpt><trkpt lat="55.8314099" lon="48.9249584"><time>2021-04-17T08:23:09.567</time></trkpt><trkpt lat="55.8313645" lon="48.9249458"><time>2021-04-17T08:23:14.883</time></trkpt><trkpt lat="55.8313337" lon="48.9248813"><time>2021-04-17T08:23:24.540</time></trkpt><trkpt lat="55.8313384" lon="48.9247962"><time>2021-04-17T08:23:42.483</time></trkpt><trkpt lat="55.8313583" lon="48.9247221"><time>2021-04-17T08:23:48.483</time></trkpt><trkpt lat="55.8313564" lon="48.9246249"><time>2021-04-17T08:23:57.490</time></trkpt><trkpt lat="55.8313733" lon="48.9245441"><time>2021-04-17T08:24:08.490</time></trkpt><trkpt lat="55.8313818" lon="48.9244646"><time>2021-04-17T08:24:22.867</time></trkpt><trkpt lat="55.8313891" lon="48.9243796"><time>2021-04-17T08:24:27.867</time></trkpt><trkpt lat="55.8313639" lon="48.9243008"><time>2021-04-17T08:24:31.503</time></trkpt><trkpt lat="55.8313203" lon="48.9242346"><time>2021-04-17T08:24:38.487</time></trkpt><trkpt lat="55.8312945" lon="48.9241671"><time>2021-04-17T08:24:42.483</time></trkpt><trkpt lat="55.8312797" lon="48.9240845"><time>2021-04-17T08:24:47.490</time></trkpt><trkpt lat="55.8312796" lon="48.9240011"><time>2021-04-17T08:24:52.487</time></trkpt><trkpt lat="55.8312285" lon="48.9239503"><time>2021-04-17T08:24:59.393</time></trkpt><trkpt lat="55.8311842" lon="48.9239196"><time>2021-04-17T08:25:01.390</time></trkpt><trkpt lat="55.8311306" lon="48.9238983"><time>2021-04-17T08:25:03.380</time></trkpt><trkpt lat="55.8310926" lon="48.9238787"><time>2021-04-17T08:25:08.867</time></trkpt><trkpt lat="55.8310441" lon="48.9238555"><time>2021-04-17T08:25:09.390</time></trkpt><trkpt lat="55.8309812" lon="48.9238360"><time>2021-04-17T08:25:11.317</time></trkpt><trkpt lat="55.8309180" lon="48.9238316"><time>2021-04-17T08:25:13.303</time></trkpt><trkpt lat="55.8308518" lon="48.9238347"><time>2021-04-17T08:25:15.297</time></trkpt><trkpt lat="55.8307839" lon="48.9238415"><time>2021-04-17T08:25:18.493</time></trkpt><trkpt lat="55.8307273" lon="48.9238746"><time>2021-04-17T08:25:21.617</time></trkpt><trkpt lat="55.8306762" lon="48.9238964"><time>2021-04-17T08:25:24.613</time></trkpt><trkpt lat="55.8306456" lon="48.9238232"><time>2021-04-17T08:25:32.630</time></trkpt><trkpt lat="55.8306385" lon="48.9237348"><time>2021-04-17T08:25:38.667</time></trkpt><trkpt lat="55.8306401" lon="48.9236493"><time>2021-04-17T08:25:45.387</time></trkpt><trkpt lat="55.8306352" lon="48.9235666"><time>2021-04-17T08:25:50.483</time></trkpt><trkpt lat="55.8305898" lon="48.9235561"><time>2021-04-17T08:25:58.563</time></trkpt><trkpt lat="55.8305554" lon="48.9234866"><time>2021-04-17T08:26:10.490</time></trkpt><trkpt lat="55.8305529" lon="48.9234060"><time>2021-04-17T08:26:16.483</time></trkpt><trkpt lat="55.8305085" lon="48.9233849"><time>2021-04-17T08:26:30.487</time></trkpt><trkpt lat="55.8304544" lon="48.9233606"><time>2021-04-17T08:26:34.667</time></trkpt><trkpt lat="55.8304058" lon="48.9233280"><time>2021-04-17T08:26:36.653</time></trkpt><trkpt lat="55.8303599" lon="48.9232912"><time>2021-04-17T08:26:41.663</time></trkpt><trkpt lat="55.8303197" lon="48.9232415"><time>2021-04-17T08:26:52.590</time></trkpt><trkpt lat="55.8302712" lon="48.9232045"><time>2021-04-17T08:27:04.487</time></trkpt><trkpt lat="55.8302479" lon="48.9231199"><time>2021-04-17T08:27:14.490</time></trkpt><trkpt lat="55.8302015" lon="48.9231383"><time>2021-04-17T08:27:23.490</time></trkpt><trkpt lat="55.8301708" lon="48.9230712"><time>2021-04-17T08:28:42.480</time></trkpt><trkpt lat="55.8301223" lon="48.9231095"><time>2021-04-17T08:28:49.630</time></trkpt><trkpt lat="55.8300840" lon="48.9231608"><time>2021-04-17T08:28:57.600</time></trkpt><trkpt lat="55.8300480" lon="48.9230971"><time>2021-04-17T08:29:18.403</time></trkpt><trkpt lat="55.8300736" lon="48.9230012"><time>2021-04-17T08:29:23.493</time></trkpt><trkpt lat="55.8300833" lon="48.9229069"><time>2021-04-17T08:29:26.487</time></trkpt><trkpt lat="55.8300660" lon="48.9228237"><time>2021-04-17T08:29:31.390</time></trkpt><trkpt lat="55.8300469" lon="48.9227176"><time>2021-04-17T08:29:34.607</time></trkpt><trkpt lat="55.8300403" lon="48.9226308"><time>2021-04-17T08:29:37.487</time></trkpt><trkpt lat="55.8300380" lon="48.9225368"><time>2021-04-17T08:29:41.400</time></trkpt><trkpt lat="55.8300348" lon="48.9224309"><time>2021-04-17T08:29:44.487</time></trkpt><trkpt lat="55.8300211" lon="48.9223526"><time>2021-04-17T08:29:47.490</time></trkpt><trkpt lat="55.8300258" lon="48.9222665"><time>2021-04-17T08:29:50.613</time></trkpt><trkpt lat="55.8300096" lon="48.9221688"><time>2021-04-17T08:29:55.607</time></trkpt><trkpt lat="55.8300052" lon="48.9220610"><time>2021-04-17T08:29:59.767</time></trkpt><trkpt lat="55.8300046" lon="48.9219689"><time>2021-04-17T08:30:03.757</time></trkpt><trkpt lat="55.8299641" lon="48.9218952"><time>2021-04-17T08:30:08.753</time></trkpt><trkpt lat="55.8298974" lon="48.9218264"><time>2021-04-17T08:30:11.763</time></trkpt><trkpt lat="55.8298424" lon="48.9217674"><time>2021-04-17T08:30:13.760</time></trkpt><trkpt lat="55.8298012" lon="48.9217114"><time>2021-04-17T08:30:15.743</time></trkpt><trkpt lat="55.8297684" lon="48.9216514"><time>2021-04-17T08:30:17.623</time></trkpt><trkpt lat="55.8297470" lon="48.9215503"><time>2021-04-17T08:30:20.617</time></trkpt><trkpt lat="55.8297129" lon="48.9214755"><time>2021-04-17T08:30:23.600</time></trkpt><trkpt lat="55.8296895" lon="48.9213824"><time>2021-04-17T08:30:26.847</time></trkpt><trkpt lat="55.8296720" lon="48.9213040"><time>2021-04-17T08:30:28.847</time></trkpt><trkpt lat="55.8296596" lon="48.9212132"><time>2021-04-17T08:30:30.510</time></trkpt><trkpt lat="55.8296533" lon="48.9211219"><time>2021-04-17T08:30:32.837</time></trkpt><trkpt lat="55.8296376" lon="48.9210287"><time>2021-04-17T08:30:34.830</time></trkpt><trkpt lat="55.8296313" lon="48.9209461"><time>2021-04-17T08:30:36.683</time></trkpt><trkpt lat="55.8296313" lon="48.9208496"><time>2021-04-17T08:30:38.557</time></trkpt><trkpt lat="55.8296251" lon="48.9207684"><time>2021-04-17T08:30:40.487</time></trkpt><trkpt lat="55.8296091" lon="48.9206860"><time>2021-04-17T08:30:43.487</time></trkpt><trkpt lat="55.8295974" lon="48.9205899"><time>2021-04-17T08:30:46.647</time></trkpt><trkpt lat="55.8295854" lon="48.9205088"><time>2021-04-17T08:30:49.457</time></trkpt><trkpt lat="55.8295777" lon="48.9204093"><time>2021-04-17T08:30:53.403</time></trkpt><trkpt lat="55.8295548" lon="48.9203190"><time>2021-04-17T08:30:57.403</time></trkpt><trkpt lat="55.8295075" lon="48.9202635"><time>2021-04-17T08:31:00.417</time></trkpt><trkpt lat="55.8294812" lon="48.9201922"><time>2021-04-17T08:31:06.860</time></trkpt><trkpt lat="55.8294517" lon="48.9201170"><time>2021-04-17T08:31:11.537</time></trkpt><trkpt lat="55.8294311" lon="48.9200246"><time>2021-04-17T08:31:15.483</time></trkpt><trkpt lat="55.8294353" lon="48.9199428"><time>2021-04-17T08:31:17.497</time></trkpt><trkpt lat="55.8294443" lon="48.9198587"><time>2021-04-17T08:31:19.590</time></trkpt><trkpt lat="55.8294386" lon="48.9197614"><time>2021-04-17T08:31:22.510</time></trkpt><trkpt lat="55.8294090" lon="48.9196886"><time>2021-04-17T08:31:26.493</time></trkpt><trkpt lat="55.8293918" lon="48.9195953"><time>2021-04-17T08:31:30.500</time></trkpt><trkpt lat="55.8293544" lon="48.9195361"><time>2021-04-17T08:31:33.490</time></trkpt><trkpt lat="55.8293149" lon="48.9194632"><time>2021-04-17T08:31:37.487</time></trkpt><trkpt lat="55.8292798" lon="48.9193959"><time>2021-04-17T08:31:41.493</time></trkpt><trkpt lat="55.8292566" lon="48.9193177"><time>2021-04-17T08:31:44.487</time></trkpt><trkpt lat="55.8292280" lon="48.9192381"><time>2021-04-17T08:31:48.487</time></trkpt><trkpt lat="55.8292032" lon="48.9191674"><time>2021-04-17T08:31:50.487</time></trkpt><trkpt lat="55.8291779" lon="48.9190912"><time>2021-04-17T08:31:52.487</time></trkpt><trkpt lat="55.8291495" lon="48.9190145"><time>2021-04-17T08:31:54.487</time></trkpt><trkpt lat="55.8291177" lon="48.9189367"><time>2021-04-17T08:31:57.410</time></trkpt><trkpt lat="55.8290785" lon="48.9188928"><time>2021-04-17T08:32:00.800</time></trkpt><trkpt lat="55.8290393" lon="48.9188168"><time>2021-04-17T08:32:03.453</time></trkpt><trkpt lat="55.8290003" lon="48.9187498"><time>2021-04-17T08:32:06.420</time></trkpt><trkpt lat="55.8289583" lon="48.9186588"><time>2021-04-17T08:32:09.860</time></trkpt><trkpt lat="55.8289189" lon="48.9186041"><time>2021-04-17T08:32:12.983</time></trkpt><trkpt lat="55.8288860" lon="48.9185321"><time>2021-04-17T08:32:17.853</time></trkpt><trkpt lat="55.8288474" lon="48.9184852"><time>2021-04-17T08:32:20.863</time></trkpt><trkpt lat="55.8288151" lon="48.9184040"><time>2021-04-17T08:32:25.420</time></trkpt><trkpt lat="55.8287908" lon="48.9183064"><time>2021-04-17T08:32:28.377</time></trkpt><trkpt lat="55.8287479" lon="48.9182218"><time>2021-04-17T08:32:31.377</time></trkpt><trkpt lat="55.8287128" lon="48.9181418"><time>2021-04-17T08:32:34.390</time></trkpt><trkpt lat="55.8286719" lon="48.9180840"><time>2021-04-17T08:32:37.397</time></trkpt><trkpt lat="55.8286230" lon="48.9180255"><time>2021-04-17T08:32:40.390</time></trkpt><trkpt lat="55.8285862" lon="48.9179450"><time>2021-04-17T08:32:43.407</time></trkpt><trkpt lat="55.8285416" lon="48.9178717"><time>2021-04-17T08:32:46.417</time></trkpt><trkpt lat="55.8285005" lon="48.9178246"><time>2021-04-17T08:32:49.493</time></trkpt><trkpt lat="55.8284706" lon="48.9177476"><time>2021-04-17T08:32:52.427</time></trkpt><trkpt lat="55.8284394" lon="48.9176678"><time>2021-04-17T08:32:55.497</time></trkpt><trkpt lat="55.8283969" lon="48.9176170"><time>2021-04-17T08:32:58.437</time></trkpt><trkpt lat="55.8283455" lon="48.9175837"><time>2021-04-17T08:33:01.490</time></trkpt><trkpt lat="55.8283008" lon="48.9175182"><time>2021-04-17T08:33:08.680</time></trkpt><trkpt lat="55.8282653" lon="48.9174347"><time>2021-04-17T08:33:12.497</time></trkpt><trkpt lat="55.8282378" lon="48.9173600"><time>2021-04-17T08:33:16.447</time></trkpt><trkpt lat="55.8282043" lon="48.9172998"><time>2021-04-17T08:33:20.447</time></trkpt><trkpt lat="55.8281646" lon="48.9172391"><time>2021-04-17T08:33:24.767</time></trkpt><trkpt lat="55.8281288" lon="48.9171771"><time>2021-04-17T08:33:27.763</time></trkpt><trkpt lat="55.8280878" lon="48.9171388"><time>2021-04-17T08:33:30.757</time></trkpt><trkpt lat="55.8280397" lon="48.9170925"><time>2021-04-17T08:33:34.770</time></trkpt><trkpt lat="55.8280074" lon="48.9170299"><time>2021-04-17T08:33:37.567</time></trkpt><trkpt lat="55.8279668" lon="48.9169936"><time>2021-04-17T08:33:40.487</time></trkpt><trkpt lat="55.8279433" lon="48.9169239"><time>2021-04-17T08:33:44.507</time></trkpt><trkpt lat="55.8278980" lon="48.9168990"><time>2021-04-17T08:33:49.517</time></trkpt><trkpt lat="55.8278471" lon="48.9168479"><time>2021-04-17T08:33:54.487</time></trkpt><trkpt lat="55.8278028" lon="48.9168153"><time>2021-04-17T08:33:57.493</time></trkpt><trkpt lat="55.8277590" lon="48.9167652"><time>2021-04-17T08:34:00.493</time></trkpt><trkpt lat="55.8277051" lon="48.9168100"><time>2021-04-17T08:34:04.490</time></trkpt><trkpt lat="55.8276655" lon="48.9168597"><time>2021-04-17T08:34:07.387</time></trkpt><trkpt lat="55.8276140" lon="48.9169167"><time>2021-04-17T08:34:11.397</time></trkpt><trkpt lat="55.8275593" lon="48.9169577"><time>2021-04-17T08:34:15.487</time></trkpt><trkpt lat="55.8275136" lon="48.9169806"><time>2021-04-17T08:34:17.490</time></trkpt><trkpt lat="55.8274557" lon="48.9170364"><time>2021-04-17T08:34:20.493</time></trkpt><trkpt lat="55.8274219" lon="48.9171259"><time>2021-04-17T08:34:23.487</time></trkpt><trkpt lat="55.8274019" lon="48.9172301"><time>2021-04-17T08:34:26.487</time></trkpt><trkpt lat="55.8273592" lon="48.9172908"><time>2021-04-17T08:34:29.387</time></trkpt><trkpt lat="55.8273452" lon="48.9173005"><time>2021-04-17T08:34:33.907</time></trkpt><trkpt lat="55.8274050" lon="48.9172528"><time>2021-04-17T08:34:48.320</time></trkpt><trkpt lat="55.8274289" lon="48.9171849"><time>2021-04-17T08:34:54.497</time></trkpt><trkpt lat="55.8273981" lon="48.9171204"><time>2021-04-17T08:36:31.493</time></trkpt><trkpt lat="55.8273466" lon="48.9170807"><time>2021-04-17T08:36:36.490</time></trkpt><trkpt lat="55.8272870" lon="48.9170475"><time>2021-04-17T08:36:40.620</time></trkpt><trkpt lat="55.8272313" lon="48.9170385"><time>2021-04-17T08:36:43.630</time></trkpt><trkpt lat="55.8271798" lon="48.9170338"><time>2021-04-17T08:36:46.627</time></trkpt><trkpt lat="55.8271243" lon="48.9170219"><time>2021-04-17T08:36:48.633</time></trkpt><trkpt lat="55.8270697" lon="48.9170127"><time>2021-04-17T08:36:50.877</time></trkpt><trkpt lat="55.8270175" lon="48.9170007"><time>2021-04-17T08:36:52.877</time></trkpt><trkpt lat="55.8269708" lon="48.9169543"><time>2021-04-17T08:36:55.880</time></trkpt><trkpt lat="55.8269191" lon="48.9168994"><time>2021-04-17T08:36:58.677</time></trkpt><trkpt lat="55.8268698" lon="48.9168761"><time>2021-04-17T08:37:00.517</time></trkpt><trkpt lat="55.8268218" lon="48.9168520"><time>2021-04-17T08:37:02.487</time></trkpt><trkpt lat="55.8267673" lon="48.9168395"><time>2021-04-17T08:37:04.487</time></trkpt><trkpt lat="55.8267213" lon="48.9168072"><time>2021-04-17T08:37:06.490</time></trkpt><trkpt lat="55.8266887" lon="48.9167333"><time>2021-04-17T08:37:09.510</time></trkpt><trkpt lat="55.8266521" lon="48.9166799"><time>2021-04-17T08:37:12.487</time></trkpt><trkpt lat="55.8266006" lon="48.9166234"><time>2021-04-17T08:37:15.497</time></trkpt><trkpt lat="55.8265408" lon="48.9165901"><time>2021-04-17T08:37:18.430</time></trkpt><trkpt lat="55.8264834" lon="48.9165889"><time>2021-04-17T08:37:21.450</time></trkpt><trkpt lat="55.8264230" lon="48.9165728"><time>2021-04-17T08:37:24.440</time></trkpt><trkpt lat="55.8263778" lon="48.9165369"><time>2021-04-17T08:37:27.443</time></trkpt><trkpt lat="55.8263261" lon="48.9165322"><time>2021-04-17T08:37:30.457</time></trkpt><trkpt lat="55.8262812" lon="48.9164878"><time>2021-04-17T08:37:33.453</time></trkpt><trkpt lat="55.8262178" lon="48.9164648"><time>2021-04-17T08:37:36.450</time></trkpt><trkpt lat="55.8261604" lon="48.9164390"><time>2021-04-17T08:37:39.457</time></trkpt><trkpt lat="55.8261093" lon="48.9164132"><time>2021-04-17T08:37:42.467</time></trkpt><trkpt lat="55.8260529" lon="48.9163873"><time>2021-04-17T08:37:44.467</time></trkpt><trkpt lat="55.8260051" lon="48.9163682"><time>2021-04-17T08:37:46.470</time></trkpt><trkpt lat="55.8259563" lon="48.9163412"><time>2021-04-17T08:37:49.480</time></trkpt><trkpt lat="55.8258954" lon="48.9163365"><time>2021-04-17T08:37:52.467</time></trkpt><trkpt lat="55.8258342" lon="48.9163369"><time>2021-04-17T08:37:54.460</time></trkpt><trkpt lat="55.8257749" lon="48.9163180"><time>2021-04-17T08:37:57.493</time></trkpt><trkpt lat="55.8257296" lon="48.9163190"><time>2021-04-17T08:37:59.477</time></trkpt><trkpt lat="55.8256799" lon="48.9162854"><time>2021-04-17T08:38:03.493</time></trkpt><trkpt lat="55.8256306" lon="48.9162681"><time>2021-04-17T08:38:06.483</time></trkpt><trkpt lat="55.8255793" lon="48.9162655"><time>2021-04-17T08:38:09.483</time></trkpt><trkpt lat="55.8255239" lon="48.9162675"><time>2021-04-17T08:38:13.493</time></trkpt><trkpt lat="55.8254769" lon="48.9162492"><time>2021-04-17T08:38:16.483</time></trkpt><trkpt lat="55.8254294" lon="48.9162051"><time>2021-04-17T08:38:20.480</time></trkpt><trkpt lat="55.8253899" lon="48.9161416"><time>2021-04-17T08:38:25.497</time></trkpt><trkpt lat="55.8253338" lon="48.9161381"><time>2021-04-17T08:38:28.490</time></trkpt><trkpt lat="55.8252820" lon="48.9161219"><time>2021-04-17T08:38:32.493</time></trkpt><trkpt lat="55.8252226" lon="48.9161195"><time>2021-04-17T08:38:35.500</time></trkpt><trkpt lat="55.8251738" lon="48.9161117"><time>2021-04-17T08:38:38.490</time></trkpt><trkpt lat="55.8251131" lon="48.9160945"><time>2021-04-17T08:38:41.487</time></trkpt><trkpt lat="55.8250676" lon="48.9160652"><time>2021-04-17T08:38:43.480</time></trkpt><trkpt lat="55.8250166" lon="48.9160408"><time>2021-04-17T08:38:46.493</time></trkpt><trkpt lat="55.8249723" lon="48.9160128"><time>2021-04-17T08:38:48.493</time></trkpt><trkpt lat="55.8249013" lon="48.9159627"><time>2021-04-17T08:38:51.503</time></trkpt><trkpt lat="55.8248793" lon="48.9158743"><time>2021-04-17T08:38:54.483</time></trkpt><trkpt lat="55.8248614" lon="48.9157823"><time>2021-04-17T08:38:58.480</time></trkpt><trkpt lat="55.8248475" lon="48.9156999"><time>2021-04-17T08:39:01.493</time></trkpt><trkpt lat="55.8248399" lon="48.9156169"><time>2021-04-17T08:39:05.487</time></trkpt><trkpt lat="55.8248542" lon="48.9155402"><time>2021-04-17T08:39:09.477</time></trkpt><trkpt lat="55.8248583" lon="48.9154563"><time>2021-04-17T08:39:25.487</time></trkpt><trkpt lat="55.8248834" lon="48.9153770"><time>2021-04-17T08:39:29.493</time></trkpt><trkpt lat="55.8249031" lon="48.9152987"><time>2021-04-17T08:39:33.487</time></trkpt><trkpt lat="55.8248840" lon="48.9153761"><time>2021-04-17T08:39:48.437</time></trkpt><trkpt lat="55.8248405" lon="48.9154389"><time>2021-04-17T08:39:51.443</time></trkpt><trkpt lat="55.8248026" lon="48.9154911"><time>2021-04-17T08:39:55.493</time></trkpt><trkpt lat="55.8247879" lon="48.9155693"><time>2021-04-17T08:40:02.640</time></trkpt><trkpt lat="55.8247710" lon="48.9156637"><time>2021-04-17T08:40:06.657</time></trkpt><trkpt lat="55.8247489" lon="48.9157351"><time>2021-04-17T08:40:09.550</time></trkpt><trkpt lat="55.8247910" lon="48.9158010"><time>2021-04-17T08:40:16.490</time></trkpt><trkpt lat="55.8248174" lon="48.9158771"><time>2021-04-17T08:40:19.393</time></trkpt><trkpt lat="55.8248441" lon="48.9159571"><time>2021-04-17T08:40:22.407</time></trkpt><trkpt lat="55.8248895" lon="48.9160086"><time>2021-04-17T08:40:26.493</time></trkpt><trkpt lat="55.8249363" lon="48.9160243"><time>2021-04-17T08:40:30.490</time></trkpt><trkpt lat="55.8249829" lon="48.9160359"><time>2021-04-17T08:40:35.493</time></trkpt><trkpt lat="55.8250289" lon="48.9160682"><time>2021-04-17T08:40:38.493</time></trkpt><trkpt lat="55.8250709" lon="48.9161191"><time>2021-04-17T08:40:40.493</time></trkpt><trkpt lat="55.8251159" lon="48.9161764"><time>2021-04-17T08:40:42.493</time></trkpt><trkpt lat="55.8251627" lon="48.9162540"><time>2021-04-17T08:40:45.487</time></trkpt><trkpt lat="55.8252036" lon="48.9163402"><time>2021-04-17T08:40:47.497</time></trkpt><trkpt lat="55.8252449" lon="48.9163938"><time>2021-04-17T08:40:49.587</time></trkpt><trkpt lat="55.8252881" lon="48.9164723"><time>2021-04-17T08:40:52.487</time></trkpt><trkpt lat="55.8253298" lon="48.9165560"><time>2021-04-17T08:40:55.607</time></trkpt><trkpt lat="55.8253668" lon="48.9166164"><time>2021-04-17T08:40:58.490</time></trkpt><trkpt lat="55.8254021" lon="48.9166714"><time>2021-04-17T08:41:01.497</time></trkpt><trkpt lat="55.8254388" lon="48.9167325"><time>2021-04-17T08:41:05.627</time></trkpt><trkpt lat="55.8254830" lon="48.9167541"><time>2021-04-17T08:41:08.643</time></trkpt><trkpt lat="55.8255430" lon="48.9167881"><time>2021-04-17T08:41:11.630</time></trkpt><trkpt lat="55.8255931" lon="48.9168253"><time>2021-04-17T08:41:13.757</time></trkpt><trkpt lat="55.8256258" lon="48.9168993"><time>2021-04-17T08:41:15.777</time></trkpt><trkpt lat="55.8256642" lon="48.9169519"><time>2021-04-17T08:41:17.857</time></trkpt><trkpt lat="55.8257081" lon="48.9170286"><time>2021-04-17T08:41:20.650</time></trkpt><trkpt lat="55.8257423" lon="48.9170895"><time>2021-04-17T08:41:22.497</time></trkpt><trkpt lat="55.8258029" lon="48.9171459"><time>2021-04-17T08:41:25.490</time></trkpt><trkpt lat="55.8258501" lon="48.9172068"><time>2021-04-17T08:41:29.493</time></trkpt><trkpt lat="55.8258832" lon="48.9172677"><time>2021-04-17T08:41:33.493</time></trkpt><trkpt lat="55.8259194" lon="48.9173306"><time>2021-04-17T08:41:35.493</time></trkpt><trkpt lat="55.8259619" lon="48.9173746"><time>2021-04-17T08:41:38.490</time></trkpt><trkpt lat="55.8259930" lon="48.9174338"><time>2021-04-17T08:41:41.490</time></trkpt><trkpt lat="55.8260399" lon="48.9174776"><time>2021-04-17T08:41:45.493</time></trkpt><trkpt lat="55.8260803" lon="48.9175413"><time>2021-04-17T08:41:47.497</time></trkpt><trkpt lat="55.8261287" lon="48.9176149"><time>2021-04-17T08:41:49.487</time></trkpt><trkpt lat="55.8261811" lon="48.9176771"><time>2021-04-17T08:41:51.493</time></trkpt><trkpt lat="55.8262330" lon="48.9177351"><time>2021-04-17T08:41:53.490</time></trkpt><trkpt lat="55.8262702" lon="48.9177839"><time>2021-04-17T08:41:56.490</time></trkpt><trkpt lat="55.8263137" lon="48.9178279"><time>2021-04-17T08:41:59.493</time></trkpt><trkpt lat="55.8263484" lon="48.9178798"><time>2021-04-17T08:42:02.497</time></trkpt><trkpt lat="55.8263759" lon="48.9179569"><time>2021-04-17T08:42:07.487</time></trkpt><trkpt lat="55.8263576" lon="48.9180393"><time>2021-04-17T08:42:14.610</time></trkpt><trkpt lat="55.8263111" lon="48.9180813"><time>2021-04-17T08:42:19.867</time></trkpt><trkpt lat="55.8262627" lon="48.9180604"><time>2021-04-17T08:42:22.860</time></trkpt><trkpt lat="55.8262078" lon="48.9180382"><time>2021-04-17T08:42:24.880</time></trkpt><trkpt lat="55.8261587" lon="48.9180277"><time>2021-04-17T08:42:26.880</time></trkpt><trkpt lat="55.8261070" lon="48.9179931"><time>2021-04-17T08:42:28.623</time></trkpt><trkpt lat="55.8260516" lon="48.9179553"><time>2021-04-17T08:42:30.490</time></trkpt><trkpt lat="55.8260065" lon="48.9179154"><time>2021-04-17T08:42:33.403</time></trkpt><trkpt lat="55.8259559" lon="48.9179018"><time>2021-04-17T08:42:35.603</time></trkpt><trkpt lat="55.8259075" lon="48.9178891"><time>2021-04-17T08:42:37.487</time></trkpt><trkpt lat="55.8258358" lon="48.9178699"><time>2021-04-17T08:42:40.493</time></trkpt><trkpt lat="55.8257873" lon="48.9178199"><time>2021-04-17T08:42:42.487</time></trkpt><trkpt lat="55.8257428" lon="48.9177759"><time>2021-04-17T08:42:44.433</time></trkpt><trkpt lat="55.8256868" lon="48.9177293"><time>2021-04-17T08:42:47.407</time></trkpt><trkpt lat="55.8256408" lon="48.9176449"><time>2021-04-17T08:42:50.423</time></trkpt><trkpt lat="55.8256051" lon="48.9175663"><time>2021-04-17T08:42:53.400</time></trkpt><trkpt lat="55.8255514" lon="48.9175048"><time>2021-04-17T08:42:57.443</time></trkpt><trkpt lat="55.8255030" lon="48.9174923"><time>2021-04-17T08:43:01.500</time></trkpt><trkpt lat="55.8255105" lon="48.9173992"><time>2021-04-17T08:43:09.497</time></trkpt><trkpt lat="55.8255029" lon="48.9172896"><time>2021-04-17T08:43:11.407</time></trkpt><trkpt lat="55.8254875" lon="48.9171716"><time>2021-04-17T08:43:14.447</time></trkpt><trkpt lat="55.8254556" lon="48.9171058"><time>2021-04-17T08:43:16.497</time></trkpt><trkpt lat="55.8254271" lon="48.9170239"><time>2021-04-17T08:43:18.490</time></trkpt><trkpt lat="55.8253712" lon="48.9169419"><time>2021-04-17T08:43:21.807</time></trkpt><trkpt lat="55.8253074" lon="48.9168884"><time>2021-04-17T08:43:24.813</time></trkpt><trkpt lat="55.8252686" lon="48.9168457"><time>2021-04-17T08:43:26.867</time></trkpt><trkpt lat="55.8252246" lon="48.9167960"><time>2021-04-17T08:43:29.873</time></trkpt><trkpt lat="55.8251779" lon="48.9167683"><time>2021-04-17T08:43:32.697</time></trkpt><trkpt lat="55.8251323" lon="48.9167464"><time>2021-04-17T08:43:35.387</time></trkpt><trkpt lat="55.8250742" lon="48.9166989"><time>2021-04-17T08:43:38.490</time></trkpt><trkpt lat="55.8250187" lon="48.9166540"><time>2021-04-17T08:43:41.493</time></trkpt><trkpt lat="55.8249681" lon="48.9166879"><time>2021-04-17T08:43:45.493</time></trkpt><trkpt lat="55.8249139" lon="48.9166715"><time>2021-04-17T08:43:51.583</time></trkpt><trkpt lat="55.8248553" lon="48.9166806"><time>2021-04-17T08:43:55.453</time></trkpt><trkpt lat="55.8248032" lon="48.9167261"><time>2021-04-17T08:43:57.357</time></trkpt><trkpt lat="55.8247629" lon="48.9168088"><time>2021-04-17T08:44:00.363</time></trkpt><trkpt lat="55.8247375" lon="48.9168664"><time>2021-04-17T08:44:06.927</time></trkpt><trkpt lat="55.8247477" lon="48.9168889"><time>2021-04-17T08:44:13.370</time></trkpt><trkpt lat="55.8247788" lon="48.9169600"><time>2021-04-17T08:44:16.377</time></trkpt><trkpt lat="55.8248133" lon="48.9170312"><time>2021-04-17T08:44:19.627</time></trkpt><trkpt lat="55.8248361" lon="48.9171292"><time>2021-04-17T08:44:22.497</time></trkpt><trkpt lat="55.8248744" lon="48.9172266"><time>2021-04-17T08:44:26.623</time></trkpt><trkpt lat="55.8249257" lon="48.9173061"><time>2021-04-17T08:44:29.683</time></trkpt><trkpt lat="55.8249661" lon="48.9173833"><time>2021-04-17T08:44:32.687</time></trkpt><trkpt lat="55.8250088" lon="48.9174539"><time>2021-04-17T08:44:34.853</time></trkpt><trkpt lat="55.8250528" lon="48.9175026"><time>2021-04-17T08:44:36.857</time></trkpt><trkpt lat="55.8251022" lon="48.9175439"><time>2021-04-17T08:44:39.590</time></trkpt><trkpt lat="55.8251494" lon="48.9175802"><time>2021-04-17T08:44:42.490</time></trkpt><trkpt lat="55.8251987" lon="48.9176111"><time>2021-04-17T08:44:46.493</time></trkpt><trkpt lat="55.8252473" lon="48.9176351"><time>2021-04-17T08:44:49.487</time></trkpt><trkpt lat="55.8253007" lon="48.9176526"><time>2021-04-17T08:44:51.497</time></trkpt><trkpt lat="55.8253459" lon="48.9176597"><time>2021-04-17T08:44:53.497</time></trkpt><trkpt lat="55.8254119" lon="48.9176808"><time>2021-04-17T08:44:56.517</time></trkpt><trkpt lat="55.8254733" lon="48.9176933"><time>2021-04-17T08:44:59.533</time></trkpt><trkpt lat="55.8255264" lon="48.9177100"><time>2021-04-17T08:45:02.493</time></trkpt><trkpt lat="55.8255722" lon="48.9177569"><time>2021-04-17T08:45:05.407</time></trkpt><trkpt lat="55.8256193" lon="48.9178022"><time>2021-04-17T08:45:07.497</time></trkpt><trkpt lat="55.8256593" lon="48.9178446"><time>2021-04-17T08:45:09.403</time></trkpt><trkpt lat="55.8257110" lon="48.9178990"><time>2021-04-17T08:45:12.403</time></trkpt><trkpt lat="55.8257703" lon="48.9179228"><time>2021-04-17T08:45:16.407</time></trkpt><trkpt lat="55.8258240" lon="48.9179376"><time>2021-04-17T08:45:19.400</time></trkpt><trkpt lat="55.8258787" lon="48.9179685"><time>2021-04-17T08:45:22.490</time></trkpt><trkpt lat="55.8259274" lon="48.9179917"><time>2021-04-17T08:45:25.493</time></trkpt><trkpt lat="55.8259723" lon="48.9180319"><time>2021-04-17T08:45:29.507</time></trkpt><trkpt lat="55.8260200" lon="48.9180862"><time>2021-04-17T08:45:34.617</time></trkpt><trkpt lat="55.8260573" lon="48.9181310"><time>2021-04-17T08:45:38.630</time></trkpt><trkpt lat="55.8261018" lon="48.9182028"><time>2021-04-17T08:46:57.397</time></trkpt><trkpt lat="55.8261184" lon="48.9182836"><time>2021-04-17T08:47:01.387</time></trkpt><trkpt lat="55.8261208" lon="48.9183780"><time>2021-04-17T08:47:05.403</time></trkpt><trkpt lat="55.8261370" lon="48.9184635"><time>2021-04-17T08:47:09.420</time></trkpt><trkpt lat="55.8261471" lon="48.9185545"><time>2021-04-17T08:47:24.493</time></trkpt><trkpt lat="55.8261609" lon="48.9186523"><time>2021-04-17T08:47:28.427</time></trkpt><trkpt lat="55.8261805" lon="48.9187251"><time>2021-04-17T08:47:32.487</time></trkpt><trkpt lat="55.8261997" lon="48.9188155"><time>2021-04-17T08:47:37.497</time></trkpt><trkpt lat="55.8262452" lon="48.9188703"><time>2021-04-17T08:47:45.727</time></trkpt><trkpt lat="55.8262582" lon="48.9189510"><time>2021-04-17T08:47:51.803</time></trkpt><trkpt lat="55.8262595" lon="48.9190455"><time>2021-04-17T08:47:57.853</time></trkpt><trkpt lat="55.8262625" lon="48.9191291"><time>2021-04-17T08:48:02.463</time></trkpt><trkpt lat="55.8262588" lon="48.9192127"><time>2021-04-17T08:48:10.487</time></trkpt><trkpt lat="55.8262681" lon="48.9192936"><time>2021-04-17T08:48:15.490</time></trkpt><trkpt lat="55.8262737" lon="48.9194000"><time>2021-04-17T08:48:19.493</time></trkpt><trkpt lat="55.8262702" lon="48.9195030"><time>2021-04-17T08:48:23.490</time></trkpt><trkpt lat="55.8262745" lon="48.9195829"><time>2021-04-17T08:48:26.490</time></trkpt><trkpt lat="55.8262828" lon="48.9196699"><time>2021-04-17T08:48:31.490</time></trkpt><trkpt lat="55.8263044" lon="48.9197508"><time>2021-04-17T08:48:34.490</time></trkpt><trkpt lat="55.8263215" lon="48.9198313"><time>2021-04-17T08:48:37.403</time></trkpt><trkpt lat="55.8263304" lon="48.9199148"><time>2021-04-17T08:48:41.393</time></trkpt><trkpt lat="55.8263414" lon="48.9200173"><time>2021-04-17T08:48:46.487</time></trkpt><trkpt lat="55.8263509" lon="48.9201114"><time>2021-04-17T08:48:50.607</time></trkpt><trkpt lat="55.8263677" lon="48.9202067"><time>2021-04-17T08:48:54.543</time></trkpt><trkpt lat="55.8263975" lon="48.9202730"><time>2021-04-17T08:48:57.703</time></trkpt><trkpt lat="55.8264518" lon="48.9203145"><time>2021-04-17T08:49:01.707</time></trkpt><trkpt lat="55.8264980" lon="48.9203311"><time>2021-04-17T08:49:06.773</time></trkpt><trkpt lat="55.8265533" lon="48.9203430"><time>2021-04-17T08:49:10.487</time></trkpt><trkpt lat="55.8266020" lon="48.9203504"><time>2021-04-17T08:49:13.493</time></trkpt><trkpt lat="55.8266587" lon="48.9203656"><time>2021-04-17T08:49:18.513</time></trkpt><trkpt lat="55.8267182" lon="48.9203885"><time>2021-04-17T08:49:22.527</time></trkpt><trkpt lat="55.8267670" lon="48.9204112"><time>2021-04-17T08:49:25.520</time></trkpt><trkpt lat="55.8268183" lon="48.9204274"><time>2021-04-17T08:49:28.520</time></trkpt><trkpt lat="55.8268682" lon="48.9204474"><time>2021-04-17T08:49:34.513</time></trkpt><trkpt lat="55.8269136" lon="48.9204138"><time>2021-04-17T08:49:46.607</time></trkpt><trkpt lat="55.8269594" lon="48.9203824"><time>2021-04-17T08:49:53.493</time></trkpt><trkpt lat="55.8270165" lon="48.9203569"><time>2021-04-17T08:49:58.490</time></trkpt><trkpt lat="55.8270507" lon="48.9202941"><time>2021-04-17T08:50:01.630</time></trkpt><trkpt lat="55.8270906" lon="48.9202474"><time>2021-04-17T08:50:04.627</time></trkpt><trkpt lat="55.8271398" lon="48.9201832"><time>2021-04-17T08:50:08.633</time></trkpt><trkpt lat="55.8271818" lon="48.9201550"><time>2021-04-17T08:50:11.400</time></trkpt><trkpt lat="55.8272293" lon="48.9201077"><time>2021-04-17T08:50:15.503</time></trkpt><trkpt lat="55.8272742" lon="48.9200956"><time>2021-04-17T08:50:19.497</time></trkpt><trkpt lat="55.8273254" lon="48.9200766"><time>2021-04-17T08:50:24.490</time></trkpt><trkpt lat="55.8273805" lon="48.9200710"><time>2021-04-17T08:50:29.407</time></trkpt><trkpt lat="55.8274254" lon="48.9200726"><time>2021-04-17T08:50:33.400</time></trkpt><trkpt lat="55.8274740" lon="48.9200761"><time>2021-04-17T08:50:37.433</time></trkpt><trkpt lat="55.8275269" lon="48.9201041"><time>2021-04-17T08:50:40.433</time></trkpt><trkpt lat="55.8275870" lon="48.9201136"><time>2021-04-17T08:50:44.490</time></trkpt><trkpt lat="55.8276292" lon="48.9200698"><time>2021-04-17T08:50:48.490</time></trkpt><trkpt lat="55.8276777" lon="48.9200704"><time>2021-04-17T08:50:51.497</time></trkpt><trkpt lat="55.8277366" lon="48.9200619"><time>2021-04-17T08:50:54.490</time></trkpt><trkpt lat="55.8277839" lon="48.9200171"><time>2021-04-17T08:50:57.577</time></trkpt><trkpt lat="55.8278291" lon="48.9200075"><time>2021-04-17T08:51:00.617</time></trkpt><trkpt lat="55.8278879" lon="48.9199812"><time>2021-04-17T08:51:07.633</time></trkpt><trkpt lat="55.8279393" lon="48.9199451"><time>2021-04-17T08:51:11.623</time></trkpt><trkpt lat="55.8279808" lon="48.9198943"><time>2021-04-17T08:51:14.637</time></trkpt><trkpt lat="55.8280245" lon="48.9198557"><time>2021-04-17T08:51:18.643</time></trkpt><trkpt lat="55.8280756" lon="48.9198662"><time>2021-04-17T08:51:22.640</time></trkpt><trkpt lat="55.8281316" lon="48.9198602"><time>2021-04-17T08:51:25.407</time></trkpt><trkpt lat="55.8281765" lon="48.9198301"><time>2021-04-17T08:51:28.397</time></trkpt><trkpt lat="55.8282295" lon="48.9198204"><time>2021-04-17T08:51:32.400</time></trkpt><trkpt lat="55.8282772" lon="48.9198081"><time>2021-04-17T08:51:36.400</time></trkpt><trkpt lat="55.8283243" lon="48.9198142"><time>2021-04-17T08:51:40.493</time></trkpt><trkpt lat="55.8283762" lon="48.9198041"><time>2021-04-17T08:51:45.497</time></trkpt><trkpt lat="55.8284211" lon="48.9197795"><time>2021-04-17T08:51:49.503</time></trkpt><trkpt lat="55.8284650" lon="48.9197473"><time>2021-04-17T08:51:52.493</time></trkpt><trkpt lat="55.8285049" lon="48.9197053"><time>2021-04-17T08:51:56.490</time></trkpt><trkpt lat="55.8285440" lon="48.9196623"><time>2021-04-17T08:52:00.487</time></trkpt><trkpt lat="55.8285958" lon="48.9196404"><time>2021-04-17T08:52:11.867</time></trkpt><trkpt lat="55.8286408" lon="48.9196462"><time>2021-04-17T08:52:33.790</time></trkpt><trkpt lat="55.8286869" lon="48.9196798"><time>2021-04-17T08:52:44.763</time></trkpt><trkpt lat="55.8287115" lon="48.9197533"><time>2021-04-17T08:52:49.787</time></trkpt><trkpt lat="55.8287350" lon="48.9198377"><time>2021-04-17T08:52:54.787</time></trkpt><trkpt lat="55.8287420" lon="48.9199339"><time>2021-04-17T08:52:59.787</time></trkpt><trkpt lat="55.8287676" lon="48.9200020"><time>2021-04-17T08:53:03.897</time></trkpt><trkpt lat="55.8287753" lon="48.9200999"><time>2021-04-17T08:53:07.553</time></trkpt><trkpt lat="55.8287984" lon="48.9201948"><time>2021-04-17T08:53:13.493</time></trkpt><trkpt lat="55.8288232" lon="48.9202615"><time>2021-04-17T08:53:18.613</time></trkpt><trkpt lat="55.8288550" lon="48.9203310"><time>2021-04-17T08:53:23.597</time></trkpt><trkpt lat="55.8288894" lon="48.9203963"><time>2021-04-17T08:53:28.590</time></trkpt><trkpt lat="55.8289192" lon="48.9204688"><time>2021-04-17T08:53:37.620</time></trkpt><trkpt lat="55.8288716" lon="48.9204937"><time>2021-04-17T08:53:51.397</time></trkpt><trkpt lat="55.8288274" lon="48.9205228"><time>2021-04-17T08:53:55.517</time></trkpt><trkpt lat="55.8287938" lon="48.9206097"><time>2021-04-17T08:53:59.500</time></trkpt><trkpt lat="55.8287605" lon="48.9206770"><time>2021-04-17T08:54:03.493</time></trkpt><trkpt lat="55.8287255" lon="48.9207274"><time>2021-04-17T08:54:06.487</time></trkpt><trkpt lat="55.8286762" lon="48.9207764"><time>2021-04-17T08:54:10.487</time></trkpt><trkpt lat="55.8286248" lon="48.9208090"><time>2021-04-17T08:54:14.490</time></trkpt><trkpt lat="55.8285789" lon="48.9208667"><time>2021-04-17T08:54:17.490</time></trkpt><trkpt lat="55.8285224" lon="48.9208985"><time>2021-04-17T08:54:21.490</time></trkpt><trkpt lat="55.8284791" lon="48.9209628"><time>2021-04-17T08:54:25.617</time></trkpt><trkpt lat="55.8284398" lon="48.9210380"><time>2021-04-17T08:54:29.630</time></trkpt><trkpt lat="55.8283932" lon="48.9210925"><time>2021-04-17T08:54:33.873</time></trkpt><trkpt lat="55.8283434" lon="48.9211265"><time>2021-04-17T08:54:37.840</time></trkpt><trkpt lat="55.8282940" lon="48.9211613"><time>2021-04-17T08:54:41.517</time></trkpt><trkpt lat="55.8282510" lon="48.9212036"><time>2021-04-17T08:54:44.423</time></trkpt><trkpt lat="55.8282101" lon="48.9212400"><time>2021-04-17T08:54:48.773</time></trkpt><trkpt lat="55.8281628" lon="48.9212217"><time>2021-04-17T08:54:54.767</time></trkpt><trkpt lat="55.8281275" lon="48.9212796"><time>2021-04-17T08:55:05.793</time></trkpt><trkpt lat="55.8280739" lon="48.9213055"><time>2021-04-17T08:55:09.900</time></trkpt><trkpt lat="55.8280283" lon="48.9213403"><time>2021-04-17T08:55:12.790</time></trkpt><trkpt lat="55.8279876" lon="48.9213855"><time>2021-04-17T08:55:16.790</time></trkpt><trkpt lat="55.8279360" lon="48.9214156"><time>2021-04-17T08:55:21.613</time></trkpt><trkpt lat="55.8278802" lon="48.9214415"><time>2021-04-17T08:55:25.607</time></trkpt><trkpt lat="55.8278332" lon="48.9214581"><time>2021-04-17T08:55:29.493</time></trkpt><trkpt lat="55.8277764" lon="48.9214980"><time>2021-04-17T08:55:33.453</time></trkpt><trkpt lat="55.8277293" lon="48.9215311"><time>2021-04-17T08:55:37.983</time></trkpt><trkpt lat="55.8276903" lon="48.9215942"><time>2021-04-17T08:55:41.877</time></trkpt><trkpt lat="55.8276565" lon="48.9216473"><time>2021-04-17T08:55:45.610</time></trkpt><trkpt lat="55.8276094" lon="48.9216914"><time>2021-04-17T08:55:49.390</time></trkpt><trkpt lat="55.8275598" lon="48.9217218"><time>2021-04-17T08:55:52.487</time></trkpt><trkpt lat="55.8275127" lon="48.9217512"><time>2021-04-17T08:55:55.490</time></trkpt><trkpt lat="55.8274649" lon="48.9217948"><time>2021-04-17T08:55:58.487</time></trkpt><trkpt lat="55.8274167" lon="48.9218564"><time>2021-04-17T08:56:03.500</time></trkpt><trkpt lat="55.8273681" lon="48.9219064"><time>2021-04-17T08:56:07.497</time></trkpt><trkpt lat="55.8273236" lon="48.9219415"><time>2021-04-17T08:56:11.497</time></trkpt><trkpt lat="55.8272733" lon="48.9219784"><time>2021-04-17T08:56:15.493</time></trkpt><trkpt lat="55.8272182" lon="48.9220245"><time>2021-04-17T08:56:19.407</time></trkpt><trkpt lat="55.8271796" lon="48.9220754"><time>2021-04-17T08:56:22.583</time></trkpt><trkpt lat="55.8271389" lon="48.9221271"><time>2021-04-17T08:56:26.490</time></trkpt><trkpt lat="55.8271098" lon="48.9222036"><time>2021-04-17T08:56:29.717</time></trkpt><trkpt lat="55.8271007" lon="48.9222938"><time>2021-04-17T08:56:33.497</time></trkpt><trkpt lat="55.8270844" lon="48.9223939"><time>2021-04-17T08:56:36.937</time></trkpt><trkpt lat="55.8270414" lon="48.9224742"><time>2021-04-17T08:56:39.870</time></trkpt><trkpt lat="55.8270116" lon="48.9225528"><time>2021-04-17T08:56:42.780</time></trkpt><trkpt lat="55.8269998" lon="48.9226323"><time>2021-04-17T08:56:46.790</time></trkpt><trkpt lat="55.8270083" lon="48.9227215"><time>2021-04-17T08:57:00.800</time></trkpt><trkpt lat="55.8270347" lon="48.9228036"><time>2021-04-17T08:57:04.797</time></trkpt><trkpt lat="55.8270405" lon="48.9228988"><time>2021-04-17T08:57:11.803</time></trkpt><trkpt lat="55.8270590" lon="48.9229821"><time>2021-04-17T08:57:16.910</time></trkpt><trkpt lat="55.8270807" lon="48.9230546"><time>2021-04-17T08:57:19.760</time></trkpt><trkpt lat="55.8271227" lon="48.9231256"><time>2021-04-17T08:57:22.677</time></trkpt><trkpt lat="55.8271497" lon="48.9231964"><time>2021-04-17T08:57:26.627</time></trkpt><trkpt lat="55.8271742" lon="48.9232701"><time>2021-04-17T08:57:30.873</time></trkpt><trkpt lat="55.8271981" lon="48.9233659"><time>2021-04-17T08:57:33.590</time></trkpt><trkpt lat="55.8272185" lon="48.9234501"><time>2021-04-17T08:57:36.513</time></trkpt><trkpt lat="55.8272510" lon="48.9235324"><time>2021-04-17T08:57:39.493</time></trkpt><trkpt lat="55.8272855" lon="48.9236073"><time>2021-04-17T08:57:42.493</time></trkpt><trkpt lat="55.8273209" lon="48.9236642"><time>2021-04-17T08:57:46.613</time></trkpt><trkpt lat="55.8273523" lon="48.9237237"><time>2021-04-17T08:57:50.757</time></trkpt><trkpt lat="55.8273854" lon="48.9237907"><time>2021-04-17T08:57:53.843</time></trkpt><trkpt lat="55.8274277" lon="48.9238269"><time>2021-04-17T08:57:56.743</time></trkpt><trkpt lat="55.8274712" lon="48.9238855"><time>2021-04-17T08:57:59.763</time></trkpt><trkpt lat="55.8275062" lon="48.9239575"><time>2021-04-17T08:58:02.750</time></trkpt><trkpt lat="55.8275433" lon="48.9240350"><time>2021-04-17T08:58:05.763</time></trkpt><trkpt lat="55.8275847" lon="48.9241112"><time>2021-04-17T08:58:08.497</time></trkpt><trkpt lat="55.8276163" lon="48.9241834"><time>2021-04-17T08:58:12.493</time></trkpt><trkpt lat="55.8276495" lon="48.9242543"><time>2021-04-17T08:58:17.497</time></trkpt><trkpt lat="55.8276693" lon="48.9243328"><time>2021-04-17T08:58:21.493</time></trkpt><trkpt lat="55.8276967" lon="48.9244117"><time>2021-04-17T08:58:24.490</time></trkpt><trkpt lat="55.8277321" lon="48.9244628"><time>2021-04-17T08:58:29.493</time></trkpt><trkpt lat="55.8277535" lon="48.9245467"><time>2021-04-17T08:58:34.487</time></trkpt><trkpt lat="55.8277645" lon="48.9246293"><time>2021-04-17T08:58:39.517</time></trkpt><trkpt lat="55.8277804" lon="48.9247091"><time>2021-04-17T08:58:45.487</time></trkpt><trkpt lat="55.8278183" lon="48.9247759"><time>2021-04-17T08:58:51.830</time></trkpt><trkpt lat="55.8278643" lon="48.9247906"><time>2021-04-17T08:58:56.633</time></trkpt><trkpt lat="55.8279006" lon="48.9248532"><time>2021-04-17T08:58:59.633</time></trkpt><trkpt lat="55.8279446" lon="48.9248811"><time>2021-04-17T08:59:07.867</time></trkpt><trkpt lat="55.8279796" lon="48.9249383"><time>2021-04-17T08:59:12.867</time></trkpt><trkpt lat="55.8279884" lon="48.9250186"><time>2021-04-17T08:59:15.867</time></trkpt><trkpt lat="55.8280083" lon="48.9250934"><time>2021-04-17T08:59:22.497</time></trkpt><trkpt lat="55.8280459" lon="48.9251447"><time>2021-04-17T08:59:28.490</time></trkpt><trkpt lat="55.8280824" lon="48.9252277"><time>2021-04-17T08:59:35.500</time></trkpt><trkpt lat="55.8281174" lon="48.9252831"><time>2021-04-17T08:59:40.543</time></trkpt><trkpt lat="55.8281608" lon="48.9253354"><time>2021-04-17T08:59:43.560</time></trkpt><trkpt lat="55.8281981" lon="48.9254070"><time>2021-04-17T08:59:46.557</time></trkpt><trkpt lat="55.8282432" lon="48.9254163"><time>2021-04-17T08:59:52.483</time></trkpt><trkpt lat="55.8282916" lon="48.9254832"><time>2021-04-17T08:59:57.400</time></trkpt><trkpt lat="55.8283228" lon="48.9255457"><time>2021-04-17T09:00:02.617</time></trkpt><trkpt lat="55.8283560" lon="48.9256234"><time>2021-04-17T09:00:08.007</time></trkpt><trkpt lat="55.8283966" lon="48.9256901"><time>2021-04-17T09:00:11.613</time></trkpt><trkpt lat="55.8284329" lon="48.9257432"><time>2021-04-17T09:00:14.487</time></trkpt><trkpt lat="55.8284697" lon="48.9258099"><time>2021-04-17T09:00:17.497</time></trkpt><trkpt lat="55.8285039" lon="48.9258751"><time>2021-04-17T09:00:20.490</time></trkpt><trkpt lat="55.8285326" lon="48.9259753"><time>2021-04-17T09:00:27.490</time></trkpt><trkpt lat="55.8285494" lon="48.9260527"><time>2021-04-17T09:00:31.407</time></trkpt><trkpt lat="55.8285819" lon="48.9261092"><time>2021-04-17T09:00:35.807</time></trkpt><trkpt lat="55.8286200" lon="48.9261579"><time>2021-04-17T09:00:38.793</time></trkpt><trkpt lat="55.8286514" lon="48.9262262"><time>2021-04-17T09:00:42.610</time></trkpt><trkpt lat="55.8286658" lon="48.9263071"><time>2021-04-17T09:00:46.680</time></trkpt><trkpt lat="55.8286978" lon="48.9263736"><time>2021-04-17T09:00:50.417</time></trkpt><trkpt lat="55.8287498" lon="48.9264235"><time>2021-04-17T09:00:55.490</time></trkpt><trkpt lat="55.8287897" lon="48.9264985"><time>2021-04-17T09:00:58.493</time></trkpt><trkpt lat="55.8288310" lon="48.9265572"><time>2021-04-17T09:01:03.493</time></trkpt><trkpt lat="55.8288580" lon="48.9266224"><time>2021-04-17T09:01:09.760</time></trkpt><trkpt lat="55.8289025" lon="48.9266802"><time>2021-04-17T09:01:15.497</time></trkpt><trkpt lat="55.8289359" lon="48.9267525"><time>2021-04-17T09:01:19.403</time></trkpt><trkpt lat="55.8289679" lon="48.9268206"><time>2021-04-17T09:01:24.410</time></trkpt><trkpt lat="55.8289994" lon="48.9268903"><time>2021-04-17T09:01:28.390</time></trkpt><trkpt lat="55.8290243" lon="48.9269780"><time>2021-04-17T09:01:34.603</time></trkpt><trkpt lat="55.8290433" lon="48.9270697"><time>2021-04-17T09:01:39.770</time></trkpt><trkpt lat="55.8290680" lon="48.9271459"><time>2021-04-17T09:01:42.777</time></trkpt><trkpt lat="55.8290988" lon="48.9272287"><time>2021-04-17T09:01:45.827</time></trkpt><trkpt lat="55.8291193" lon="48.9273169"><time>2021-04-17T09:01:50.487</time></trkpt><trkpt lat="55.8291403" lon="48.9274058"><time>2021-04-17T09:01:53.437</time></trkpt><trkpt lat="55.8291699" lon="48.9275005"><time>2021-04-17T09:01:57.490</time></trkpt><trkpt lat="55.8291945" lon="48.9275834"><time>2021-04-17T09:02:01.493</time></trkpt><trkpt lat="55.8292201" lon="48.9276835"><time>2021-04-17T09:02:04.433</time></trkpt><trkpt lat="55.8292391" lon="48.9277581"><time>2021-04-17T09:02:07.403</time></trkpt><trkpt lat="55.8292800" lon="48.9278558"><time>2021-04-17T09:02:13.860</time></trkpt><trkpt lat="55.8292886" lon="48.9279473"><time>2021-04-17T09:02:18.863</time></trkpt><trkpt lat="55.8293041" lon="48.9280230"><time>2021-04-17T09:02:21.957</time></trkpt><trkpt lat="55.8293205" lon="48.9281336"><time>2021-04-17T09:02:26.580</time></trkpt><trkpt lat="55.8293422" lon="48.9282195"><time>2021-04-17T09:02:30.577</time></trkpt><trkpt lat="55.8293686" lon="48.9283044"><time>2021-04-17T09:02:33.573</time></trkpt><trkpt lat="55.8293743" lon="48.9283854"><time>2021-04-17T09:02:39.570</time></trkpt><trkpt lat="55.8293743" lon="48.9283854"><time>2021-04-17T09:02:40.060</time></trkpt><trkpt lat="55.8293922" lon="48.9284609"><time>2021-04-17T09:03:13.493</time></trkpt><trkpt lat="55.8294281" lon="48.9285314"><time>2021-04-17T09:03:20.883</time></trkpt><trkpt lat="55.8294695" lon="48.9285734"><time>2021-04-17T09:03:28.010</time></trkpt><trkpt lat="55.8295166" lon="48.9285570"><time>2021-04-17T09:03:36.547</time></trkpt><trkpt lat="55.8295580" lon="48.9286092"><time>2021-04-17T09:03:41.497</time></trkpt><trkpt lat="55.8296077" lon="48.9286356"><time>2021-04-17T09:03:45.397</time></trkpt><trkpt lat="55.8296427" lon="48.9286923"><time>2021-04-17T09:03:49.400</time></trkpt><trkpt lat="55.8296910" lon="48.9287783"><time>2021-04-17T09:03:57.490</time></trkpt><trkpt lat="55.8297058" lon="48.9288558"><time>2021-04-17T09:04:02.407</time></trkpt><trkpt lat="55.8297540" lon="48.9289030"><time>2021-04-17T09:04:11.390</time></trkpt><trkpt lat="55.8297916" lon="48.9289527"><time>2021-04-17T09:04:14.413</time></trkpt><trkpt lat="55.8298290" lon="48.9290358"><time>2021-04-17T09:04:18.413</time></trkpt><trkpt lat="55.8298604" lon="48.9291210"><time>2021-04-17T09:04:22.417</time></trkpt><trkpt lat="55.8298959" lon="48.9291982"><time>2021-04-17T09:04:25.543</time></trkpt><trkpt lat="55.8299340" lon="48.9292821"><time>2021-04-17T09:04:28.557</time></trkpt><trkpt lat="55.8299763" lon="48.9293573"><time>2021-04-17T09:04:31.750</time></trkpt><trkpt lat="55.8300114" lon="48.9294163"><time>2021-04-17T09:04:34.753</time></trkpt><trkpt lat="55.8300511" lon="48.9294835"><time>2021-04-17T09:04:36.753</time></trkpt><trkpt lat="55.8300872" lon="48.9295440"><time>2021-04-17T09:04:38.487</time></trkpt><trkpt lat="55.8301218" lon="48.9296123"><time>2021-04-17T09:04:40.497</time></trkpt><trkpt lat="55.8301553" lon="48.9296722"><time>2021-04-17T09:04:42.490</time></trkpt><trkpt lat="55.8301980" lon="48.9297603"><time>2021-04-17T09:04:46.570</time></trkpt><trkpt lat="55.8302289" lon="48.9298219"><time>2021-04-17T09:04:48.493</time></trkpt><trkpt lat="55.8302642" lon="48.9298971"><time>2021-04-17T09:04:52.493</time></trkpt><trkpt lat="55.8302847" lon="48.9299706"><time>2021-04-17T09:04:54.497</time></trkpt><trkpt lat="55.8303285" lon="48.9300322"><time>2021-04-17T09:04:56.490</time></trkpt><trkpt lat="55.8303754" lon="48.9301260"><time>2021-04-17T09:04:59.583</time></trkpt><trkpt lat="55.8304040" lon="48.9302156"><time>2021-04-17T09:05:02.490</time></trkpt><trkpt lat="55.8304318" lon="48.9302867"><time>2021-04-17T09:05:04.543</time></trkpt><trkpt lat="55.8304627" lon="48.9303558"><time>2021-04-17T09:05:06.517</time></trkpt><trkpt lat="55.8304900" lon="48.9304424"><time>2021-04-17T09:05:09.407</time></trkpt><trkpt lat="55.8305051" lon="48.9305417"><time>2021-04-17T09:05:13.423</time></trkpt><trkpt lat="55.8305059" lon="48.9306432"><time>2021-04-17T09:05:16.433</time></trkpt><trkpt lat="55.8305052" lon="48.9307476"><time>2021-04-17T09:05:19.430</time></trkpt><trkpt lat="55.8305080" lon="48.9308325"><time>2021-04-17T09:05:22.483</time></trkpt><trkpt lat="55.8305183" lon="48.9309232"><time>2021-04-17T09:05:25.407</time></trkpt><trkpt lat="55.8305214" lon="48.9310030"><time>2021-04-17T09:05:28.637</time></trkpt><trkpt lat="55.8305151" lon="48.9310966"><time>2021-04-17T09:05:31.643</time></trkpt><trkpt lat="55.8305146" lon="48.9311791"><time>2021-04-17T09:05:33.740</time></trkpt><trkpt lat="55.8305187" lon="48.9312646"><time>2021-04-17T09:05:35.647</time></trkpt><trkpt lat="55.8304982" lon="48.9313677"><time>2021-04-17T09:05:38.490</time></trkpt><trkpt lat="55.8304948" lon="48.9314836"><time>2021-04-17T09:05:41.500</time></trkpt><trkpt lat="55.8305165" lon="48.9315650"><time>2021-04-17T09:05:43.490</time></trkpt><trkpt lat="55.8305243" lon="48.9316485"><time>2021-04-17T09:05:45.490</time></trkpt><trkpt lat="55.8305388" lon="48.9317308"><time>2021-04-17T09:05:47.490</time></trkpt><trkpt lat="55.8305570" lon="48.9318103"><time>2021-04-17T09:05:49.517</time></trkpt><trkpt lat="55.8305888" lon="48.9318913"><time>2021-04-17T09:05:52.603</time></trkpt><trkpt lat="55.8306045" lon="48.9319796"><time>2021-04-17T09:05:55.493</time></trkpt><trkpt lat="55.8306331" lon="48.9320431"><time>2021-04-17T09:05:58.607</time></trkpt><trkpt lat="55.8306650" lon="48.9321101"><time>2021-04-17T09:06:01.497</time></trkpt><trkpt lat="55.8306935" lon="48.9321794"><time>2021-04-17T09:06:05.490</time></trkpt><trkpt lat="55.8307200" lon="48.9322503"><time>2021-04-17T09:06:08.720</time></trkpt><trkpt lat="55.8306701" lon="48.9322372"><time>2021-04-17T09:06:28.740</time></trkpt><trkpt lat="55.8306243" lon="48.9321882"><time>2021-04-17T09:06:32.873</time></trkpt><trkpt lat="55.8305944" lon="48.9321181"><time>2021-04-17T09:06:36.873</time></trkpt><trkpt lat="55.8306442" lon="48.9321493"><time>2021-04-17T09:06:57.897</time></trkpt><trkpt lat="55.8306789" lon="48.9322165"><time>2021-04-17T09:07:01.913</time></trkpt><trkpt lat="55.8307327" lon="48.9322426"><time>2021-04-17T09:07:04.893</time></trkpt><trkpt lat="55.8307783" lon="48.9322894"><time>2021-04-17T09:07:08.897</time></trkpt><trkpt lat="55.8307823" lon="48.9322591"><time>2021-04-17T09:07:11.623</time></trkpt><trkpt lat="55.8307237" lon="48.9322776"><time>2021-04-17T09:07:24.907</time></trkpt><trkpt lat="55.8306786" lon="48.9322392"><time>2021-04-17T09:07:28.650</time></trkpt><trkpt lat="55.8306404" lon="48.9321861"><time>2021-04-17T09:07:32.520</time></trkpt><trkpt lat="55.8306045" lon="48.9321120"><time>2021-04-17T09:07:36.600</time></trkpt><trkpt lat="55.8305577" lon="48.9320874"><time>2021-04-17T09:07:41.617</time></trkpt><trkpt lat="55.8305147" lon="48.9320431"><time>2021-04-17T09:07:45.783</time></trkpt><trkpt lat="55.8304653" lon="48.9320067"><time>2021-04-17T09:07:56.497</time></trkpt><trkpt lat="55.8304445" lon="48.9319297"><time>2021-04-17T09:08:08.480</time></trkpt><trkpt lat="55.8304172" lon="48.9318562"><time>2021-04-17T09:08:21.763</time></trkpt><trkpt lat="55.8303873" lon="48.9317883"><time>2021-04-17T09:08:28.493</time></trkpt><trkpt lat="55.8303363" lon="48.9317563"><time>2021-04-17T09:08:36.403</time></trkpt><trkpt lat="55.8302881" lon="48.9317246"><time>2021-04-17T09:08:39.607</time></trkpt><trkpt lat="55.8302410" lon="48.9316847"><time>2021-04-17T09:08:42.387</time></trkpt><trkpt lat="55.8301847" lon="48.9316468"><time>2021-04-17T09:08:46.390</time></trkpt><trkpt lat="55.8301506" lon="48.9315878"><time>2021-04-17T09:08:49.403</time></trkpt><trkpt lat="55.8301138" lon="48.9315386"><time>2021-04-17T09:08:53.407</time></trkpt><trkpt lat="55.8300657" lon="48.9315020"><time>2021-04-17T09:08:59.497</time></trkpt><trkpt lat="55.8300175" lon="48.9314583"><time>2021-04-17T09:09:03.587</time></trkpt><trkpt lat="55.8299623" lon="48.9314744"><time>2021-04-17T09:09:08.597</time></trkpt><trkpt lat="55.8299103" lon="48.9314779"><time>2021-04-17T09:09:12.490</time></trkpt><trkpt lat="55.8298614" lon="48.9314652"><time>2021-04-17T09:09:15.607</time></trkpt><trkpt lat="55.8298128" lon="48.9314554"><time>2021-04-17T09:09:18.607</time></trkpt><trkpt lat="55.8297637" lon="48.9314669"><time>2021-04-17T09:09:25.400</time></trkpt><trkpt lat="55.8297116" lon="48.9314434"><time>2021-04-17T09:09:29.493</time></trkpt><trkpt lat="55.8296634" lon="48.9314155"><time>2021-04-17T09:09:32.487</time></trkpt><trkpt lat="55.8296183" lon="48.9313535"><time>2021-04-17T09:09:37.500</time></trkpt><trkpt lat="55.8295771" lon="48.9313131"><time>2021-04-17T09:09:40.557</time></trkpt><trkpt lat="55.8295202" lon="48.9312846"><time>2021-04-17T09:09:44.497</time></trkpt><trkpt lat="55.8294676" lon="48.9313090"><time>2021-04-17T09:09:51.647</time></trkpt><trkpt lat="55.8294340" lon="48.9313777"><time>2021-04-17T09:09:55.647</time></trkpt><trkpt lat="55.8293852" lon="48.9313861"><time>2021-04-17T09:09:59.773</time></trkpt><trkpt lat="55.8293345" lon="48.9313664"><time>2021-04-17T09:10:04.857</time></trkpt><trkpt lat="55.8292863" lon="48.9313444"><time>2021-04-17T09:10:07.863</time></trkpt><trkpt lat="55.8292413" lon="48.9313160"><time>2021-04-17T09:10:11.857</time></trkpt><trkpt lat="55.8291848" lon="48.9313355"><time>2021-04-17T09:10:16.563</time></trkpt><trkpt lat="55.8291373" lon="48.9313140"><time>2021-04-17T09:10:21.490</time></trkpt><trkpt lat="55.8290989" lon="48.9312608"><time>2021-04-17T09:10:27.513</time></trkpt><trkpt lat="55.8290398" lon="48.9312835"><time>2021-04-17T09:10:33.500</time></trkpt><trkpt lat="55.8289897" lon="48.9312686"><time>2021-04-17T09:10:37.497</time></trkpt><trkpt lat="55.8289383" lon="48.9312499"><time>2021-04-17T09:10:42.593</time></trkpt><trkpt lat="55.8288923" lon="48.9312429"><time>2021-04-17T09:10:46.487</time></trkpt><trkpt lat="55.8288453" lon="48.9312396"><time>2021-04-17T09:10:50.427</time></trkpt><trkpt lat="55.8287918" lon="48.9312380"><time>2021-04-17T09:10:54.497</time></trkpt><trkpt lat="55.8287455" lon="48.9312210"><time>2021-04-17T09:10:58.490</time></trkpt><trkpt lat="55.8286936" lon="48.9312094"><time>2021-04-17T09:11:03.410</time></trkpt><trkpt lat="55.8286441" lon="48.9312044"><time>2021-04-17T09:11:09.400</time></trkpt><trkpt lat="55.8285841" lon="48.9311850"><time>2021-04-17T09:11:16.487</time></trkpt><trkpt lat="55.8285313" lon="48.9311825"><time>2021-04-17T09:11:21.493</time></trkpt><trkpt lat="55.8284813" lon="48.9311637"><time>2021-04-17T09:11:26.487</time></trkpt><trkpt lat="55.8284402" lon="48.9311112"><time>2021-04-17T09:11:30.503</time></trkpt><trkpt lat="55.8283884" lon="48.9310709"><time>2021-04-17T09:11:35.490</time></trkpt><trkpt lat="55.8283416" lon="48.9310274"><time>2021-04-17T09:11:40.500</time></trkpt><trkpt lat="55.8282913" lon="48.9309963"><time>2021-04-17T09:11:47.697</time></trkpt><trkpt lat="55.8282416" lon="48.9309834"><time>2021-04-17T09:11:54.490</time></trkpt><trkpt lat="55.8281909" lon="48.9309538"><time>2021-04-17T09:12:01.403</time></trkpt><trkpt lat="55.8281373" lon="48.9309633"><time>2021-04-17T09:12:05.493</time></trkpt><trkpt lat="55.8280953" lon="48.9309149"><time>2021-04-17T09:12:09.603</time></trkpt><trkpt lat="55.8280507" lon="48.9308761"><time>2021-04-17T09:12:12.600</time></trkpt><trkpt lat="55.8279908" lon="48.9308640"><time>2021-04-17T09:12:15.600</time></trkpt><trkpt lat="55.8279384" lon="48.9308192"><time>2021-04-17T09:12:18.603</time></trkpt><trkpt lat="55.8278833" lon="48.9307626"><time>2021-04-17T09:12:21.603</time></trkpt><trkpt lat="55.8278440" lon="48.9307158"><time>2021-04-17T09:12:24.610</time></trkpt><trkpt lat="55.8278101" lon="48.9306291"><time>2021-04-17T09:12:28.443</time></trkpt><trkpt lat="55.8277557" lon="48.9305810"><time>2021-04-17T09:12:32.527</time></trkpt><trkpt lat="55.8277121" lon="48.9305499"><time>2021-04-17T09:12:37.657</time></trkpt><trkpt lat="55.8276880" lon="48.9304599"><time>2021-04-17T09:12:42.523</time></trkpt><trkpt lat="55.8276851" lon="48.9303623"><time>2021-04-17T09:12:46.537</time></trkpt><trkpt lat="55.8276671" lon="48.9302799"><time>2021-04-17T09:12:49.547</time></trkpt><trkpt lat="55.8276634" lon="48.9301961"><time>2021-04-17T09:12:53.490</time></trkpt><trkpt lat="55.8276343" lon="48.9301174"><time>2021-04-17T09:12:58.490</time></trkpt><trkpt lat="55.8276140" lon="48.9300333"><time>2021-04-17T09:13:02.490</time></trkpt><trkpt lat="55.8275868" lon="48.9299662"><time>2021-04-17T09:13:07.497</time></trkpt><trkpt lat="55.8275639" lon="48.9298710"><time>2021-04-17T09:13:14.487</time></trkpt><trkpt lat="55.8275288" lon="48.9297960"><time>2021-04-17T09:13:18.640</time></trkpt><trkpt lat="55.8275056" lon="48.9297194"><time>2021-04-17T09:13:24.647</time></trkpt><trkpt lat="55.8274784" lon="48.9296468"><time>2021-04-17T09:13:29.657</time></trkpt><trkpt lat="55.8274322" lon="48.9296144"><time>2021-04-17T09:13:34.793</time></trkpt><trkpt lat="55.8273878" lon="48.9295864"><time>2021-04-17T09:13:39.497</time></trkpt><trkpt lat="55.8273424" lon="48.9295431"><time>2021-04-17T09:13:44.400</time></trkpt><trkpt lat="55.8272847" lon="48.9295401"><time>2021-04-17T09:13:47.417</time></trkpt><trkpt lat="55.8272258" lon="48.9295276"><time>2021-04-17T09:13:50.400</time></trkpt><trkpt lat="55.8271790" lon="48.9295301"><time>2021-04-17T09:13:53.407</time></trkpt><trkpt lat="55.8271213" lon="48.9295184"><time>2021-04-17T09:14:00.487</time></trkpt><trkpt lat="55.8270693" lon="48.9295446"><time>2021-04-17T09:14:04.487</time></trkpt><trkpt lat="55.8270198" lon="48.9295418"><time>2021-04-17T09:14:09.493</time></trkpt><trkpt lat="55.8269767" lon="48.9295665"><time>2021-04-17T09:14:12.487</time></trkpt><trkpt lat="55.8269312" lon="48.9295800"><time>2021-04-17T09:14:16.487</time></trkpt><trkpt lat="55.8268851" lon="48.9295991"><time>2021-04-17T09:14:19.490</time></trkpt><trkpt lat="55.8268419" lon="48.9296367"><time>2021-04-17T09:14:23.493</time></trkpt><trkpt lat="55.8268013" lon="48.9295977"><time>2021-04-17T09:14:28.487</time></trkpt><trkpt lat="55.8267559" lon="48.9295717"><time>2021-04-17T09:14:33.613</time></trkpt><trkpt lat="55.8267449" lon="48.9295971"><time>2021-04-17T09:14:40.120</time></trkpt><trkpt lat="55.8267120" lon="48.9295915"><time>2021-04-17T09:14:56.650</time></trkpt><trkpt lat="55.8266659" lon="48.9295652"><time>2021-04-17T09:15:04.880</time></trkpt><trkpt lat="55.8266245" lon="48.9296199"><time>2021-04-17T09:15:09.573</time></trkpt><trkpt lat="55.8265845" lon="48.9295736"><time>2021-04-17T09:15:13.490</time></trkpt><trkpt lat="55.8265427" lon="48.9295331"><time>2021-04-17T09:15:18.490</time></trkpt><trkpt lat="55.8264895" lon="48.9294671"><time>2021-04-17T09:15:22.463</time></trkpt><trkpt lat="55.8264482" lon="48.9294339"><time>2021-04-17T09:15:24.493</time></trkpt><trkpt lat="55.8264011" lon="48.9294489"><time>2021-04-17T09:15:30.467</time></trkpt><trkpt lat="55.8263560" lon="48.9294699"><time>2021-04-17T09:15:37.493</time></trkpt><trkpt lat="55.8263072" lon="48.9294845"><time>2021-04-17T09:15:42.623</time></trkpt><trkpt lat="55.8262638" lon="48.9294629"><time>2021-04-17T09:15:45.860</time></trkpt><trkpt lat="55.8262188" lon="48.9294577"><time>2021-04-17T09:15:49.873</time></trkpt><trkpt lat="55.8261599" lon="48.9294530"><time>2021-04-17T09:15:53.867</time></trkpt><trkpt lat="55.8261073" lon="48.9294284"><time>2021-04-17T09:15:57.630</time></trkpt><trkpt lat="55.8260588" lon="48.9293880"><time>2021-04-17T09:16:02.497</time></trkpt><trkpt lat="55.8260107" lon="48.9293614"><time>2021-04-17T09:16:06.720</time></trkpt><trkpt lat="55.8259671" lon="48.9293381"><time>2021-04-17T09:16:12.497</time></trkpt><trkpt lat="55.8259308" lon="48.9292887"><time>2021-04-17T09:16:15.497</time></trkpt><trkpt lat="55.8258858" lon="48.9292340"><time>2021-04-17T09:16:19.607</time></trkpt><trkpt lat="55.8258274" lon="48.9292398"><time>2021-04-17T09:16:32.390</time></trkpt><trkpt lat="55.8257772" lon="48.9292031"><time>2021-04-17T09:16:37.507</time></trkpt><trkpt lat="55.8257208" lon="48.9291761"><time>2021-04-17T09:16:40.603</time></trkpt><trkpt lat="55.8256719" lon="48.9291732"><time>2021-04-17T09:16:42.487</time></trkpt><trkpt lat="55.8256247" lon="48.9291677"><time>2021-04-17T09:16:44.790</time></trkpt><trkpt lat="55.8255786" lon="48.9291529"><time>2021-04-17T09:16:46.800</time></trkpt><trkpt lat="55.8255199" lon="48.9291299"><time>2021-04-17T09:16:49.797</time></trkpt><trkpt lat="55.8254735" lon="48.9291235"><time>2021-04-17T09:16:51.797</time></trkpt><trkpt lat="55.8254265" lon="48.9291221"><time>2021-04-17T09:16:53.800</time></trkpt><trkpt lat="55.8253794" lon="48.9291302"><time>2021-04-17T09:16:55.800</time></trkpt><trkpt lat="55.8253313" lon="48.9291395"><time>2021-04-17T09:16:57.873</time></trkpt><trkpt lat="55.8252833" lon="48.9291514"><time>2021-04-17T09:16:59.873</time></trkpt><trkpt lat="55.8252358" lon="48.9291629"><time>2021-04-17T09:17:01.880</time></trkpt><trkpt lat="55.8251904" lon="48.9291730"><time>2021-04-17T09:17:03.877</time></trkpt><trkpt lat="55.8251419" lon="48.9291637"><time>2021-04-17T09:17:05.643</time></trkpt><trkpt lat="55.8250886" lon="48.9291796"><time>2021-04-17T09:17:07.500</time></trkpt><trkpt lat="55.8250384" lon="48.9292008"><time>2021-04-17T09:17:09.497</time></trkpt><trkpt lat="55.8249919" lon="48.9292174"><time>2021-04-17T09:17:11.497</time></trkpt><trkpt lat="55.8249426" lon="48.9292247"><time>2021-04-17T09:17:13.493</time></trkpt><trkpt lat="55.8248845" lon="48.9292069"><time>2021-04-17T09:17:16.493</time></trkpt><trkpt lat="55.8248402" lon="48.9291926"><time>2021-04-17T09:17:18.463</time></trkpt><trkpt lat="55.8247930" lon="48.9291798"><time>2021-04-17T09:17:20.603</time></trkpt><trkpt lat="55.8247213" lon="48.9291571"><time>2021-04-17T09:17:23.497</time></trkpt><trkpt lat="55.8246711" lon="48.9291410"><time>2021-04-17T09:17:25.490</time></trkpt><trkpt lat="55.8246179" lon="48.9290957"><time>2021-04-17T09:17:28.493</time></trkpt><trkpt lat="55.8245807" lon="48.9290500"><time>2021-04-17T09:17:31.627</time></trkpt><trkpt lat="55.8245391" lon="48.9290013"><time>2021-04-17T09:17:40.490</time></trkpt><trkpt lat="55.8244878" lon="48.9289903"><time>2021-04-17T09:17:55.407</time></trkpt><trkpt lat="55.8244400" lon="48.9290070"><time>2021-04-17T09:17:58.487</time></trkpt><trkpt lat="55.8243911" lon="48.9289890"><time>2021-04-17T09:18:01.470</time></trkpt><trkpt lat="55.8243448" lon="48.9289625"><time>2021-04-17T09:18:04.480</time></trkpt><trkpt lat="55.8242923" lon="48.9289600"><time>2021-04-17T09:18:06.490</time></trkpt><trkpt lat="55.8242257" lon="48.9290001"><time>2021-04-17T09:18:09.487</time></trkpt><trkpt lat="55.8241748" lon="48.9290178"><time>2021-04-17T09:18:12.870</time></trkpt><trkpt lat="55.8241198" lon="48.9290050"><time>2021-04-17T09:18:15.873</time></trkpt><trkpt lat="55.8240691" lon="48.9290086"><time>2021-04-17T09:18:19.857</time></trkpt><trkpt lat="55.8240162" lon="48.9290165"><time>2021-04-17T09:18:23.867</time></trkpt><trkpt lat="55.8239667" lon="48.9290154"><time>2021-04-17T09:18:28.877</time></trkpt><trkpt lat="55.8239685" lon="48.9290236"><time>2021-04-17T09:18:31.080</time></trkpt><trkpt lat="55.8240156" lon="48.9290533"><time>2021-04-17T09:18:40.877</time></trkpt><trkpt lat="55.8240722" lon="48.9290318"><time>2021-04-17T09:18:44.747</time></trkpt><trkpt lat="55.8241260" lon="48.9290502"><time>2021-04-17T09:18:47.473</time></trkpt><trkpt lat="55.8241758" lon="48.9291053"><time>2021-04-17T09:18:50.487</time></trkpt><trkpt lat="55.8242124" lon="48.9291526"><time>2021-04-17T09:18:52.490</time></trkpt><trkpt lat="55.8242621" lon="48.9291594"><time>2021-04-17T09:18:55.490</time></trkpt><trkpt lat="55.8243217" lon="48.9291780"><time>2021-04-17T09:18:59.513</time></trkpt><trkpt lat="55.8243744" lon="48.9291749"><time>2021-04-17T09:19:03.487</time></trkpt><trkpt lat="55.8244403" lon="48.9291423"><time>2021-04-17T09:19:06.490</time></trkpt><trkpt lat="55.8244870" lon="48.9291240"><time>2021-04-17T09:19:08.617</time></trkpt><trkpt lat="55.8245345" lon="48.9291488"><time>2021-04-17T09:19:11.617</time></trkpt><trkpt lat="55.8245875" lon="48.9291494"><time>2021-04-17T09:19:14.727</time></trkpt><trkpt lat="55.8246327" lon="48.9291555"><time>2021-04-17T09:19:16.853</time></trkpt><trkpt lat="55.8246972" lon="48.9291384"><time>2021-04-17T09:19:19.733</time></trkpt><trkpt lat="55.8247506" lon="48.9291299"><time>2021-04-17T09:19:21.730</time></trkpt><trkpt lat="55.8248008" lon="48.9291434"><time>2021-04-17T09:19:23.503</time></trkpt><trkpt lat="55.8248572" lon="48.9291475"><time>2021-04-17T09:19:26.493</time></trkpt><trkpt lat="55.8249034" lon="48.9291383"><time>2021-04-17T09:19:28.517</time></trkpt><trkpt lat="55.8249593" lon="48.9291113"><time>2021-04-17T09:19:31.487</time></trkpt><trkpt lat="55.8250036" lon="48.9290858"><time>2021-04-17T09:19:34.487</time></trkpt><trkpt lat="55.8250588" lon="48.9290765"><time>2021-04-17T09:19:37.473</time></trkpt><trkpt lat="55.8251136" lon="48.9290474"><time>2021-04-17T09:19:41.500</time></trkpt><trkpt lat="55.8251727" lon="48.9290367"><time>2021-04-17T09:19:45.373</time></trkpt><trkpt lat="55.8252181" lon="48.9290169"><time>2021-04-17T09:19:48.510</time></trkpt><trkpt lat="55.8252683" lon="48.9290108"><time>2021-04-17T09:19:51.493</time></trkpt><trkpt lat="55.8253141" lon="48.9289825"><time>2021-04-17T09:19:55.493</time></trkpt><trkpt lat="55.8253618" lon="48.9290211"><time>2021-04-17T09:19:59.493</time></trkpt><trkpt lat="55.8254090" lon="48.9290777"><time>2021-04-17T09:20:04.490</time></trkpt><trkpt lat="55.8254509" lon="48.9291110"><time>2021-04-17T09:20:07.690</time></trkpt><trkpt lat="55.8254920" lon="48.9291454"><time>2021-04-17T09:20:11.563</time></trkpt><trkpt lat="55.8255475" lon="48.9291609"><time>2021-04-17T09:20:15.493</time></trkpt><trkpt lat="55.8255985" lon="48.9291943"><time>2021-04-17T09:20:20.490</time></trkpt><trkpt lat="55.8256501" lon="48.9292453"><time>2021-04-17T09:20:26.523</time></trkpt><trkpt lat="55.8256953" lon="48.9292766"><time>2021-04-17T09:20:30.493</time></trkpt><trkpt lat="55.8257413" lon="48.9292886"><time>2021-04-17T09:20:35.693</time></trkpt><trkpt lat="55.8257859" lon="48.9292615"><time>2021-04-17T09:21:10.593</time></trkpt><trkpt lat="55.8257664" lon="48.9293455"><time>2021-04-17T09:21:54.497</time></trkpt><trkpt lat="55.8257389" lon="48.9294147"><time>2021-04-17T09:22:06.627</time></trkpt><trkpt lat="55.8257254" lon="48.9295056"><time>2021-04-17T09:22:11.490</time></trkpt><trkpt lat="55.8256977" lon="48.9295718"><time>2021-04-17T09:22:18.490</time></trkpt><trkpt lat="55.8256873" lon="48.9296563"><time>2021-04-17T09:22:22.493</time></trkpt><trkpt lat="55.8256776" lon="48.9297551"><time>2021-04-17T09:22:26.490</time></trkpt><trkpt lat="55.8256676" lon="48.9298444"><time>2021-04-17T09:22:29.607</time></trkpt><trkpt lat="55.8256530" lon="48.9299404"><time>2021-04-17T09:22:33.607</time></trkpt><trkpt lat="55.8256438" lon="48.9300224"><time>2021-04-17T09:22:36.597</time></trkpt><trkpt lat="55.8256405" lon="48.9301130"><time>2021-04-17T09:22:39.490</time></trkpt><trkpt lat="55.8256335" lon="48.9301968"><time>2021-04-17T09:22:42.543</time></trkpt><trkpt lat="55.8256186" lon="48.9302784"><time>2021-04-17T09:22:48.583</time></trkpt><trkpt lat="55.8255918" lon="48.9303472"><time>2021-04-17T09:22:52.517</time></trkpt><trkpt lat="55.8255550" lon="48.9304047"><time>2021-04-17T09:22:55.523</time></trkpt><trkpt lat="55.8255405" lon="48.9305047"><time>2021-04-17T09:22:59.537</time></trkpt><trkpt lat="55.8255228" lon="48.9305989"><time>2021-04-17T09:23:03.407</time></trkpt><trkpt lat="55.8255052" lon="48.9306868"><time>2021-04-17T09:23:08.487</time></trkpt><trkpt lat="55.8254918" lon="48.9307820"><time>2021-04-17T09:23:12.407</time></trkpt><trkpt lat="55.8254939" lon="48.9308895"><time>2021-04-17T09:23:16.497</time></trkpt><trkpt lat="55.8254763" lon="48.9309761"><time>2021-04-17T09:23:19.490</time></trkpt><trkpt lat="55.8254436" lon="48.9310504"><time>2021-04-17T09:23:25.497</time></trkpt><trkpt lat="55.8253889" lon="48.9310766"><time>2021-04-17T09:23:30.497</time></trkpt><trkpt lat="55.8253352" lon="48.9311124"><time>2021-04-17T09:23:34.740</time></trkpt><trkpt lat="55.8252998" lon="48.9311720"><time>2021-04-17T09:23:39.743</time></trkpt><trkpt lat="55.8252505" lon="48.9312246"><time>2021-04-17T09:23:44.870</time></trkpt><trkpt lat="55.8252111" lon="48.9312889"><time>2021-04-17T09:23:47.543</time></trkpt><trkpt lat="55.8251696" lon="48.9313396"><time>2021-04-17T09:23:51.620</time></trkpt><trkpt lat="55.8251210" lon="48.9313744"><time>2021-04-17T09:23:55.487</time></trkpt><trkpt lat="55.8250739" lon="48.9314093"><time>2021-04-17T09:23:58.643</time></trkpt><trkpt lat="55.8250358" lon="48.9314545"><time>2021-04-17T09:24:01.493</time></trkpt><trkpt lat="55.8249956" lon="48.9315230"><time>2021-04-17T09:24:05.493</time></trkpt><trkpt lat="55.8249444" lon="48.9315564"><time>2021-04-17T09:24:09.497</time></trkpt><trkpt lat="55.8249077" lon="48.9316143"><time>2021-04-17T09:24:14.490</time></trkpt><trkpt lat="55.8248600" lon="48.9316487"><time>2021-04-17T09:24:19.490</time></trkpt><trkpt lat="55.8248076" lon="48.9316847"><time>2021-04-17T09:24:23.503</time></trkpt><trkpt lat="55.8247504" lon="48.9317199"><time>2021-04-17T09:24:27.487</time></trkpt><trkpt lat="55.8246965" lon="48.9317509"><time>2021-04-17T09:24:29.490</time></trkpt><trkpt lat="55.8246485" lon="48.9318090"><time>2021-04-17T09:24:32.487</time></trkpt><trkpt lat="55.8246026" lon="48.9318309"><time>2021-04-17T09:24:36.533</time></trkpt><trkpt lat="55.8245555" lon="48.9318262"><time>2021-04-17T09:24:40.617</time></trkpt><trkpt lat="55.8245103" lon="48.9318469"><time>2021-04-17T09:24:44.677</time></trkpt><trkpt lat="55.8244612" lon="48.9318831"><time>2021-04-17T09:24:48.780</time></trkpt><trkpt lat="55.8244182" lon="48.9319287"><time>2021-04-17T09:24:51.857</time></trkpt><trkpt lat="55.8243620" lon="48.9319375"><time>2021-04-17T09:24:54.743</time></trkpt><trkpt lat="55.8243151" lon="48.9319782"><time>2021-04-17T09:24:57.577</time></trkpt><trkpt lat="55.8242663" lon="48.9320084"><time>2021-04-17T09:25:01.493</time></trkpt><trkpt lat="55.8242269" lon="48.9320588"><time>2021-04-17T09:25:06.630</time></trkpt><trkpt lat="55.8241620" lon="48.9320922"><time>2021-04-17T09:25:12.627</time></trkpt><trkpt lat="55.8241070" lon="48.9321485"><time>2021-04-17T09:25:15.493</time></trkpt><trkpt lat="55.8240707" lon="48.9322369"><time>2021-04-17T09:25:19.490</time></trkpt><trkpt lat="55.8240414" lon="48.9323133"><time>2021-04-17T09:25:22.497</time></trkpt><trkpt lat="55.8240029" lon="48.9323734"><time>2021-04-17T09:25:25.493</time></trkpt><trkpt lat="55.8239681" lon="48.9324284"><time>2021-04-17T09:25:27.507</time></trkpt><trkpt lat="55.8239507" lon="48.9325249"><time>2021-04-17T09:25:30.490</time></trkpt><trkpt lat="55.8239209" lon="48.9326254"><time>2021-04-17T09:25:33.493</time></trkpt><trkpt lat="55.8239003" lon="48.9327141"><time>2021-04-17T09:25:36.490</time></trkpt><trkpt lat="55.8238639" lon="48.9327805"><time>2021-04-17T09:25:39.497</time></trkpt><trkpt lat="55.8238209" lon="48.9328350"><time>2021-04-17T09:25:43.490</time></trkpt><trkpt lat="55.8237753" lon="48.9328834"><time>2021-04-17T09:25:59.847</time></trkpt><trkpt lat="55.8237289" lon="48.9329310"><time>2021-04-17T09:26:09.867</time></trkpt><trkpt lat="55.8236841" lon="48.9329414"><time>2021-04-17T09:26:14.603</time></trkpt><trkpt lat="55.8236401" lon="48.9329889"><time>2021-04-17T09:26:18.493</time></trkpt><trkpt lat="55.8235909" lon="48.9330377"><time>2021-04-17T09:26:21.493</time></trkpt><trkpt lat="55.8235728" lon="48.9331156"><time>2021-04-17T09:26:25.490</time></trkpt><trkpt lat="55.8235335" lon="48.9331881"><time>2021-04-17T09:26:28.497</time></trkpt><trkpt lat="55.8235024" lon="48.9332658"><time>2021-04-17T09:26:31.500</time></trkpt><trkpt lat="55.8234685" lon="48.9333302"><time>2021-04-17T09:26:34.540</time></trkpt><trkpt lat="55.8234329" lon="48.9333804"><time>2021-04-17T09:26:37.637</time></trkpt><trkpt lat="55.8234061" lon="48.9334647"><time>2021-04-17T09:26:41.417</time></trkpt><trkpt lat="55.8233742" lon="48.9335495"><time>2021-04-17T09:26:46.487</time></trkpt><trkpt lat="55.8233475" lon="48.9336214"><time>2021-04-17T09:26:50.487</time></trkpt><trkpt lat="55.8233030" lon="48.9336737"><time>2021-04-17T09:26:54.400</time></trkpt><trkpt lat="55.8232695" lon="48.9337559"><time>2021-04-17T09:26:58.483</time></trkpt><trkpt lat="55.8232509" lon="48.9338287"><time>2021-04-17T09:27:03.450</time></trkpt><trkpt lat="55.8232161" lon="48.9338799"><time>2021-04-17T09:27:09.467</time></trkpt><trkpt lat="55.8231831" lon="48.9339406"><time>2021-04-17T09:27:15.483</time></trkpt><trkpt lat="55.8231530" lon="48.9340110"><time>2021-04-17T09:27:27.490</time></trkpt><trkpt lat="55.8231472" lon="48.9340945"><time>2021-04-17T09:27:31.400</time></trkpt><trkpt lat="55.8231323" lon="48.9341800"><time>2021-04-17T09:27:37.400</time></trkpt><trkpt lat="55.8231361" lon="48.9342693"><time>2021-04-17T09:27:42.487</time></trkpt><trkpt lat="55.8231422" lon="48.9343530"><time>2021-04-17T09:27:49.773</time></trkpt><trkpt lat="55.8231639" lon="48.9344565"><time>2021-04-17T09:27:57.513</time></trkpt><trkpt lat="55.8231801" lon="48.9345320"><time>2021-04-17T09:28:01.630</time></trkpt><trkpt lat="55.8231939" lon="48.9346102"><time>2021-04-17T09:28:06.490</time></trkpt><trkpt lat="55.8232216" lon="48.9346892"><time>2021-04-17T09:28:12.870</time></trkpt><trkpt lat="55.8232575" lon="48.9347640"><time>2021-04-17T09:28:18.867</time></trkpt><trkpt lat="55.8232973" lon="48.9348440"><time>2021-04-17T09:28:25.507</time></trkpt><trkpt lat="55.8232879" lon="48.9349443"><time>2021-04-17T09:28:34.490</time></trkpt><trkpt lat="55.8232867" lon="48.9350349"><time>2021-04-17T09:28:41.610</time></trkpt><trkpt lat="55.8233336" lon="48.9350634"><time>2021-04-17T09:28:46.490</time></trkpt><trkpt lat="55.8233807" lon="48.9351016"><time>2021-04-17T09:28:50.493</time></trkpt><trkpt lat="55.8234225" lon="48.9351613"><time>2021-04-17T09:28:55.783</time></trkpt><trkpt lat="55.8234718" lon="48.9352079"><time>2021-04-17T09:29:00.490</time></trkpt><trkpt lat="55.8235139" lon="48.9352458"><time>2021-04-17T09:29:05.610</time></trkpt><trkpt lat="55.8235434" lon="48.9353222"><time>2021-04-17T09:29:10.497</time></trkpt><trkpt lat="55.8235903" lon="48.9353764"><time>2021-04-17T09:29:25.750</time></trkpt><trkpt lat="55.8235808" lon="48.9354615"><time>2021-04-17T09:29:43.487</time></trkpt><trkpt lat="55.8235386" lon="48.9354996"><time>2021-04-17T09:30:00.597</time></trkpt><trkpt lat="55.8234815" lon="48.9354560"><time>2021-04-17T09:30:04.613</time></trkpt><trkpt lat="55.8234315" lon="48.9354079"><time>2021-04-17T09:30:08.600</time></trkpt><trkpt lat="55.8234351" lon="48.9353252"><time>2021-04-17T09:30:16.613</time></trkpt><trkpt lat="55.8234260" lon="48.9352379"><time>2021-04-17T09:30:23.633</time></trkpt><trkpt lat="55.8233803" lon="48.9351704"><time>2021-04-17T09:30:26.620</time></trkpt><trkpt lat="55.8233155" lon="48.9351464"><time>2021-04-17T09:30:29.667</time></trkpt><trkpt lat="55.8232700" lon="48.9351491"><time>2021-04-17T09:30:31.633</time></trkpt><trkpt lat="55.8232244" lon="48.9351483"><time>2021-04-17T09:30:33.650</time></trkpt><trkpt lat="55.8231596" lon="48.9351564"><time>2021-04-17T09:30:36.753</time></trkpt><trkpt lat="55.8231027" lon="48.9351367"><time>2021-04-17T09:30:39.577</time></trkpt><trkpt lat="55.8230470" lon="48.9351563"><time>2021-04-17T09:30:42.393</time></trkpt><trkpt lat="55.8229997" lon="48.9351333"><time>2021-04-17T09:30:46.493</time></trkpt><trkpt lat="55.8229524" lon="48.9351206"><time>2021-04-17T09:30:51.493</time></trkpt><trkpt lat="55.8229011" lon="48.9351311"><time>2021-04-17T09:30:56.497</time></trkpt><trkpt lat="55.8228583" lon="48.9351584"><time>2021-04-17T09:31:01.347</time></trkpt><trkpt lat="55.8228143" lon="48.9351869"><time>2021-04-17T09:31:05.550</time></trkpt><trkpt lat="55.8227452" lon="48.9352010"><time>2021-04-17T09:31:11.423</time></trkpt><trkpt lat="55.8226961" lon="48.9352029"><time>2021-04-17T09:31:16.503</time></trkpt><trkpt lat="55.8226461" lon="48.9351804"><time>2021-04-17T09:31:21.347</time></trkpt><trkpt lat="55.8226021" lon="48.9352166"><time>2021-04-17T09:31:26.400</time></trkpt><trkpt lat="55.8225565" lon="48.9352494"><time>2021-04-17T09:31:31.873</time></trkpt><trkpt lat="55.8225077" lon="48.9352782"><time>2021-04-17T09:31:37.753</time></trkpt><trkpt lat="55.8224613" lon="48.9353047"><time>2021-04-17T09:31:42.733</time></trkpt><trkpt lat="55.8224123" lon="48.9353077"><time>2021-04-17T09:31:49.497</time></trkpt><trkpt lat="55.8223571" lon="48.9353167"><time>2021-04-17T09:31:54.330</time></trkpt><trkpt lat="55.8223115" lon="48.9353118"><time>2021-04-17T09:31:59.493</time></trkpt><trkpt lat="55.8222650" lon="48.9353459"><time>2021-04-17T09:32:04.663</time></trkpt><trkpt lat="55.8222203" lon="48.9353547"><time>2021-04-17T09:32:08.707</time></trkpt><trkpt lat="55.8221594" lon="48.9353447"><time>2021-04-17T09:32:14.707</time></trkpt><trkpt lat="55.8221027" lon="48.9353552"><time>2021-04-17T09:32:23.563</time></trkpt><trkpt lat="55.8220512" lon="48.9353743"><time>2021-04-17T09:32:30.323</time></trkpt><trkpt lat="55.8220021" lon="48.9353577"><time>2021-04-17T09:32:35.503</time></trkpt><trkpt lat="55.8219574" lon="48.9353817"><time>2021-04-17T09:32:39.503</time></trkpt><trkpt lat="55.8219005" lon="48.9353675"><time>2021-04-17T09:32:51.800</time></trkpt><trkpt lat="55.8218672" lon="48.9353625"><time>2021-04-17T09:32:53.393</time></trkpt><trkpt lat="55.8218540" lon="48.9354004"><time>2021-04-17T09:32:54.847</time></trkpt><trkpt lat="55.8218174" lon="48.9354483"><time>2021-04-17T09:32:59.847</time></trkpt><trkpt lat="55.8217723" lon="48.9355020"><time>2021-04-17T09:33:11.887</time></trkpt><trkpt lat="55.8217250" lon="48.9355093"><time>2021-04-17T09:33:17.893</time></trkpt><trkpt lat="55.8216877" lon="48.9355722"><time>2021-04-17T09:33:31.890</time></trkpt><trkpt lat="55.8216547" lon="48.9356597"><time>2021-04-17T09:33:38.893</time></trkpt><trkpt lat="55.8216285" lon="48.9357282"><time>2021-04-17T09:33:46.877</time></trkpt><trkpt lat="55.8215984" lon="48.9358013"><time>2021-04-17T09:33:52.893</time></trkpt><trkpt lat="55.8216054" lon="48.9358874"><time>2021-04-17T09:34:00.897</time></trkpt><trkpt lat="55.8215912" lon="48.9360002"><time>2021-04-17T09:34:15.617</time></trkpt><trkpt lat="55.8215930" lon="48.9360828"><time>2021-04-17T09:34:22.530</time></trkpt><trkpt lat="55.8215906" lon="48.9361710"><time>2021-04-17T09:34:30.490</time></trkpt><trkpt lat="55.8216001" lon="48.9362582"><time>2021-04-17T09:34:36.490</time></trkpt><trkpt lat="55.8216153" lon="48.9363359"><time>2021-04-17T09:34:42.487</time></trkpt><trkpt lat="55.8216263" lon="48.9364225"><time>2021-04-17T09:34:48.490</time></trkpt><trkpt lat="55.8216221" lon="48.9365097"><time>2021-04-17T09:34:53.387</time></trkpt><trkpt lat="55.8216385" lon="48.9365940"><time>2021-04-17T09:35:00.610</time></trkpt><trkpt lat="55.8216680" lon="48.9366955"><time>2021-04-17T09:35:08.747</time></trkpt><trkpt lat="55.8216798" lon="48.9367850"><time>2021-04-17T09:35:14.940</time></trkpt><trkpt lat="55.8216954" lon="48.9368646"><time>2021-04-17T09:35:18.883</time></trkpt><trkpt lat="55.8216871" lon="48.9369522"><time>2021-04-17T09:35:24.407</time></trkpt><trkpt lat="55.8216906" lon="48.9370449"><time>2021-04-17T09:35:29.393</time></trkpt><trkpt lat="55.8216773" lon="48.9371254"><time>2021-04-17T09:35:33.493</time></trkpt><trkpt lat="55.8216646" lon="48.9372056"><time>2021-04-17T09:35:40.840</time></trkpt><trkpt lat="55.8216355" lon="48.9372673"><time>2021-04-17T09:35:46.617</time></trkpt><trkpt lat="55.8215779" lon="48.9373103"><time>2021-04-17T09:35:54.673</time></trkpt><trkpt lat="55.8215397" lon="48.9373609"><time>2021-04-17T09:35:59.663</time></trkpt><trkpt lat="55.8214981" lon="48.9374061"><time>2021-04-17T09:36:05.670</time></trkpt><trkpt lat="55.8214496" lon="48.9374267"><time>2021-04-17T09:36:11.827</time></trkpt><trkpt lat="55.8214045" lon="48.9374564"><time>2021-04-17T09:36:14.750</time></trkpt><trkpt lat="55.8213582" lon="48.9374769"><time>2021-04-17T09:36:18.767</time></trkpt><trkpt lat="55.8212934" lon="48.9374895"><time>2021-04-17T09:36:22.767</time></trkpt><trkpt lat="55.8212346" lon="48.9374957"><time>2021-04-17T09:36:26.863</time></trkpt><trkpt lat="55.8211818" lon="48.9375161"><time>2021-04-17T09:36:30.767</time></trkpt><trkpt lat="55.8211516" lon="48.9375798"><time>2021-04-17T09:36:38.773</time></trkpt><trkpt lat="55.8211235" lon="48.9376536"><time>2021-04-17T09:37:02.717</time></trkpt><trkpt lat="55.8210717" lon="48.9376886"><time>2021-04-17T09:37:09.493</time></trkpt><trkpt lat="55.8210181" lon="48.9377076"><time>2021-04-17T09:37:15.633</time></trkpt><trkpt lat="55.8209722" lon="48.9377203"><time>2021-04-17T09:37:19.637</time></trkpt><trkpt lat="55.8209163" lon="48.9377304"><time>2021-04-17T09:37:23.787</time></trkpt><trkpt lat="55.8208631" lon="48.9377586"><time>2021-04-17T09:37:28.487</time></trkpt><trkpt lat="55.8208168" lon="48.9378058"><time>2021-04-17T09:37:32.483</time></trkpt><trkpt lat="55.8207675" lon="48.9378127"><time>2021-04-17T09:37:36.420</time></trkpt><trkpt lat="55.8207121" lon="48.9378207"><time>2021-04-17T09:37:42.487</time></trkpt><trkpt lat="55.8206714" lon="48.9378657"><time>2021-04-17T09:37:47.397</time></trkpt><trkpt lat="55.8206196" lon="48.9378760"><time>2021-04-17T09:37:51.683</time></trkpt><trkpt lat="55.8205705" lon="48.9378768"><time>2021-04-17T09:37:56.410</time></trkpt><trkpt lat="55.8205239" lon="48.9378910"><time>2021-04-17T09:38:00.540</time></trkpt><trkpt lat="55.8204786" lon="48.9378764"><time>2021-04-17T09:38:05.527</time></trkpt><trkpt lat="55.8204252" lon="48.9378968"><time>2021-04-17T09:38:10.450</time></trkpt><trkpt lat="55.8203785" lon="48.9379055"><time>2021-04-17T09:38:14.687</time></trkpt><trkpt lat="55.8203167" lon="48.9379228"><time>2021-04-17T09:38:22.450</time></trkpt><trkpt lat="55.8202861" lon="48.9379422"><time>2021-04-17T09:38:25.890</time></trkpt><trkpt lat="55.8202892" lon="48.9379977"><time>2021-04-17T09:38:29.477</time></trkpt><trkpt lat="55.8202502" lon="48.9380791"><time>2021-04-17T09:38:35.797</time></trkpt><trkpt lat="55.8202163" lon="48.9381407"><time>2021-04-17T09:38:45.493</time></trkpt><trkpt lat="55.8201699" lon="48.9381717"><time>2021-04-17T09:38:56.490</time></trkpt><trkpt lat="55.8201735" lon="48.9382531"><time>2021-04-17T09:39:20.480</time></trkpt><trkpt lat="55.8201861" lon="48.9383344"><time>2021-04-17T09:39:32.593</time></trkpt><trkpt lat="55.8202158" lon="48.9384044"><time>2021-04-17T09:39:39.997</time></trkpt><trkpt lat="55.8202518" lon="48.9384666"><time>2021-04-17T09:39:48.487</time></trkpt><trkpt lat="55.8202724" lon="48.9385447"><time>2021-04-17T09:40:03.613</time></trkpt><trkpt lat="55.8202865" lon="48.9386233"><time>2021-04-17T09:40:16.697</time></trkpt><trkpt lat="55.8203203" lon="48.9386768"><time>2021-04-17T09:40:21.487</time></trkpt><trkpt lat="55.8203297" lon="48.9387630"><time>2021-04-17T09:40:27.490</time></trkpt><trkpt lat="55.8203447" lon="48.9388406"><time>2021-04-17T09:40:32.483</time></trkpt><trkpt lat="55.8203952" lon="48.9388493"><time>2021-04-17T09:40:36.617</time></trkpt><trkpt lat="55.8204387" lon="48.9388741"><time>2021-04-17T09:40:39.630</time></trkpt><trkpt lat="55.8204858" lon="48.9389378"><time>2021-04-17T09:40:48.857</time></trkpt><trkpt lat="55.8205306" lon="48.9389780"><time>2021-04-17T09:40:54.490</time></trkpt><trkpt lat="55.8205638" lon="48.9390418"><time>2021-04-17T09:40:59.683</time></trkpt><trkpt lat="55.8206072" lon="48.9390726"><time>2021-04-17T09:41:03.490</time></trkpt><trkpt lat="55.8206482" lon="48.9391281"><time>2021-04-17T09:41:07.493</time></trkpt><trkpt lat="55.8206877" lon="48.9391803"><time>2021-04-17T09:41:12.517</time></trkpt><trkpt lat="55.8207297" lon="48.9392353"><time>2021-04-17T09:41:18.490</time></trkpt><trkpt lat="55.8207629" lon="48.9392935"><time>2021-04-17T09:41:22.423</time></trkpt><trkpt lat="55.8207956" lon="48.9393548"><time>2021-04-17T09:41:28.413</time></trkpt><trkpt lat="55.8208483" lon="48.9394027"><time>2021-04-17T09:41:33.487</time></trkpt><trkpt lat="55.8208932" lon="48.9394325"><time>2021-04-17T09:41:37.487</time></trkpt><trkpt lat="55.8209430" lon="48.9394869"><time>2021-04-17T09:41:42.490</time></trkpt><trkpt lat="55.8209931" lon="48.9395313"><time>2021-04-17T09:41:46.603</time></trkpt><trkpt lat="55.8210497" lon="48.9395509"><time>2021-04-17T09:41:50.617</time></trkpt><trkpt lat="55.8210844" lon="48.9396061"><time>2021-04-17T09:41:55.767</time></trkpt><trkpt lat="55.8211294" lon="48.9396343"><time>2021-04-17T09:42:04.487</time></trkpt><trkpt lat="55.8211736" lon="48.9396663"><time>2021-04-17T09:42:07.377</time></trkpt><trkpt lat="55.8212129" lon="48.9397283"><time>2021-04-17T09:42:11.490</time></trkpt><trkpt lat="55.8212566" lon="48.9397805"><time>2021-04-17T09:42:16.493</time></trkpt><trkpt lat="55.8213081" lon="48.9397912"><time>2021-04-17T09:42:21.493</time></trkpt><trkpt lat="55.8213532" lon="48.9398716"><time>2021-04-17T09:42:28.487</time></trkpt><trkpt lat="55.8213929" lon="48.9399398"><time>2021-04-17T09:42:35.490</time></trkpt><trkpt lat="55.8214276" lon="48.9400000"><time>2021-04-17T09:42:40.490</time></trkpt><trkpt lat="55.8214735" lon="48.9400479"><time>2021-04-17T09:42:52.733</time></trkpt><trkpt lat="55.8215134" lon="48.9400984"><time>2021-04-17T09:42:57.737</time></trkpt><trkpt lat="55.8215578" lon="48.9401472"><time>2021-04-17T09:43:02.900</time></trkpt><trkpt lat="55.8216056" lon="48.9402008"><time>2021-04-17T09:43:07.903</time></trkpt><trkpt lat="55.8216508" lon="48.9402255"><time>2021-04-17T09:43:11.623</time></trkpt><trkpt lat="55.8216890" lon="48.9402910"><time>2021-04-17T09:43:16.487</time></trkpt><trkpt lat="55.8217244" lon="48.9403446"><time>2021-04-17T09:43:19.643</time></trkpt><trkpt lat="55.8217551" lon="48.9404038"><time>2021-04-17T09:43:22.577</time></trkpt><trkpt lat="55.8217960" lon="48.9404515"><time>2021-04-17T09:43:25.490</time></trkpt><trkpt lat="55.8218473" lon="48.9404811"><time>2021-04-17T09:43:28.400</time></trkpt><trkpt lat="55.8218974" lon="48.9404929"><time>2021-04-17T09:43:33.490</time></trkpt><trkpt lat="55.8219330" lon="48.9405486"><time>2021-04-17T09:43:39.490</time></trkpt><trkpt lat="55.8219792" lon="48.9405689"><time>2021-04-17T09:43:43.497</time></trkpt><trkpt lat="55.8220219" lon="48.9406100"><time>2021-04-17T09:43:49.490</time></trkpt><trkpt lat="55.8220762" lon="48.9406276"><time>2021-04-17T09:43:53.537</time></trkpt><trkpt lat="55.8221215" lon="48.9406887"><time>2021-04-17T09:43:58.530</time></trkpt><trkpt lat="55.8221669" lon="48.9407307"><time>2021-04-17T09:44:02.880</time></trkpt><trkpt lat="55.8222202" lon="48.9407844"><time>2021-04-17T09:44:07.877</time></trkpt><trkpt lat="55.8222682" lon="48.9408232"><time>2021-04-17T09:44:11.867</time></trkpt><trkpt lat="55.8223123" lon="48.9408718"><time>2021-04-17T09:44:15.797</time></trkpt><trkpt lat="55.8223562" lon="48.9409091"><time>2021-04-17T09:44:21.413</time></trkpt><trkpt lat="55.8223877" lon="48.9409677"><time>2021-04-17T09:44:25.493</time></trkpt><trkpt lat="55.8224234" lon="48.9410272"><time>2021-04-17T09:44:29.497</time></trkpt><trkpt lat="55.8224547" lon="48.9411053"><time>2021-04-17T09:44:35.647</time></trkpt><trkpt lat="55.8224967" lon="48.9411570"><time>2021-04-17T09:44:40.497</time></trkpt><trkpt lat="55.8225575" lon="48.9412211"><time>2021-04-17T09:44:47.497</time></trkpt><trkpt lat="55.8226008" lon="48.9412488"><time>2021-04-17T09:44:51.493</time></trkpt><trkpt lat="55.8226391" lon="48.9413124"><time>2021-04-17T09:44:56.493</time></trkpt><trkpt lat="55.8226753" lon="48.9413651"><time>2021-04-17T09:45:02.500</time></trkpt><trkpt lat="55.8227197" lon="48.9414056"><time>2021-04-17T09:45:07.497</time></trkpt><trkpt lat="55.8227663" lon="48.9414187"><time>2021-04-17T09:45:10.493</time></trkpt><trkpt lat="55.8228110" lon="48.9414551"><time>2021-04-17T09:45:14.603</time></trkpt><trkpt lat="55.8228465" lon="48.9415067"><time>2021-04-17T09:45:18.610</time></trkpt><trkpt lat="55.8228886" lon="48.9415396"><time>2021-04-17T09:45:22.737</time></trkpt><trkpt lat="55.8229319" lon="48.9415652"><time>2021-04-17T09:45:26.617</time></trkpt><trkpt lat="55.8229865" lon="48.9416043"><time>2021-04-17T09:45:30.480</time></trkpt><trkpt lat="55.8230241" lon="48.9416736"><time>2021-04-17T09:45:35.717</time></trkpt><trkpt lat="55.8230645" lon="48.9417284"><time>2021-04-17T09:45:40.817</time></trkpt><trkpt lat="55.8231062" lon="48.9417676"><time>2021-04-17T09:45:44.690</time></trkpt><trkpt lat="55.8231543" lon="48.9418206"><time>2021-04-17T09:45:49.537</time></trkpt><trkpt lat="55.8231880" lon="48.9418957"><time>2021-04-17T09:45:55.377</time></trkpt><trkpt lat="55.8232320" lon="48.9419652"><time>2021-04-17T09:46:00.380</time></trkpt><trkpt lat="55.8232733" lon="48.9420115"><time>2021-04-17T09:46:06.507</time></trkpt><trkpt lat="55.8233052" lon="48.9420858"><time>2021-04-17T09:46:13.493</time></trkpt><trkpt lat="55.8233427" lon="48.9421320"><time>2021-04-17T09:46:17.490</time></trkpt><trkpt lat="55.8233624" lon="48.9422093"><time>2021-04-17T09:46:25.637</time></trkpt><trkpt lat="55.8233867" lon="48.9422411"><time>2021-04-17T09:46:28.883</time></trkpt><trkpt lat="55.8234057" lon="48.9422374"><time>2021-04-17T09:46:31.643</time></trkpt><trkpt lat="55.8234574" lon="48.9422318"><time>2021-04-17T09:46:39.657</time></trkpt><trkpt lat="55.8235015" lon="48.9421893"><time>2021-04-17T09:46:47.130</time></trkpt><trkpt lat="55.8235505" lon="48.9421713"><time>2021-04-17T09:46:56.557</time></trkpt><trkpt lat="55.8236045" lon="48.9422188"><time>2021-04-17T09:47:08.490</time></trkpt><trkpt lat="55.8236563" lon="48.9422902"><time>2021-04-17T09:47:16.497</time></trkpt><trkpt lat="55.8237049" lon="48.9423480"><time>2021-04-17T09:47:21.490</time></trkpt><trkpt lat="55.8237528" lon="48.9423935"><time>2021-04-17T09:47:26.587</time></trkpt><trkpt lat="55.8237934" lon="48.9424315"><time>2021-04-17T09:47:30.600</time></trkpt><trkpt lat="55.8238379" lon="48.9424821"><time>2021-04-17T09:47:36.493</time></trkpt><trkpt lat="55.8238829" lon="48.9425369"><time>2021-04-17T09:47:41.487</time></trkpt><trkpt lat="55.8239254" lon="48.9425805"><time>2021-04-17T09:47:44.490</time></trkpt><trkpt lat="55.8239699" lon="48.9426381"><time>2021-04-17T09:47:48.497</time></trkpt><trkpt lat="55.8240070" lon="48.9427067"><time>2021-04-17T09:47:53.493</time></trkpt><trkpt lat="55.8240559" lon="48.9427390"><time>2021-04-17T09:47:57.490</time></trkpt><trkpt lat="55.8241012" lon="48.9427716"><time>2021-04-17T09:48:01.487</time></trkpt><trkpt lat="55.8241439" lon="48.9428246"><time>2021-04-17T09:48:04.490</time></trkpt><trkpt lat="55.8241843" lon="48.9428686"><time>2021-04-17T09:48:07.403</time></trkpt><trkpt lat="55.8242277" lon="48.9429057"><time>2021-04-17T09:48:10.493</time></trkpt><trkpt lat="55.8242710" lon="48.9429564"><time>2021-04-17T09:48:15.607</time></trkpt><trkpt lat="55.8243207" lon="48.9430208"><time>2021-04-17T09:48:19.487</time></trkpt><trkpt lat="55.8243653" lon="48.9430674"><time>2021-04-17T09:48:22.490</time></trkpt><trkpt lat="55.8244082" lon="48.9431265"><time>2021-04-17T09:48:27.493</time></trkpt><trkpt lat="55.8244515" lon="48.9431954"><time>2021-04-17T09:48:31.680</time></trkpt><trkpt lat="55.8244983" lon="48.9431828"><time>2021-04-17T09:48:38.997</time></trkpt><trkpt lat="55.8245076" lon="48.9431011"><time>2021-04-17T09:48:46.787</time></trkpt><trkpt lat="55.8245215" lon="48.9430180"><time>2021-04-17T09:48:53.497</time></trkpt><trkpt lat="55.8245580" lon="48.9429498"><time>2021-04-17T09:49:00.487</time></trkpt><trkpt lat="55.8245854" lon="48.9428727"><time>2021-04-17T09:49:07.450</time></trkpt><trkpt lat="55.8246219" lon="48.9428152"><time>2021-04-17T09:49:12.490</time></trkpt><trkpt lat="55.8246555" lon="48.9427114"><time>2021-04-17T09:49:21.490</time></trkpt><trkpt lat="55.8246660" lon="48.9426259"><time>2021-04-17T09:49:28.437</time></trkpt><trkpt lat="55.8246983" lon="48.9425456"><time>2021-04-17T09:49:34.437</time></trkpt><trkpt lat="55.8247335" lon="48.9424692"><time>2021-04-17T09:49:40.663</time></trkpt><trkpt lat="55.8247685" lon="48.9424051"><time>2021-04-17T09:49:44.910</time></trkpt><trkpt lat="55.8247965" lon="48.9423178"><time>2021-04-17T09:49:50.603</time></trkpt><trkpt lat="55.8248350" lon="48.9422663"><time>2021-04-17T09:49:55.487</time></trkpt><trkpt lat="55.8248768" lon="48.9422088"><time>2021-04-17T09:50:01.657</time></trkpt><trkpt lat="55.8249114" lon="48.9421293"><time>2021-04-17T09:50:10.443</time></trkpt><trkpt lat="55.8249293" lon="48.9420290"><time>2021-04-17T09:50:16.607</time></trkpt><trkpt lat="55.8249514" lon="48.9419337"><time>2021-04-17T09:50:20.437</time></trkpt><trkpt lat="55.8249842" lon="48.9418499"><time>2021-04-17T09:50:24.527</time></trkpt><trkpt lat="55.8250139" lon="48.9417838"><time>2021-04-17T09:50:28.707</time></trkpt><trkpt lat="55.8250520" lon="48.9417118"><time>2021-04-17T09:50:32.490</time></trkpt><trkpt lat="55.8250866" lon="48.9416372"><time>2021-04-17T09:50:37.493</time></trkpt><trkpt lat="55.8251266" lon="48.9415712"><time>2021-04-17T09:50:41.753</time></trkpt><trkpt lat="55.8251578" lon="48.9415088"><time>2021-04-17T09:50:45.760</time></trkpt><trkpt lat="55.8252048" lon="48.9414505"><time>2021-04-17T09:50:50.887</time></trkpt><trkpt lat="55.8252344" lon="48.9413782"><time>2021-04-17T09:50:57.540</time></trkpt><trkpt lat="55.8252732" lon="48.9413331"><time>2021-04-17T09:51:03.407</time></trkpt><trkpt lat="55.8253167" lon="48.9412596"><time>2021-04-17T09:51:13.433</time></trkpt><trkpt lat="55.8253504" lon="48.9411999"><time>2021-04-17T09:51:20.647</time></trkpt><trkpt lat="55.8253937" lon="48.9411454"><time>2021-04-17T09:51:27.603</time></trkpt><trkpt lat="55.8254257" lon="48.9410767"><time>2021-04-17T09:51:32.613</time></trkpt><trkpt lat="55.8254701" lon="48.9410346"><time>2021-04-17T09:51:36.490</time></trkpt><trkpt lat="55.8255100" lon="48.9409955"><time>2021-04-17T09:51:39.490</time></trkpt><trkpt lat="55.8255490" lon="48.9409436"><time>2021-04-17T09:51:42.427</time></trkpt><trkpt lat="55.8255853" lon="48.9408654"><time>2021-04-17T09:51:46.617</time></trkpt><trkpt lat="55.8256415" lon="48.9408004"><time>2021-04-17T09:51:53.767</time></trkpt><trkpt lat="55.8256881" lon="48.9407485"><time>2021-04-17T09:51:57.893</time></trkpt><trkpt lat="55.8257244" lon="48.9406820"><time>2021-04-17T09:52:01.887</time></trkpt><trkpt lat="55.8257611" lon="48.9406093"><time>2021-04-17T09:52:07.017</time></trkpt><trkpt lat="55.8257923" lon="48.9405356"><time>2021-04-17T09:52:11.887</time></trkpt><trkpt lat="55.8258170" lon="48.9404619"><time>2021-04-17T09:52:15.537</time></trkpt><trkpt lat="55.8258462" lon="48.9403732"><time>2021-04-17T09:52:19.437</time></trkpt><trkpt lat="55.8258812" lon="48.9402876"><time>2021-04-17T09:52:24.717</time></trkpt><trkpt lat="55.8259077" lon="48.9402059"><time>2021-04-17T09:52:30.720</time></trkpt><trkpt lat="55.8259213" lon="48.9401272"><time>2021-04-17T09:52:35.707</time></trkpt><trkpt lat="55.8259390" lon="48.9400471"><time>2021-04-17T09:52:39.713</time></trkpt><trkpt lat="55.8259659" lon="48.9399715"><time>2021-04-17T09:52:43.487</time></trkpt><trkpt lat="55.8259909" lon="48.9399048"><time>2021-04-17T09:52:48.497</time></trkpt><trkpt lat="55.8260112" lon="48.9398283"><time>2021-04-17T09:52:52.480</time></trkpt><trkpt lat="55.8260353" lon="48.9397553"><time>2021-04-17T09:53:00.300</time></trkpt><trkpt lat="55.8260726" lon="48.9396781"><time>2021-04-17T09:53:05.967</time></trkpt><trkpt lat="55.8261001" lon="48.9395776"><time>2021-04-17T09:53:12.973</time></trkpt><trkpt lat="55.8261289" lon="48.9395138"><time>2021-04-17T09:53:21.500</time></trkpt><trkpt lat="55.8261645" lon="48.9394624"><time>2021-04-17T09:53:25.490</time></trkpt><trkpt lat="55.8262123" lon="48.9394522"><time>2021-04-17T09:53:30.593</time></trkpt><trkpt lat="55.8262552" lon="48.9394182"><time>2021-04-17T09:53:36.490</time></trkpt><trkpt lat="55.8263068" lon="48.9393643"><time>2021-04-17T09:53:45.610</time></trkpt><trkpt lat="55.8263523" lon="48.9393242"><time>2021-04-17T09:53:52.610</time></trkpt><trkpt lat="55.8263969" lon="48.9392652"><time>2021-04-17T09:53:57.487</time></trkpt><trkpt lat="55.8264322" lon="48.9391858"><time>2021-04-17T09:54:03.800</time></trkpt><trkpt lat="55.8264637" lon="48.9391194"><time>2021-04-17T09:54:09.627</time></trkpt><trkpt lat="55.8265101" lon="48.9390847"><time>2021-04-17T09:54:15.783</time></trkpt><trkpt lat="55.8265412" lon="48.9390246"><time>2021-04-17T09:54:20.667</time></trkpt><trkpt lat="55.8265883" lon="48.9390311"><time>2021-04-17T09:54:26.527</time></trkpt><trkpt lat="55.8266358" lon="48.9390380"><time>2021-04-17T09:54:30.490</time></trkpt><trkpt lat="55.8266894" lon="48.9390159"><time>2021-04-17T09:54:34.530</time></trkpt><trkpt lat="55.8267405" lon="48.9390237"><time>2021-04-17T09:54:38.487</time></trkpt><trkpt lat="55.8267881" lon="48.9390346"><time>2021-04-17T09:54:41.497</time></trkpt><trkpt lat="55.8268331" lon="48.9390557"><time>2021-04-17T09:54:45.490</time></trkpt><trkpt lat="55.8268812" lon="48.9390281"><time>2021-04-17T09:54:50.490</time></trkpt><trkpt lat="55.8269236" lon="48.9389884"><time>2021-04-17T09:54:55.497</time></trkpt><trkpt lat="55.8269767" lon="48.9389788"><time>2021-04-17T09:55:00.403</time></trkpt><trkpt lat="55.8270276" lon="48.9389747"><time>2021-04-17T09:55:07.490</time></trkpt><trkpt lat="55.8270704" lon="48.9389160"><time>2021-04-17T09:55:12.397</time></trkpt><trkpt lat="55.8271139" lon="48.9388690"><time>2021-04-17T09:55:17.867</time></trkpt><trkpt lat="55.8271599" lon="48.9388274"><time>2021-04-17T09:55:24.863</time></trkpt><trkpt lat="55.8271958" lon="48.9387581"><time>2021-04-17T09:55:30.813</time></trkpt><trkpt lat="55.8272410" lon="48.9387173"><time>2021-04-17T09:55:36.600</time></trkpt><trkpt lat="55.8272747" lon="48.9386516"><time>2021-04-17T09:55:40.653</time></trkpt><trkpt lat="55.8273003" lon="48.9385758"><time>2021-04-17T09:55:45.590</time></trkpt><trkpt lat="55.8273382" lon="48.9385212"><time>2021-04-17T09:55:49.593</time></trkpt><trkpt lat="55.8273760" lon="48.9384665"><time>2021-04-17T09:55:56.593</time></trkpt><trkpt lat="55.8274323" lon="48.9384635"><time>2021-04-17T09:56:02.600</time></trkpt><trkpt lat="55.8274918" lon="48.9384690"><time>2021-04-17T09:56:06.597</time></trkpt><trkpt lat="55.8275393" lon="48.9384627"><time>2021-04-17T09:56:11.597</time></trkpt><trkpt lat="55.8275463" lon="48.9383822"><time>2021-04-17T09:56:24.597</time></trkpt><trkpt lat="55.8275963" lon="48.9383452"><time>2021-04-17T09:56:30.590</time></trkpt><trkpt lat="55.8276175" lon="48.9382577"><time>2021-04-17T09:56:44.593</time></trkpt><trkpt lat="55.8276359" lon="48.9381790"><time>2021-04-17T09:56:51.590</time></trkpt><trkpt lat="55.8276766" lon="48.9381195"><time>2021-04-17T09:56:57.587</time></trkpt><trkpt lat="55.8277170" lon="48.9380601"><time>2021-04-17T09:57:04.583</time></trkpt><trkpt lat="55.8277634" lon="48.9380595"><time>2021-04-17T09:57:10.577</time></trkpt><trkpt lat="55.8278155" lon="48.9380603"><time>2021-04-17T09:57:15.580</time></trkpt><trkpt lat="55.8278630" lon="48.9380722"><time>2021-04-17T09:57:19.570</time></trkpt><trkpt lat="55.8279027" lon="48.9381097"><time>2021-04-17T09:57:23.567</time></trkpt><trkpt lat="55.8279558" lon="48.9381288"><time>2021-04-17T09:57:29.580</time></trkpt><trkpt lat="55.8280066" lon="48.9381422"><time>2021-04-17T09:57:36.577</time></trkpt><trkpt lat="55.8280498" lon="48.9381694"><time>2021-04-17T09:57:42.573</time></trkpt><trkpt lat="55.8280858" lon="48.9382256"><time>2021-04-17T09:57:50.577</time></trkpt><trkpt lat="55.8281342" lon="48.9382612"><time>2021-04-17T09:58:00.610</time></trkpt><trkpt lat="55.8281652" lon="48.9382014"><time>2021-04-17T09:58:08.713</time></trkpt><trkpt lat="55.8282086" lon="48.9381431"><time>2021-04-17T09:58:13.490</time></trkpt><trkpt lat="55.8282517" lon="48.9380945"><time>2021-04-17T09:58:18.573</time></trkpt><trkpt lat="55.8282852" lon="48.9380365"><time>2021-04-17T09:58:25.483</time></trkpt><trkpt lat="55.8283364" lon="48.9380398"><time>2021-04-17T09:58:32.570</time></trkpt><trkpt lat="55.8283881" lon="48.9380374"><time>2021-04-17T09:58:37.400</time></trkpt><trkpt lat="55.8284443" lon="48.9380356"><time>2021-04-17T09:58:41.690</time></trkpt><trkpt lat="55.8285097" lon="48.9380027"><time>2021-04-17T09:58:44.050</time></trkpt><trkpt lat="55.8285574" lon="48.9379831"><time>2021-04-17T09:58:45.683</time></trkpt><trkpt lat="55.8286027" lon="48.9379971"><time>2021-04-17T09:58:49.690</time></trkpt><trkpt lat="55.8286059" lon="48.9380113"><time>2021-04-17T09:58:50.793</time></trkpt><trkpt lat="55.8285543" lon="48.9380216"><time>2021-04-17T09:59:20.487</time></trkpt><trkpt lat="55.8285100" lon="48.9380491"><time>2021-04-17T09:59:29.437</time></trkpt><trkpt lat="55.8284719" lon="48.9380976"><time>2021-04-17T09:59:41.410</time></trkpt><trkpt lat="55.8284282" lon="48.9381535"><time>2021-04-17T10:00:07.860</time></trkpt><trkpt lat="55.8284108" lon="48.9382316"><time>2021-04-17T10:00:15.863</time></trkpt><trkpt lat="55.8284173" lon="48.9383245"><time>2021-04-17T10:00:27.410</time></trkpt><trkpt lat="55.8284356" lon="48.9384054"><time>2021-04-17T10:00:35.793</time></trkpt><trkpt lat="55.8284556" lon="48.9384927"><time>2021-04-17T10:00:39.543</time></trkpt><trkpt lat="55.8284727" lon="48.9385930"><time>2021-04-17T10:00:44.717</time></trkpt><trkpt lat="55.8284906" lon="48.9386698"><time>2021-04-17T10:00:48.773</time></trkpt><trkpt lat="55.8285114" lon="48.9387430"><time>2021-04-17T10:00:52.777</time></trkpt><trkpt lat="55.8285401" lon="48.9388186"><time>2021-04-17T10:00:57.780</time></trkpt><trkpt lat="55.8285721" lon="48.9388838"><time>2021-04-17T10:01:01.770</time></trkpt><trkpt lat="55.8285741" lon="48.9389860"><time>2021-04-17T10:01:10.780</time></trkpt><trkpt lat="55.8285966" lon="48.9390734"><time>2021-04-17T10:01:15.783</time></trkpt><trkpt lat="55.8286193" lon="48.9391468"><time>2021-04-17T10:01:18.783</time></trkpt><trkpt lat="55.8286436" lon="48.9392286"><time>2021-04-17T10:01:22.777</time></trkpt><trkpt lat="55.8286767" lon="48.9393111"><time>2021-04-17T10:01:26.783</time></trkpt><trkpt lat="55.8287077" lon="48.9393854"><time>2021-04-17T10:01:30.797</time></trkpt><trkpt lat="55.8287210" lon="48.9394662"><time>2021-04-17T10:01:34.800</time></trkpt><trkpt lat="55.8287401" lon="48.9395495"><time>2021-04-17T10:01:39.907</time></trkpt><trkpt lat="55.8287536" lon="48.9396282"><time>2021-04-17T10:01:43.790</time></trkpt><trkpt lat="55.8287886" lon="48.9396967"><time>2021-04-17T10:01:48.537</time></trkpt><trkpt lat="55.8288062" lon="48.9397766"><time>2021-04-17T10:01:52.497</time></trkpt><trkpt lat="55.8288238" lon="48.9398687"><time>2021-04-17T10:01:56.543</time></trkpt><trkpt lat="55.8288429" lon="48.9399590"><time>2021-04-17T10:02:00.600</time></trkpt><trkpt lat="55.8288441" lon="48.9400521"><time>2021-04-17T10:02:04.603</time></trkpt><trkpt lat="55.8288581" lon="48.9401301"><time>2021-04-17T10:02:07.883</time></trkpt><trkpt lat="55.8288788" lon="48.9402121"><time>2021-04-17T10:02:11.877</time></trkpt><trkpt lat="55.8289049" lon="48.9402904"><time>2021-04-17T10:02:15.880</time></trkpt><trkpt lat="55.8289168" lon="48.9403716"><time>2021-04-17T10:02:18.770</time></trkpt><trkpt lat="55.8289285" lon="48.9404613"><time>2021-04-17T10:02:22.717</time></trkpt><trkpt lat="55.8289366" lon="48.9405606"><time>2021-04-17T10:02:26.647</time></trkpt><trkpt lat="55.8289437" lon="48.9406427"><time>2021-04-17T10:02:29.490</time></trkpt><trkpt lat="55.8289489" lon="48.9407338"><time>2021-04-17T10:02:33.490</time></trkpt><trkpt lat="55.8289616" lon="48.9408187"><time>2021-04-17T10:02:37.497</time></trkpt><trkpt lat="55.8289716" lon="48.9408970"><time>2021-04-17T10:02:43.493</time></trkpt><trkpt lat="55.8290223" lon="48.9409158"><time>2021-04-17T10:02:51.397</time></trkpt><trkpt lat="55.8290553" lon="48.9409894"><time>2021-04-17T10:02:58.577</time></trkpt><trkpt lat="55.8290718" lon="48.9410684"><time>2021-04-17T10:03:02.490</time></trkpt><trkpt lat="55.8290845" lon="48.9411600"><time>2021-04-17T10:03:06.427</time></trkpt><trkpt lat="55.8291137" lon="48.9412353"><time>2021-04-17T10:03:10.847</time></trkpt><trkpt lat="55.8291435" lon="48.9413017"><time>2021-04-17T10:03:14.853</time></trkpt><trkpt lat="55.8291690" lon="48.9413683"><time>2021-04-17T10:03:17.857</time></trkpt><trkpt lat="55.8291948" lon="48.9414361"><time>2021-04-17T10:03:21.900</time></trkpt><trkpt lat="55.8292295" lon="48.9415018"><time>2021-04-17T10:03:24.580</time></trkpt><trkpt lat="55.8292483" lon="48.9415937"><time>2021-04-17T10:03:29.497</time></trkpt><trkpt lat="55.8292754" lon="48.9416735"><time>2021-04-17T10:03:33.493</time></trkpt><trkpt lat="55.8293091" lon="48.9417671"><time>2021-04-17T10:03:36.487</time></trkpt><trkpt lat="55.8293493" lon="48.9418524"><time>2021-04-17T10:03:39.487</time></trkpt><trkpt lat="55.8293806" lon="48.9419321"><time>2021-04-17T10:03:43.603</time></trkpt><trkpt lat="55.8294182" lon="48.9419955"><time>2021-04-17T10:03:46.443</time></trkpt><trkpt lat="55.8294549" lon="48.9420500"><time>2021-04-17T10:03:49.430</time></trkpt><trkpt lat="55.8294895" lon="48.9421081"><time>2021-04-17T10:03:52.490</time></trkpt><trkpt lat="55.8295243" lon="48.9421627"><time>2021-04-17T10:03:57.513</time></trkpt><trkpt lat="55.8295473" lon="48.9422343"><time>2021-04-17T10:04:01.490</time></trkpt><trkpt lat="55.8295671" lon="48.9423067"><time>2021-04-17T10:04:08.827</time></trkpt><trkpt lat="55.8296086" lon="48.9423586"><time>2021-04-17T10:04:16.627</time></trkpt><trkpt lat="55.8296366" lon="48.9424455"><time>2021-04-17T10:04:20.317</time></trkpt><trkpt lat="55.8296359" lon="48.9425282"><time>2021-04-17T10:04:22.670</time></trkpt><trkpt lat="55.8296433" lon="48.9425618"><time>2021-04-17T10:04:27.297</time></trkpt><trkpt lat="55.8296401" lon="48.9426131"><time>2021-04-17T10:04:31.553</time></trkpt><trkpt lat="55.8295953" lon="48.9426546"><time>2021-04-17T10:04:39.557</time></trkpt><trkpt lat="55.8295650" lon="48.9427266"><time>2021-04-17T10:04:45.553</time></trkpt><trkpt lat="55.8295369" lon="48.9428183"><time>2021-04-17T10:04:49.567</time></trkpt><trkpt lat="55.8295170" lon="48.9429007"><time>2021-04-17T10:04:52.557</time></trkpt><trkpt lat="55.8295041" lon="48.9429955"><time>2021-04-17T10:04:56.560</time></trkpt><trkpt lat="55.8294777" lon="48.9430808"><time>2021-04-17T10:05:00.557</time></trkpt><trkpt lat="55.8294507" lon="48.9431541"><time>2021-04-17T10:05:03.567</time></trkpt><trkpt lat="55.8294427" lon="48.9432389"><time>2021-04-17T10:05:06.840</time></trkpt><trkpt lat="55.8294263" lon="48.9433238"><time>2021-04-17T10:05:12.453</time></trkpt><trkpt lat="55.8293813" lon="48.9433391"><time>2021-04-17T10:05:19.513</time></trkpt><trkpt lat="55.8294031" lon="48.9434216"><time>2021-04-17T10:05:24.453</time></trkpt><trkpt lat="55.8293952" lon="48.9435103"><time>2021-04-17T10:05:30.833</time></trkpt><trkpt lat="55.8293849" lon="48.9435953"><time>2021-04-17T10:05:39.840</time></trkpt><trkpt lat="55.8293858" lon="48.9436823"><time>2021-04-17T10:05:45.553</time></trkpt><trkpt lat="55.8293661" lon="48.9437616"><time>2021-04-17T10:05:49.493</time></trkpt><trkpt lat="55.8293598" lon="48.9438615"><time>2021-04-17T10:05:54.487</time></trkpt><trkpt lat="55.8293471" lon="48.9439468"><time>2021-04-17T10:05:58.493</time></trkpt><trkpt lat="55.8293340" lon="48.9440268"><time>2021-04-17T10:06:04.390</time></trkpt><trkpt lat="55.8293272" lon="48.9441062"><time>2021-04-17T10:06:09.393</time></trkpt><trkpt lat="55.8293365" lon="48.9441876"><time>2021-04-17T10:06:13.397</time></trkpt><trkpt lat="55.8293543" lon="48.9442750"><time>2021-04-17T10:06:18.490</time></trkpt><trkpt lat="55.8293474" lon="48.9443779"><time>2021-04-17T10:06:23.497</time></trkpt><trkpt lat="55.8293440" lon="48.9444706"><time>2021-04-17T10:06:27.497</time></trkpt><trkpt lat="55.8293391" lon="48.9445598"><time>2021-04-17T10:06:30.487</time></trkpt><trkpt lat="55.8293238" lon="48.9446428"><time>2021-04-17T10:06:34.493</time></trkpt><trkpt lat="55.8292974" lon="48.9447389"><time>2021-04-17T10:06:41.567</time></trkpt><trkpt lat="55.8292840" lon="48.9448188"><time>2021-04-17T10:06:46.580</time></trkpt><trkpt lat="55.8292662" lon="48.9449044"><time>2021-04-17T10:06:50.583</time></trkpt><trkpt lat="55.8292519" lon="48.9449962"><time>2021-04-17T10:06:55.627</time></trkpt><trkpt lat="55.8292379" lon="48.9450852"><time>2021-04-17T10:07:01.487</time></trkpt><trkpt lat="55.8292323" lon="48.9452099"><time>2021-04-17T10:07:06.490</time></trkpt><trkpt lat="55.8292349" lon="48.9453008"><time>2021-04-17T10:07:09.500</time></trkpt><trkpt lat="55.8292355" lon="48.9453886"><time>2021-04-17T10:07:13.407</time></trkpt><trkpt lat="55.8292154" lon="48.9454874"><time>2021-04-17T10:07:19.497</time></trkpt><trkpt lat="55.8291974" lon="48.9455642"><time>2021-04-17T10:07:23.493</time></trkpt><trkpt lat="55.8291933" lon="48.9456544"><time>2021-04-17T10:07:28.487</time></trkpt><trkpt lat="55.8291825" lon="48.9457500"><time>2021-04-17T10:07:32.490</time></trkpt><trkpt lat="55.8291766" lon="48.9458522"><time>2021-04-17T10:07:36.490</time></trkpt><trkpt lat="55.8291546" lon="48.9459425"><time>2021-04-17T10:07:41.497</time></trkpt><trkpt lat="55.8291361" lon="48.9460396"><time>2021-04-17T10:07:44.397</time></trkpt><trkpt lat="55.8291222" lon="48.9461268"><time>2021-04-17T10:07:47.493</time></trkpt><trkpt lat="55.8291048" lon="48.9462122"><time>2021-04-17T10:07:51.607</time></trkpt><trkpt lat="55.8290914" lon="48.9462889"><time>2021-04-17T10:07:55.857</time></trkpt><trkpt lat="55.8290849" lon="48.9463917"><time>2021-04-17T10:07:59.963</time></trkpt><trkpt lat="55.8290850" lon="48.9464794"><time>2021-04-17T10:08:02.860</time></trkpt><trkpt lat="55.8290718" lon="48.9465578"><time>2021-04-17T10:08:05.850</time></trkpt><trkpt lat="55.8290456" lon="48.9466573"><time>2021-04-17T10:08:09.850</time></trkpt><trkpt lat="55.8290269" lon="48.9467484"><time>2021-04-17T10:08:12.853</time></trkpt><trkpt lat="55.8290116" lon="48.9468509"><time>2021-04-17T10:08:15.857</time></trkpt><trkpt lat="55.8289888" lon="48.9469467"><time>2021-04-17T10:08:18.853</time></trkpt><trkpt lat="55.8289762" lon="48.9470434"><time>2021-04-17T10:08:22.860</time></trkpt><trkpt lat="55.8289617" lon="48.9471379"><time>2021-04-17T10:08:26.863</time></trkpt><trkpt lat="55.8289545" lon="48.9472232"><time>2021-04-17T10:08:30.847</time></trkpt><trkpt lat="55.8289475" lon="48.9473069"><time>2021-04-17T10:08:34.850</time></trkpt><trkpt lat="55.8289547" lon="48.9473857"><time>2021-04-17T10:08:38.850</time></trkpt><trkpt lat="55.8289336" lon="48.9474710"><time>2021-04-17T10:08:42.857</time></trkpt><trkpt lat="55.8289268" lon="48.9475613"><time>2021-04-17T10:08:45.867</time></trkpt><trkpt lat="55.8289146" lon="48.9476451"><time>2021-04-17T10:08:48.847</time></trkpt><trkpt lat="55.8288955" lon="48.9477328"><time>2021-04-17T10:08:51.850</time></trkpt><trkpt lat="55.8288732" lon="48.9478299"><time>2021-04-17T10:08:55.837</time></trkpt><trkpt lat="55.8288594" lon="48.9479078"><time>2021-04-17T10:09:00.987</time></trkpt><trkpt lat="55.8288513" lon="48.9480077"><time>2021-04-17T10:09:06.833</time></trkpt><trkpt lat="55.8288346" lon="48.9480934"><time>2021-04-17T10:09:11.897</time></trkpt><trkpt lat="55.8288272" lon="48.9481730"><time>2021-04-17T10:09:14.853</time></trkpt><trkpt lat="55.8288221" lon="48.9482527"><time>2021-04-17T10:09:18.853</time></trkpt><trkpt lat="55.8288051" lon="48.9483373"><time>2021-04-17T10:09:22.973</time></trkpt><trkpt lat="55.8287799" lon="48.9484052"><time>2021-04-17T10:09:26.840</time></trkpt><trkpt lat="55.8287737" lon="48.9484920"><time>2021-04-17T10:09:30.843</time></trkpt><trkpt lat="55.8287887" lon="48.9485805"><time>2021-04-17T10:09:33.850</time></trkpt><trkpt lat="55.8287867" lon="48.9486816"><time>2021-04-17T10:09:37.843</time></trkpt><trkpt lat="55.8287794" lon="48.9487772"><time>2021-04-17T10:09:41.857</time></trkpt><trkpt lat="55.8287712" lon="48.9488624"><time>2021-04-17T10:09:46.687</time></trkpt><trkpt lat="55.8287312" lon="48.9489095"><time>2021-04-17T10:09:51.490</time></trkpt><trkpt lat="55.8286943" lon="48.9489677"><time>2021-04-17T10:09:56.480</time></trkpt><trkpt lat="55.8286524" lon="48.9490024"><time>2021-04-17T10:10:01.417</time></trkpt><trkpt lat="55.8286159" lon="48.9490557"><time>2021-04-17T10:10:06.490</time></trkpt><trkpt lat="55.8285805" lon="48.9491181"><time>2021-04-17T10:10:16.753</time></trkpt><trkpt lat="55.8285445" lon="48.9491723"><time>2021-04-17T10:10:25.767</time></trkpt><trkpt lat="55.8285049" lon="48.9492282"><time>2021-04-17T10:10:28.770</time></trkpt><trkpt lat="55.8284560" lon="48.9492440"><time>2021-04-17T10:10:33.757</time></trkpt><trkpt lat="55.8284129" lon="48.9492703"><time>2021-04-17T10:10:42.430</time></trkpt><trkpt lat="55.8284032" lon="48.9492654"><time>2021-04-17T10:10:44.357</time></trkpt><trkpt lat="55.8283904" lon="48.9493523"><time>2021-04-17T10:10:49.747</time></trkpt><trkpt lat="55.8284152" lon="48.9494236"><time>2021-04-17T10:10:53.780</time></trkpt><trkpt lat="55.8284499" lon="48.9494969"><time>2021-04-17T10:10:58.790</time></trkpt><trkpt lat="55.8284898" lon="48.9495601"><time>2021-04-17T10:11:02.777</time></trkpt><trkpt lat="55.8285087" lon="48.9496570"><time>2021-04-17T10:11:07.820</time></trkpt><trkpt lat="55.8285311" lon="48.9497306"><time>2021-04-17T10:11:10.490</time></trkpt><trkpt lat="55.8285391" lon="48.9498287"><time>2021-04-17T10:11:14.480</time></trkpt><trkpt lat="55.8285570" lon="48.9499088"><time>2021-04-17T10:11:18.617</time></trkpt><trkpt lat="55.8285932" lon="48.9499771"><time>2021-04-17T10:11:21.737</time></trkpt><trkpt lat="55.8286198" lon="48.9500551"><time>2021-04-17T10:11:24.743</time></trkpt><trkpt lat="55.8286544" lon="48.9501476"><time>2021-04-17T10:11:30.850</time></trkpt><trkpt lat="55.8286841" lon="48.9502084"><time>2021-04-17T10:11:34.703</time></trkpt><trkpt lat="55.8287031" lon="48.9502959"><time>2021-04-17T10:11:38.487</time></trkpt><trkpt lat="55.8287388" lon="48.9503672"><time>2021-04-17T10:11:41.487</time></trkpt><trkpt lat="55.8287705" lon="48.9504624"><time>2021-04-17T10:11:44.657</time></trkpt><trkpt lat="55.8287960" lon="48.9505452"><time>2021-04-17T10:11:47.490</time></trkpt><trkpt lat="55.8288356" lon="48.9505936"><time>2021-04-17T10:11:50.680</time></trkpt><trkpt lat="55.8288800" lon="48.9506457"><time>2021-04-17T10:11:53.490</time></trkpt><trkpt lat="55.8289154" lon="48.9507191"><time>2021-04-17T10:11:57.547</time></trkpt><trkpt lat="55.8289419" lon="48.9508063"><time>2021-04-17T10:12:01.490</time></trkpt><trkpt lat="55.8289822" lon="48.9508593"><time>2021-04-17T10:12:05.610</time></trkpt><trkpt lat="55.8290213" lon="48.9509327"><time>2021-04-17T10:12:09.487</time></trkpt><trkpt lat="55.8290595" lon="48.9509940"><time>2021-04-17T10:12:13.490</time></trkpt><trkpt lat="55.8290889" lon="48.9510544"><time>2021-04-17T10:12:17.487</time></trkpt><trkpt lat="55.8291079" lon="48.9511322"><time>2021-04-17T10:12:21.530</time></trkpt><trkpt lat="55.8291454" lon="48.9511941"><time>2021-04-17T10:12:26.587</time></trkpt><trkpt lat="55.8291738" lon="48.9512730"><time>2021-04-17T10:12:30.637</time></trkpt><trkpt lat="55.8292119" lon="48.9513394"><time>2021-04-17T10:12:34.853</time></trkpt><trkpt lat="55.8292512" lon="48.9513835"><time>2021-04-17T10:12:42.710</time></trkpt><trkpt lat="55.8292928" lon="48.9514271"><time>2021-04-17T10:12:45.627</time></trkpt><trkpt lat="55.8293324" lon="48.9514791"><time>2021-04-17T10:12:50.510</time></trkpt><trkpt lat="55.8293658" lon="48.9515413"><time>2021-04-17T10:12:54.480</time></trkpt><trkpt lat="55.8293994" lon="48.9516098"><time>2021-04-17T10:12:59.487</time></trkpt><trkpt lat="55.8294375" lon="48.9516580"><time>2021-04-17T10:13:03.487</time></trkpt><trkpt lat="55.8294670" lon="48.9517244"><time>2021-04-17T10:13:08.487</time></trkpt><trkpt lat="55.8294910" lon="48.9517936"><time>2021-04-17T10:13:14.487</time></trkpt><trkpt lat="55.8295223" lon="48.9518641"><time>2021-04-17T10:13:21.487</time></trkpt><trkpt lat="55.8295524" lon="48.9519440"><time>2021-04-17T10:13:25.493</time></trkpt><trkpt lat="55.8295842" lon="48.9520031"><time>2021-04-17T10:13:29.490</time></trkpt><trkpt lat="55.8296256" lon="48.9520592"><time>2021-04-17T10:13:32.600</time></trkpt><trkpt lat="55.8296608" lon="48.9521211"><time>2021-04-17T10:13:36.620</time></trkpt><trkpt lat="55.8297004" lon="48.9521822"><time>2021-04-17T10:13:40.617</time></trkpt><trkpt lat="55.8297152" lon="48.9522681"><time>2021-04-17T10:13:46.780</time></trkpt><trkpt lat="55.8297429" lon="48.9523574"><time>2021-04-17T10:13:50.507</time></trkpt><trkpt lat="55.8297674" lon="48.9524271"><time>2021-04-17T10:13:53.497</time></trkpt><trkpt lat="55.8297939" lon="48.9525126"><time>2021-04-17T10:13:57.397</time></trkpt><trkpt lat="55.8298001" lon="48.9525940"><time>2021-04-17T10:14:02.707</time></trkpt><trkpt lat="55.8297867" lon="48.9526777"><time>2021-04-17T10:14:05.570</time></trkpt><trkpt lat="55.8297923" lon="48.9527859"><time>2021-04-17T10:14:21.493</time></trkpt><trkpt lat="55.8298247" lon="48.9528697"><time>2021-04-17T10:14:26.493</time></trkpt><trkpt lat="55.8298589" lon="48.9529469"><time>2021-04-17T10:14:30.487</time></trkpt><trkpt lat="55.8299058" lon="48.9529938"><time>2021-04-17T10:14:34.493</time></trkpt><trkpt lat="55.8299232" lon="48.9530785"><time>2021-04-17T10:14:38.487</time></trkpt><trkpt lat="55.8299124" lon="48.9531770"><time>2021-04-17T10:14:44.607</time></trkpt><trkpt lat="55.8299273" lon="48.9532581"><time>2021-04-17T10:14:47.723</time></trkpt><trkpt lat="55.8299299" lon="48.9533515"><time>2021-04-17T10:14:51.753</time></trkpt><trkpt lat="55.8299502" lon="48.9534372"><time>2021-04-17T10:14:55.753</time></trkpt><trkpt lat="55.8299690" lon="48.9535152"><time>2021-04-17T10:14:59.753</time></trkpt><trkpt lat="55.8299979" lon="48.9535771"><time>2021-04-17T10:15:03.750</time></trkpt><trkpt lat="55.8300088" lon="48.9536695"><time>2021-04-17T10:15:07.660</time></trkpt><trkpt lat="55.8300352" lon="48.9537399"><time>2021-04-17T10:15:11.490</time></trkpt><trkpt lat="55.8300639" lon="48.9538200"><time>2021-04-17T10:15:15.487</time></trkpt><trkpt lat="55.8300891" lon="48.9538954"><time>2021-04-17T10:15:20.487</time></trkpt><trkpt lat="55.8301304" lon="48.9539401"><time>2021-04-17T10:15:26.530</time></trkpt><trkpt lat="55.8301553" lon="48.9540035"><time>2021-04-17T10:15:31.567</time></trkpt><trkpt lat="55.8301666" lon="48.9540116"><time>2021-04-17T10:15:33.530</time></trkpt><trkpt lat="55.8301461" lon="48.9540829"><time>2021-04-17T10:15:43.833</time></trkpt><trkpt lat="55.8301935" lon="48.9541110"><time>2021-04-17T10:15:52.727</time></trkpt><trkpt lat="55.8302350" lon="48.9541551"><time>2021-04-17T10:15:58.847</time></trkpt><trkpt lat="55.8302754" lon="48.9542031"><time>2021-04-17T10:16:05.850</time></trkpt><trkpt lat="55.8303209" lon="48.9542460"><time>2021-04-17T10:16:13.787</time></trkpt><trkpt lat="55.8303663" lon="48.9542699"><time>2021-04-17T10:16:17.567</time></trkpt><trkpt lat="55.8304100" lon="48.9543155"><time>2021-04-17T10:16:21.490</time></trkpt><trkpt lat="55.8304531" lon="48.9543621"><time>2021-04-17T10:16:26.397</time></trkpt><trkpt lat="55.8305041" lon="48.9543842"><time>2021-04-17T10:16:31.490</time></trkpt><trkpt lat="55.8305385" lon="48.9544430"><time>2021-04-17T10:16:35.380</time></trkpt><trkpt lat="55.8305850" lon="48.9544925"><time>2021-04-17T10:16:38.480</time></trkpt><trkpt lat="55.8306216" lon="48.9545481"><time>2021-04-17T10:16:43.457</time></trkpt><trkpt lat="55.8306575" lon="48.9545994"><time>2021-04-17T10:16:47.443</time></trkpt><trkpt lat="55.8306944" lon="48.9546485"><time>2021-04-17T10:16:50.490</time></trkpt><trkpt lat="55.8307336" lon="48.9547102"><time>2021-04-17T10:16:53.487</time></trkpt><trkpt lat="55.8307659" lon="48.9547738"><time>2021-04-17T10:16:56.490</time></trkpt><trkpt lat="55.8307881" lon="48.9548567"><time>2021-04-17T10:17:00.453</time></trkpt><trkpt lat="55.8308219" lon="48.9549190"><time>2021-04-17T10:17:04.657</time></trkpt><trkpt lat="55.8308461" lon="48.9550003"><time>2021-04-17T10:17:09.837</time></trkpt><trkpt lat="55.8308790" lon="48.9550695"><time>2021-04-17T10:17:13.850</time></trkpt><trkpt lat="55.8309079" lon="48.9551523"><time>2021-04-17T10:17:17.837</time></trkpt><trkpt lat="55.8309508" lon="48.9552000"><time>2021-04-17T10:17:20.620</time></trkpt><trkpt lat="55.8309809" lon="48.9552919"><time>2021-04-17T10:17:24.483</time></trkpt><trkpt lat="55.8309952" lon="48.9553707"><time>2021-04-17T10:17:27.490</time></trkpt><trkpt lat="55.8310067" lon="48.9554631"><time>2021-04-17T10:17:30.487</time></trkpt><trkpt lat="55.8310400" lon="48.9555406"><time>2021-04-17T10:17:34.487</time></trkpt><trkpt lat="55.8310701" lon="48.9556279"><time>2021-04-17T10:17:40.493</time></trkpt><trkpt lat="55.8310879" lon="48.9557172"><time>2021-04-17T10:17:46.487</time></trkpt><trkpt lat="55.8311107" lon="48.9557939"><time>2021-04-17T10:17:50.483</time></trkpt><trkpt lat="55.8311314" lon="48.9558737"><time>2021-04-17T10:17:54.490</time></trkpt><trkpt lat="55.8311452" lon="48.9559584"><time>2021-04-17T10:17:59.497</time></trkpt><trkpt lat="55.8311089" lon="48.9560425"><time>2021-04-17T10:18:05.490</time></trkpt><trkpt lat="55.8311106" lon="48.9561265"><time>2021-04-17T10:18:13.613</time></trkpt><trkpt lat="55.8311324" lon="48.9562028"><time>2021-04-17T10:18:19.490</time></trkpt><trkpt lat="55.8311748" lon="48.9562332"><time>2021-04-17T10:18:24.487</time></trkpt><trkpt lat="55.8311849" lon="48.9563170"><time>2021-04-17T10:18:39.397</time></trkpt><trkpt lat="55.8312252" lon="48.9563554"><time>2021-04-17T10:18:46.487</time></trkpt><trkpt lat="55.8312666" lon="48.9563912"><time>2021-04-17T10:18:54.483</time></trkpt><trkpt lat="55.8312845" lon="48.9564704"><time>2021-04-17T10:19:00.563</time></trkpt><trkpt lat="55.8312738" lon="48.9565533"><time>2021-04-17T10:19:09.490</time></trkpt><trkpt lat="55.8312790" lon="48.9566334"><time>2021-04-17T10:19:17.863</time></trkpt><trkpt lat="55.8313135" lon="48.9567106"><time>2021-04-17T10:19:24.853</time></trkpt><trkpt lat="55.8313502" lon="48.9567744"><time>2021-04-17T10:19:28.593</time></trkpt><trkpt lat="55.8313908" lon="48.9568217"><time>2021-04-17T10:19:34.493</time></trkpt><trkpt lat="55.8313956" lon="48.9569019"><time>2021-04-17T10:19:40.483</time></trkpt><trkpt lat="55.8313715" lon="48.9569789"><time>2021-04-17T10:19:47.490</time></trkpt><trkpt lat="55.8313815" lon="48.9570633"><time>2021-04-17T10:19:57.483</time></trkpt><trkpt lat="55.8313904" lon="48.9571464"><time>2021-04-17T10:20:03.490</time></trkpt><trkpt lat="55.8314085" lon="48.9572262"><time>2021-04-17T10:20:11.490</time></trkpt><trkpt lat="55.8314315" lon="48.9573227"><time>2021-04-17T10:20:17.490</time></trkpt><trkpt lat="55.8314740" lon="48.9573592"><time>2021-04-17T10:20:26.830</time></trkpt><trkpt lat="55.8314950" lon="48.9572835"><time>2021-04-17T10:20:34.877</time></trkpt><trkpt lat="55.8315584" lon="48.9572758"><time>2021-04-17T10:20:51.860</time></trkpt><trkpt lat="55.8316016" lon="48.9572350"><time>2021-04-17T10:21:10.487</time></trkpt><trkpt lat="55.8316476" lon="48.9572214"><time>2021-04-17T10:21:15.490</time></trkpt><trkpt lat="55.8316972" lon="48.9572148"><time>2021-04-17T10:21:19.490</time></trkpt><trkpt lat="55.8317419" lon="48.9572404"><time>2021-04-17T10:21:24.487</time></trkpt><trkpt lat="55.8317875" lon="48.9572219"><time>2021-04-17T10:21:29.590</time></trkpt><trkpt lat="55.8318196" lon="48.9571609"><time>2021-04-17T10:21:35.703</time></trkpt><trkpt lat="55.8318552" lon="48.9571020"><time>2021-04-17T10:21:40.857</time></trkpt><trkpt lat="55.8319009" lon="48.9570515"><time>2021-04-17T10:21:45.577</time></trkpt><trkpt lat="55.8319314" lon="48.9569817"><time>2021-04-17T10:21:48.397</time></trkpt><trkpt lat="55.8319643" lon="48.9569176"><time>2021-04-17T10:21:53.490</time></trkpt><trkpt lat="55.8319838" lon="48.9568415"><time>2021-04-17T10:21:58.483</time></trkpt><trkpt lat="55.8319810" lon="48.9567491"><time>2021-04-17T10:22:04.383</time></trkpt><trkpt lat="55.8319805" lon="48.9567494"><time>2021-04-17T10:22:07.457</time></trkpt><trkpt lat="55.8320330" lon="48.9567597"><time>2021-04-17T10:22:13.397</time></trkpt><trkpt lat="55.8320752" lon="48.9568086"><time>2021-04-17T10:22:19.500</time></trkpt><trkpt lat="55.8321266" lon="48.9568512"><time>2021-04-17T10:22:24.577</time></trkpt><trkpt lat="55.8321695" lon="48.9569149"><time>2021-04-17T10:22:30.487</time></trkpt><trkpt lat="55.8321984" lon="48.9569873"><time>2021-04-17T10:22:35.487</time></trkpt><trkpt lat="55.8322288" lon="48.9570539"><time>2021-04-17T10:22:43.597</time></trkpt><trkpt lat="55.8322805" lon="48.9570596"><time>2021-04-17T10:22:49.487</time></trkpt><trkpt lat="55.8323122" lon="48.9571207"><time>2021-04-17T10:22:54.490</time></trkpt><trkpt lat="55.8323588" lon="48.9571766"><time>2021-04-17T10:23:00.490</time></trkpt><trkpt lat="55.8323980" lon="48.9572378"><time>2021-04-17T10:23:05.490</time></trkpt><trkpt lat="55.8324081" lon="48.9573217"><time>2021-04-17T10:23:13.613</time></trkpt><trkpt lat="55.8323862" lon="48.9573917"><time>2021-04-17T10:23:18.490</time></trkpt><trkpt lat="55.8323902" lon="48.9574753"><time>2021-04-17T10:23:23.480</time></trkpt><trkpt lat="55.8323863" lon="48.9575672"><time>2021-04-17T10:23:28.483</time></trkpt><trkpt lat="55.8323842" lon="48.9576593"><time>2021-04-17T10:23:31.490</time></trkpt><trkpt lat="55.8323956" lon="48.9577523"><time>2021-04-17T10:23:35.490</time></trkpt><trkpt lat="55.8323739" lon="48.9578401"><time>2021-04-17T10:23:39.487</time></trkpt><trkpt lat="55.8324020" lon="48.9579230"><time>2021-04-17T10:23:44.583</time></trkpt><trkpt lat="55.8324156" lon="48.9579997"><time>2021-04-17T10:23:47.760</time></trkpt><trkpt lat="55.8324599" lon="48.9580560"><time>2021-04-17T10:23:52.757</time></trkpt><trkpt lat="55.8325066" lon="48.9581016"><time>2021-04-17T10:23:56.593</time></trkpt><trkpt lat="55.8325445" lon="48.9581466"><time>2021-04-17T10:23:59.487</time></trkpt><trkpt lat="55.8325742" lon="48.9582249"><time>2021-04-17T10:24:03.490</time></trkpt><trkpt lat="55.8325969" lon="48.9583037"><time>2021-04-17T10:24:06.603</time></trkpt><trkpt lat="55.8326371" lon="48.9583851"><time>2021-04-17T10:24:09.490</time></trkpt><trkpt lat="55.8326708" lon="48.9584694"><time>2021-04-17T10:24:13.487</time></trkpt><trkpt lat="55.8326953" lon="48.9585372"><time>2021-04-17T10:24:17.487</time></trkpt><trkpt lat="55.8327217" lon="48.9586263"><time>2021-04-17T10:24:21.387</time></trkpt><trkpt lat="55.8327376" lon="48.9587039"><time>2021-04-17T10:24:24.607</time></trkpt><trkpt lat="55.8327749" lon="48.9587762"><time>2021-04-17T10:24:28.487</time></trkpt><trkpt lat="55.8328093" lon="48.9588412"><time>2021-04-17T10:24:32.483</time></trkpt><trkpt lat="55.8328481" lon="48.9589346"><time>2021-04-17T10:24:40.513</time></trkpt><trkpt lat="55.8328775" lon="48.9590108"><time>2021-04-17T10:24:44.487</time></trkpt><trkpt lat="55.8329171" lon="48.9590800"><time>2021-04-17T10:24:48.607</time></trkpt><trkpt lat="55.8329578" lon="48.9591429"><time>2021-04-17T10:24:52.613</time></trkpt><trkpt lat="55.8330064" lon="48.9591533"><time>2021-04-17T10:24:58.857</time></trkpt><trkpt lat="55.8330483" lon="48.9591972"><time>2021-04-17T10:25:03.867</time></trkpt><trkpt lat="55.8330947" lon="48.9591737"><time>2021-04-17T10:25:22.483</time></trkpt><trkpt lat="55.8331413" lon="48.9591789"><time>2021-04-17T10:25:52.513</time></trkpt><trkpt lat="55.8330991" lon="48.9591496"><time>2021-04-17T10:28:47.487</time></trkpt><trkpt lat="55.8330535" lon="48.9591336"><time>2021-04-17T10:29:09.487</time></trkpt><trkpt lat="55.8330000" lon="48.9591158"><time>2021-04-17T10:29:52.490</time></trkpt><trkpt lat="55.8330006" lon="48.9592094"><time>2021-04-17T10:33:00.413</time></trkpt><trkpt lat="55.8330256" lon="48.9592862"><time>2021-04-17T10:33:07.497</time></trkpt><trkpt lat="55.8330412" lon="48.9593718"><time>2021-04-17T10:33:13.497</time></trkpt><trkpt lat="55.8330250" lon="48.9594550"><time>2021-04-17T10:33:17.497</time></trkpt><trkpt lat="55.8330107" lon="48.9595310"><time>2021-04-17T10:33:21.493</time></trkpt><trkpt lat="55.8329895" lon="48.9596163"><time>2021-04-17T10:33:29.597</time></trkpt><trkpt lat="55.8329647" lon="48.9596932"><time>2021-04-17T10:33:33.630</time></trkpt><trkpt lat="55.8329540" lon="48.9597827"><time>2021-04-17T10:33:37.757</time></trkpt><trkpt lat="55.8329660" lon="48.9598777"><time>2021-04-17T10:33:42.490</time></trkpt><trkpt lat="55.8329685" lon="48.9599710"><time>2021-04-17T10:33:46.417</time></trkpt><trkpt lat="55.8329722" lon="48.9600617"><time>2021-04-17T10:33:50.490</time></trkpt><trkpt lat="55.8329886" lon="48.9601536"><time>2021-04-17T10:33:54.597</time></trkpt><trkpt lat="55.8329951" lon="48.9602493"><time>2021-04-17T10:33:59.490</time></trkpt><trkpt lat="55.8330021" lon="48.9603318"><time>2021-04-17T10:34:03.487</time></trkpt><trkpt lat="55.8330066" lon="48.9604146"><time>2021-04-17T10:34:06.490</time></trkpt><trkpt lat="55.8330082" lon="48.9605087"><time>2021-04-17T10:34:10.420</time></trkpt><trkpt lat="55.8330222" lon="48.9606044"><time>2021-04-17T10:34:14.487</time></trkpt><trkpt lat="55.8330350" lon="48.9607049"><time>2021-04-17T10:34:18.490</time></trkpt><trkpt lat="55.8330411" lon="48.9608050"><time>2021-04-17T10:34:22.490</time></trkpt><trkpt lat="55.8330569" lon="48.9608930"><time>2021-04-17T10:34:27.393</time></trkpt><trkpt lat="55.8330787" lon="48.9609663"><time>2021-04-17T10:34:32.493</time></trkpt><trkpt lat="55.8331173" lon="48.9610263"><time>2021-04-17T10:34:38.580</time></trkpt><trkpt lat="55.8331494" lon="48.9610967"><time>2021-04-17T10:34:43.853</time></trkpt><trkpt lat="55.8331900" lon="48.9611368"><time>2021-04-17T10:34:50.633</time></trkpt><trkpt lat="55.8332321" lon="48.9611725"><time>2021-04-17T10:34:53.447</time></trkpt><trkpt lat="55.8332815" lon="48.9612178"><time>2021-04-17T10:34:57.383</time></trkpt><trkpt lat="55.8333290" lon="48.9612675"><time>2021-04-17T10:35:01.487</time></trkpt><trkpt lat="55.8333482" lon="48.9613397"><time>2021-04-17T10:35:06.490</time></trkpt><trkpt lat="55.8333721" lon="48.9614247"><time>2021-04-17T10:35:14.597</time></trkpt><trkpt lat="55.8333743" lon="48.9615102"><time>2021-04-17T10:35:17.397</time></trkpt><trkpt lat="55.8333893" lon="48.9615923"><time>2021-04-17T10:35:20.603</time></trkpt><trkpt lat="55.8333992" lon="48.9616767"><time>2021-04-17T10:35:24.497</time></trkpt><trkpt lat="55.8334122" lon="48.9617706"><time>2021-04-17T10:35:28.490</time></trkpt><trkpt lat="55.8334396" lon="48.9618431"><time>2021-04-17T10:35:31.377</time></trkpt><trkpt lat="55.8334692" lon="48.9619297"><time>2021-04-17T10:35:35.493</time></trkpt><trkpt lat="55.8334969" lon="48.9620150"><time>2021-04-17T10:35:38.487</time></trkpt><trkpt lat="55.8335186" lon="48.9620896"><time>2021-04-17T10:35:41.390</time></trkpt><trkpt lat="55.8335371" lon="48.9621801"><time>2021-04-17T10:35:44.863</time></trkpt><trkpt lat="55.8335599" lon="48.9622499"><time>2021-04-17T10:35:46.867</time></trkpt><trkpt lat="55.8335859" lon="48.9623377"><time>2021-04-17T10:35:49.867</time></trkpt><trkpt lat="55.8336036" lon="48.9624257"><time>2021-04-17T10:35:52.870</time></trkpt><trkpt lat="55.8336182" lon="48.9625272"><time>2021-04-17T10:35:56.870</time></trkpt><trkpt lat="55.8336382" lon="48.9626056"><time>2021-04-17T10:35:59.867</time></trkpt><trkpt lat="55.8336625" lon="48.9626876"><time>2021-04-17T10:36:02.867</time></trkpt><trkpt lat="55.8336804" lon="48.9627762"><time>2021-04-17T10:36:05.867</time></trkpt><trkpt lat="55.8336964" lon="48.9628546"><time>2021-04-17T10:36:07.870</time></trkpt><trkpt lat="55.8336930" lon="48.9629555"><time>2021-04-17T10:36:10.870</time></trkpt><trkpt lat="55.8336813" lon="48.9630445"><time>2021-04-17T10:36:13.867</time></trkpt><trkpt lat="55.8336889" lon="48.9631403"><time>2021-04-17T10:36:17.857</time></trkpt><trkpt lat="55.8336922" lon="48.9632301"><time>2021-04-17T10:36:21.870</time></trkpt><trkpt lat="55.8336955" lon="48.9633176"><time>2021-04-17T10:36:26.867</time></trkpt><trkpt lat="55.8336823" lon="48.9634375"><time>2021-04-17T10:36:33.877</time></trkpt><trkpt lat="55.8336856" lon="48.9635418"><time>2021-04-17T10:36:37.873</time></trkpt><trkpt lat="55.8336778" lon="48.9636255"><time>2021-04-17T10:36:42.880</time></trkpt><trkpt lat="55.8336778" lon="48.9637057"><time>2021-04-17T10:36:47.877</time></trkpt><trkpt lat="55.8336818" lon="48.9637995"><time>2021-04-17T10:36:52.870</time></trkpt><trkpt lat="55.8336383" lon="48.9638675"><time>2021-04-17T10:36:59.880</time></trkpt><trkpt lat="55.8335990" lon="48.9639288"><time>2021-04-17T10:37:06.487</time></trkpt><trkpt lat="55.8335575" lon="48.9639710"><time>2021-04-17T10:37:10.483</time></trkpt><trkpt lat="55.8335205" lon="48.9640167"><time>2021-04-17T10:37:13.717</time></trkpt><trkpt lat="55.8334769" lon="48.9640525"><time>2021-04-17T10:37:20.713</time></trkpt><trkpt lat="55.8334286" lon="48.9639906"><time>2021-04-17T10:37:29.793</time></trkpt><trkpt lat="55.8333915" lon="48.9640033"><time>2021-04-17T10:37:33.387</time></trkpt><trkpt lat="55.8333785" lon="48.9640111"><time>2021-04-17T10:37:33.753</time></trkpt><trkpt lat="55.8333382" lon="48.9640511"><time>2021-04-17T10:37:36.760</time></trkpt><trkpt lat="55.8333082" lon="48.9641154"><time>2021-04-17T10:37:38.747</time></trkpt><trkpt lat="55.8332745" lon="48.9641991"><time>2021-04-17T10:37:41.763</time></trkpt><trkpt lat="55.8332829" lon="48.9642820"><time>2021-04-17T10:37:44.767</time></trkpt><trkpt lat="55.8333285" lon="48.9642738"><time>2021-04-17T10:37:53.377</time></trkpt><trkpt lat="55.8333710" lon="48.9642458"><time>2021-04-17T10:38:00.743</time></trkpt><trkpt lat="55.8334207" lon="48.9642182"><time>2021-04-17T10:38:32.590</time></trkpt><trkpt lat="55.8334526" lon="48.9641491"><time>2021-04-17T10:38:50.390</time></trkpt><trkpt lat="55.8334687" lon="48.9640613"><time>2021-04-17T10:38:55.487</time></trkpt><trkpt lat="55.8334637" lon="48.9639707"><time>2021-04-17T10:39:00.510</time></trkpt><trkpt lat="55.8334577" lon="48.9638648"><time>2021-04-17T10:39:09.610</time></trkpt><trkpt lat="55.8334591" lon="48.9637762"><time>2021-04-17T10:39:12.607</time></trkpt><trkpt lat="55.8334754" lon="48.9636661"><time>2021-04-17T10:39:19.750</time></trkpt><trkpt lat="55.8334985" lon="48.9635920"><time>2021-04-17T10:39:23.757</time></trkpt><trkpt lat="55.8335096" lon="48.9635104"><time>2021-04-17T10:39:27.487</time></trkpt><trkpt lat="55.8335296" lon="48.9634252"><time>2021-04-17T10:39:32.490</time></trkpt><trkpt lat="55.8335582" lon="48.9633361"><time>2021-04-17T10:39:36.490</time></trkpt><trkpt lat="55.8335713" lon="48.9632459"><time>2021-04-17T10:39:40.483</time></trkpt><trkpt lat="55.8335948" lon="48.9631641"><time>2021-04-17T10:39:45.523</time></trkpt><trkpt lat="55.8336127" lon="48.9630848"><time>2021-04-17T10:39:50.493</time></trkpt><trkpt lat="55.8336187" lon="48.9629899"><time>2021-04-17T10:39:54.487</time></trkpt><trkpt lat="55.8336184" lon="48.9629001"><time>2021-04-17T10:39:59.417</time></trkpt><trkpt lat="55.8336258" lon="48.9628129"><time>2021-04-17T10:40:04.443</time></trkpt><trkpt lat="55.8336480" lon="48.9627391"><time>2021-04-17T10:40:08.507</time></trkpt><trkpt lat="55.8336592" lon="48.9626508"><time>2021-04-17T10:40:13.487</time></trkpt><trkpt lat="55.8336478" lon="48.9625663"><time>2021-04-17T10:40:19.683</time></trkpt><trkpt lat="55.8336427" lon="48.9624662"><time>2021-04-17T10:40:26.693</time></trkpt><trkpt lat="55.8336738" lon="48.9623998"><time>2021-04-17T10:40:30.777</time></trkpt><trkpt lat="55.8337165" lon="48.9623533"><time>2021-04-17T10:40:34.607</time></trkpt><trkpt lat="55.8337707" lon="48.9623401"><time>2021-04-17T10:40:39.630</time></trkpt><trkpt lat="55.8338129" lon="48.9622906"><time>2021-04-17T10:40:44.490</time></trkpt><trkpt lat="55.8338479" lon="48.9622299"><time>2021-04-17T10:40:48.497</time></trkpt><trkpt lat="55.8338899" lon="48.9621806"><time>2021-04-17T10:40:52.483</time></trkpt><trkpt lat="55.8339170" lon="48.9621123"><time>2021-04-17T10:40:55.490</time></trkpt><trkpt lat="55.8339445" lon="48.9620433"><time>2021-04-17T10:40:58.490</time></trkpt><trkpt lat="55.8339582" lon="48.9619354"><time>2021-04-17T10:41:02.823</time></trkpt><trkpt lat="55.8339712" lon="48.9618478"><time>2021-04-17T10:41:05.820</time></trkpt><trkpt lat="55.8339834" lon="48.9617673"><time>2021-04-17T10:41:08.490</time></trkpt><trkpt lat="55.8339962" lon="48.9616841"><time>2021-04-17T10:41:11.413</time></trkpt><trkpt lat="55.8340165" lon="48.9615941"><time>2021-04-17T10:41:15.490</time></trkpt><trkpt lat="55.8340396" lon="48.9615249"><time>2021-04-17T10:41:20.603</time></trkpt><trkpt lat="55.8340501" lon="48.9614471"><time>2021-04-17T10:41:27.763</time></trkpt><trkpt lat="55.8340639" lon="48.9613562"><time>2021-04-17T10:41:32.887</time></trkpt><trkpt lat="55.8340544" lon="48.9612774"><time>2021-04-17T10:41:37.767</time></trkpt><trkpt lat="55.8340561" lon="48.9611915"><time>2021-04-17T10:41:41.757</time></trkpt><trkpt lat="55.8340776" lon="48.9611087"><time>2021-04-17T10:41:46.397</time></trkpt><trkpt lat="55.8340959" lon="48.9610185"><time>2021-04-17T10:41:50.607</time></trkpt><trkpt lat="55.8341151" lon="48.9609391"><time>2021-04-17T10:41:53.537</time></trkpt><trkpt lat="55.8340986" lon="48.9608524"><time>2021-04-17T10:41:57.490</time></trkpt><trkpt lat="55.8340885" lon="48.9607494"><time>2021-04-17T10:42:01.380</time></trkpt><trkpt lat="55.8340647" lon="48.9606783"><time>2021-04-17T10:42:05.393</time></trkpt><trkpt lat="55.8340744" lon="48.9605905"><time>2021-04-17T10:42:09.497</time></trkpt><trkpt lat="55.8340819" lon="48.9605117"><time>2021-04-17T10:42:12.490</time></trkpt><trkpt lat="55.8340763" lon="48.9604135"><time>2021-04-17T10:42:16.487</time></trkpt><trkpt lat="55.8340505" lon="48.9603299"><time>2021-04-17T10:42:19.490</time></trkpt><trkpt lat="55.8340286" lon="48.9602584"><time>2021-04-17T10:42:22.487</time></trkpt><trkpt lat="55.8340358" lon="48.9601646"><time>2021-04-17T10:42:28.580</time></trkpt><trkpt lat="55.8340259" lon="48.9600830"><time>2021-04-17T10:42:32.587</time></trkpt><trkpt lat="55.8340064" lon="48.9600012"><time>2021-04-17T10:42:35.597</time></trkpt><trkpt lat="55.8340036" lon="48.9599137"><time>2021-04-17T10:42:38.720</time></trkpt><trkpt lat="55.8340161" lon="48.9598130"><time>2021-04-17T10:42:41.607</time></trkpt><trkpt lat="55.8340238" lon="48.9597271"><time>2021-04-17T10:42:44.597</time></trkpt><trkpt lat="55.8340332" lon="48.9596349"><time>2021-04-17T10:42:47.490</time></trkpt><trkpt lat="55.8340231" lon="48.9595537"><time>2021-04-17T10:42:50.487</time></trkpt><trkpt lat="55.8340233" lon="48.9594604"><time>2021-04-17T10:42:53.490</time></trkpt><trkpt lat="55.8340338" lon="48.9593535"><time>2021-04-17T10:42:56.493</time></trkpt><trkpt lat="55.8340575" lon="48.9592841"><time>2021-04-17T10:42:58.403</time></trkpt><trkpt lat="55.8340721" lon="48.9592021"><time>2021-04-17T10:43:01.497</time></trkpt><trkpt lat="55.8340965" lon="48.9591173"><time>2021-04-17T10:43:04.493</time></trkpt><trkpt lat="55.8341281" lon="48.9590393"><time>2021-04-17T10:43:07.610</time></trkpt><trkpt lat="55.8341523" lon="48.9589610"><time>2021-04-17T10:43:10.483</time></trkpt><trkpt lat="55.8341739" lon="48.9588631"><time>2021-04-17T10:43:13.487</time></trkpt><trkpt lat="55.8341896" lon="48.9587781"><time>2021-04-17T10:43:17.417</time></trkpt><trkpt lat="55.8341887" lon="48.9586897"><time>2021-04-17T10:43:20.487</time></trkpt><trkpt lat="55.8341928" lon="48.9585912"><time>2021-04-17T10:43:23.493</time></trkpt><trkpt lat="55.8341799" lon="48.9585043"><time>2021-04-17T10:43:26.490</time></trkpt><trkpt lat="55.8341928" lon="48.9584249"><time>2021-04-17T10:43:29.510</time></trkpt><trkpt lat="55.8342266" lon="48.9583487"><time>2021-04-17T10:43:31.490</time></trkpt><trkpt lat="55.8342449" lon="48.9582428"><time>2021-04-17T10:43:34.387</time></trkpt><trkpt lat="55.8342663" lon="48.9581553"><time>2021-04-17T10:43:37.600</time></trkpt><trkpt lat="55.8342956" lon="48.9580825"><time>2021-04-17T10:43:39.493</time></trkpt><trkpt lat="55.8343215" lon="48.9579814"><time>2021-04-17T10:43:42.487</time></trkpt><trkpt lat="55.8343490" lon="48.9578773"><time>2021-04-17T10:43:45.657</time></trkpt><trkpt lat="55.8343540" lon="48.9577966"><time>2021-04-17T10:43:47.617</time></trkpt><trkpt lat="55.8343612" lon="48.9577035"><time>2021-04-17T10:43:49.643</time></trkpt><trkpt lat="55.8343667" lon="48.9576143"><time>2021-04-17T10:43:51.620</time></trkpt><trkpt lat="55.8343593" lon="48.9575234"><time>2021-04-17T10:43:53.607</time></trkpt><trkpt lat="55.8343584" lon="48.9574257"><time>2021-04-17T10:43:55.377</time></trkpt><trkpt lat="55.8343568" lon="48.9573443"><time>2021-04-17T10:43:57.490</time></trkpt><trkpt lat="55.8343650" lon="48.9572486"><time>2021-04-17T10:43:59.497</time></trkpt><trkpt lat="55.8343757" lon="48.9571552"><time>2021-04-17T10:44:01.500</time></trkpt><trkpt lat="55.8343931" lon="48.9570672"><time>2021-04-17T10:44:03.493</time></trkpt><trkpt lat="55.8344050" lon="48.9569738"><time>2021-04-17T10:44:05.493</time></trkpt><trkpt lat="55.8344129" lon="48.9568795"><time>2021-04-17T10:44:08.487</time></trkpt><trkpt lat="55.8344215" lon="48.9567864"><time>2021-04-17T10:44:11.497</time></trkpt><trkpt lat="55.8344359" lon="48.9566907"><time>2021-04-17T10:44:14.490</time></trkpt><trkpt lat="55.8344594" lon="48.9566019"><time>2021-04-17T10:44:18.490</time></trkpt><trkpt lat="55.8344754" lon="48.9565051"><time>2021-04-17T10:44:21.497</time></trkpt><trkpt lat="55.8344837" lon="48.9564175"><time>2021-04-17T10:44:24.487</time></trkpt><trkpt lat="55.8344879" lon="48.9563144"><time>2021-04-17T10:44:27.490</time></trkpt><trkpt lat="55.8345044" lon="48.9562206"><time>2021-04-17T10:44:30.480</time></trkpt><trkpt lat="55.8345297" lon="48.9561085"><time>2021-04-17T10:44:33.490</time></trkpt><trkpt lat="55.8345506" lon="48.9559963"><time>2021-04-17T10:44:36.487</time></trkpt><trkpt lat="55.8345664" lon="48.9559125"><time>2021-04-17T10:44:38.590</time></trkpt><trkpt lat="55.8345830" lon="48.9558310"><time>2021-04-17T10:44:40.597</time></trkpt><trkpt lat="55.8345956" lon="48.9557468"><time>2021-04-17T10:44:42.543</time></trkpt><trkpt lat="55.8346025" lon="48.9556618"><time>2021-04-17T10:44:44.487</time></trkpt><trkpt lat="55.8346176" lon="48.9555470"><time>2021-04-17T10:44:47.590</time></trkpt><trkpt lat="55.8346316" lon="48.9554662"><time>2021-04-17T10:44:49.600</time></trkpt><trkpt lat="55.8346521" lon="48.9553702"><time>2021-04-17T10:44:51.613</time></trkpt><trkpt lat="55.8346644" lon="48.9552558"><time>2021-04-17T10:44:54.600</time></trkpt><trkpt lat="55.8346740" lon="48.9551733"><time>2021-04-17T10:44:56.717</time></trkpt><trkpt lat="55.8346859" lon="48.9550889"><time>2021-04-17T10:44:58.490</time></trkpt><trkpt lat="55.8346817" lon="48.9550068"><time>2021-04-17T10:45:01.490</time></trkpt><trkpt lat="55.8346726" lon="48.9549191"><time>2021-04-17T10:45:04.493</time></trkpt><trkpt lat="55.8346690" lon="48.9548389"><time>2021-04-17T10:45:07.487</time></trkpt><trkpt lat="55.8346573" lon="48.9547573"><time>2021-04-17T10:45:10.490</time></trkpt><trkpt lat="55.8346597" lon="48.9546555"><time>2021-04-17T10:45:14.487</time></trkpt><trkpt lat="55.8346628" lon="48.9545698"><time>2021-04-17T10:45:17.497</time></trkpt><trkpt lat="55.8346569" lon="48.9544658"><time>2021-04-17T10:45:21.490</time></trkpt><trkpt lat="55.8346425" lon="48.9543892"><time>2021-04-17T10:45:25.493</time></trkpt><trkpt lat="55.8346460" lon="48.9542848"><time>2021-04-17T10:45:29.497</time></trkpt><trkpt lat="55.8346466" lon="48.9542044"><time>2021-04-17T10:45:32.490</time></trkpt><trkpt lat="55.8346376" lon="48.9541026"><time>2021-04-17T10:45:36.493</time></trkpt><trkpt lat="55.8346409" lon="48.9540081"><time>2021-04-17T10:45:39.493</time></trkpt><trkpt lat="55.8346428" lon="48.9539130"><time>2021-04-17T10:45:42.497</time></trkpt><trkpt lat="55.8346321" lon="48.9538308"><time>2021-04-17T10:45:45.490</time></trkpt><trkpt lat="55.8346267" lon="48.9537268"><time>2021-04-17T10:45:49.487</time></trkpt><trkpt lat="55.8346330" lon="48.9536451"><time>2021-04-17T10:45:52.580</time></trkpt><trkpt lat="55.8346337" lon="48.9535488"><time>2021-04-17T10:45:55.587</time></trkpt><trkpt lat="55.8346571" lon="48.9534524"><time>2021-04-17T10:45:59.843</time></trkpt><trkpt lat="55.8346718" lon="48.9533517"><time>2021-04-17T10:46:02.863</time></trkpt><trkpt lat="55.8346733" lon="48.9532653"><time>2021-04-17T10:46:05.637</time></trkpt><trkpt lat="55.8346838" lon="48.9531701"><time>2021-04-17T10:46:09.490</time></trkpt><trkpt lat="55.8346961" lon="48.9530733"><time>2021-04-17T10:46:13.487</time></trkpt><trkpt lat="55.8347020" lon="48.9529934"><time>2021-04-17T10:46:16.483</time></trkpt><trkpt lat="55.8347073" lon="48.9529138"><time>2021-04-17T10:46:19.493</time></trkpt><trkpt lat="55.8347126" lon="48.9528114"><time>2021-04-17T10:46:23.493</time></trkpt><trkpt lat="55.8347414" lon="48.9527217"><time>2021-04-17T10:46:26.487</time></trkpt><trkpt lat="55.8347317" lon="48.9526188"><time>2021-04-17T10:46:29.497</time></trkpt><trkpt lat="55.8347159" lon="48.9525366"><time>2021-04-17T10:46:32.487</time></trkpt><trkpt lat="55.8347041" lon="48.9524241"><time>2021-04-17T10:46:36.487</time></trkpt><trkpt lat="55.8346849" lon="48.9523233"><time>2021-04-17T10:46:39.490</time></trkpt><trkpt lat="55.8346860" lon="48.9522170"><time>2021-04-17T10:46:42.493</time></trkpt><trkpt lat="55.8346798" lon="48.9521105"><time>2021-04-17T10:46:45.493</time></trkpt><trkpt lat="55.8346819" lon="48.9520299"><time>2021-04-17T10:46:48.497</time></trkpt><trkpt lat="55.8346770" lon="48.9519490"><time>2021-04-17T10:46:51.487</time></trkpt><trkpt lat="55.8346689" lon="48.9518591"><time>2021-04-17T10:46:54.490</time></trkpt><trkpt lat="55.8346545" lon="48.9517485"><time>2021-04-17T10:46:57.500</time></trkpt><trkpt lat="55.8346503" lon="48.9516506"><time>2021-04-17T10:47:00.603</time></trkpt><trkpt lat="55.8346272" lon="48.9515579"><time>2021-04-17T10:47:03.610</time></trkpt><trkpt lat="55.8346226" lon="48.9514718"><time>2021-04-17T10:47:06.600</time></trkpt><trkpt lat="55.8346254" lon="48.9513770"><time>2021-04-17T10:47:10.597</time></trkpt><trkpt lat="55.8346149" lon="48.9512763"><time>2021-04-17T10:47:14.507</time></trkpt><trkpt lat="55.8345759" lon="48.9511941"><time>2021-04-17T10:47:17.490</time></trkpt><trkpt lat="55.8345744" lon="48.9511057"><time>2021-04-17T10:47:23.493</time></trkpt><trkpt lat="55.8345630" lon="48.9510240"><time>2021-04-17T10:47:29.490</time></trkpt><trkpt lat="55.8345291" lon="48.9509634"><time>2021-04-17T10:47:35.493</time></trkpt><trkpt lat="55.8344987" lon="48.9508775"><time>2021-04-17T10:47:40.397</time></trkpt><trkpt lat="55.8344700" lon="48.9508052"><time>2021-04-17T10:47:47.400</time></trkpt><trkpt lat="55.8344599" lon="48.9507053"><time>2021-04-17T10:47:51.490</time></trkpt><trkpt lat="55.8344533" lon="48.9506130"><time>2021-04-17T10:47:54.493</time></trkpt><trkpt lat="55.8344354" lon="48.9505389"><time>2021-04-17T10:47:58.487</time></trkpt><trkpt lat="55.8343969" lon="48.9504722"><time>2021-04-17T10:48:03.497</time></trkpt><trkpt lat="55.8343656" lon="48.9504058"><time>2021-04-17T10:48:08.413</time></trkpt><trkpt lat="55.8343403" lon="48.9503336"><time>2021-04-17T10:48:11.423</time></trkpt><trkpt lat="55.8343105" lon="48.9502725"><time>2021-04-17T10:48:14.417</time></trkpt><trkpt lat="55.8342883" lon="48.9502331"><time>2021-04-17T10:48:17.680</time></trkpt><trkpt lat="55.8342720" lon="48.9502135"><time>2021-04-17T10:48:19.423</time></trkpt><trkpt lat="55.8342472" lon="48.9501382"><time>2021-04-17T10:48:26.423</time></trkpt><trkpt lat="55.8342104" lon="48.9500716"><time>2021-04-17T10:48:29.433</time></trkpt><trkpt lat="55.8341706" lon="48.9500051"><time>2021-04-17T10:48:32.410</time></trkpt><trkpt lat="55.8341439" lon="48.9499163"><time>2021-04-17T10:48:35.427</time></trkpt><trkpt lat="55.8341471" lon="48.9498196"><time>2021-04-17T10:48:40.870</time></trkpt><trkpt lat="55.8341501" lon="48.9497050"><time>2021-04-17T10:48:46.493</time></trkpt><trkpt lat="55.8341893" lon="48.9496285"><time>2021-04-17T10:48:50.490</time></trkpt><trkpt lat="55.8342088" lon="48.9495311"><time>2021-04-17T10:48:55.487</time></trkpt><trkpt lat="55.8342333" lon="48.9494555"><time>2021-04-17T10:49:02.607</time></trkpt><trkpt lat="55.8342036" lon="48.9493869"><time>2021-04-17T10:49:11.490</time></trkpt><trkpt lat="55.8341949" lon="48.9492982"><time>2021-04-17T10:49:21.760</time></trkpt><trkpt lat="55.8342110" lon="48.9492202"><time>2021-04-17T10:49:26.863</time></trkpt><trkpt lat="55.8342076" lon="48.9491319"><time>2021-04-17T10:49:33.543</time></trkpt><trkpt lat="55.8342318" lon="48.9490628"><time>2021-04-17T10:49:38.400</time></trkpt><trkpt lat="55.8342616" lon="48.9489994"><time>2021-04-17T10:49:43.497</time></trkpt><trkpt lat="55.8342542" lon="48.9489206"><time>2021-04-17T10:49:48.583</time></trkpt><trkpt lat="55.8342535" lon="48.9488273"><time>2021-04-17T10:49:56.497</time></trkpt><trkpt lat="55.8342377" lon="48.9487429"><time>2021-04-17T10:50:02.490</time></trkpt><trkpt lat="55.8342398" lon="48.9486533"><time>2021-04-17T10:50:09.497</time></trkpt><trkpt lat="55.8342173" lon="48.9485833"><time>2021-04-17T10:50:17.497</time></trkpt><trkpt lat="55.8341855" lon="48.9485188"><time>2021-04-17T10:50:23.500</time></trkpt><trkpt lat="55.8341875" lon="48.9484252"><time>2021-04-17T10:50:28.860</time></trkpt><trkpt lat="55.8341963" lon="48.9483310"><time>2021-04-17T10:50:32.867</time></trkpt><trkpt lat="55.8341750" lon="48.9482347"><time>2021-04-17T10:50:37.493</time></trkpt><trkpt lat="55.8341781" lon="48.9481499"><time>2021-04-17T10:50:41.400</time></trkpt><trkpt lat="55.8341819" lon="48.9480523"><time>2021-04-17T10:50:45.487</time></trkpt><trkpt lat="55.8341711" lon="48.9479573"><time>2021-04-17T10:50:48.487</time></trkpt><trkpt lat="55.8341515" lon="48.9478710"><time>2021-04-17T10:50:52.487</time></trkpt><trkpt lat="55.8341629" lon="48.9477904"><time>2021-04-17T10:50:55.497</time></trkpt><trkpt lat="55.8341517" lon="48.9477126"><time>2021-04-17T10:51:01.500</time></trkpt><trkpt lat="55.8341321" lon="48.9476311"><time>2021-04-17T10:51:06.393</time></trkpt><trkpt lat="55.8341567" lon="48.9475358"><time>2021-04-17T10:51:10.497</time></trkpt><trkpt lat="55.8341379" lon="48.9474627"><time>2021-04-17T10:51:14.583</time></trkpt><trkpt lat="55.8341204" lon="48.9473788"><time>2021-04-17T10:51:23.613</time></trkpt><trkpt lat="55.8340923" lon="48.9473151"><time>2021-04-17T10:51:28.400</time></trkpt><trkpt lat="55.8340819" lon="48.9472301"><time>2021-04-17T10:51:34.620</time></trkpt><trkpt lat="55.8340698" lon="48.9471442"><time>2021-04-17T10:51:40.987</time></trkpt><trkpt lat="55.8340315" lon="48.9470897"><time>2021-04-17T10:51:47.497</time></trkpt><trkpt lat="55.8340015" lon="48.9470250"><time>2021-04-17T10:51:54.490</time></trkpt><trkpt lat="55.8339828" lon="48.9469425"><time>2021-04-17T10:52:03.673</time></trkpt><trkpt lat="55.8339579" lon="48.9468676"><time>2021-04-17T10:52:11.390</time></trkpt><trkpt lat="55.8339111" lon="48.9468363"><time>2021-04-17T10:52:18.400</time></trkpt><trkpt lat="55.8338605" lon="48.9467948"><time>2021-04-17T10:52:23.597</time></trkpt><trkpt lat="55.8338145" lon="48.9467672"><time>2021-04-17T10:52:26.487</time></trkpt><trkpt lat="55.8337755" lon="48.9467169"><time>2021-04-17T10:52:31.487</time></trkpt><trkpt lat="55.8337282" lon="48.9467056"><time>2021-04-17T10:52:35.487</time></trkpt><trkpt lat="55.8336760" lon="48.9466937"><time>2021-04-17T10:52:38.487</time></trkpt><trkpt lat="55.8336264" lon="48.9466629"><time>2021-04-17T10:52:42.630</time></trkpt><trkpt lat="55.8335811" lon="48.9466669"><time>2021-04-17T10:52:46.753</time></trkpt><trkpt lat="55.8335292" lon="48.9466494"><time>2021-04-17T10:52:49.630</time></trkpt><trkpt lat="55.8334607" lon="48.9466593"><time>2021-04-17T10:52:53.623</time></trkpt><trkpt lat="55.8334148" lon="48.9466510"><time>2021-04-17T10:52:55.493</time></trkpt><trkpt lat="55.8333702" lon="48.9466712"><time>2021-04-17T10:52:59.497</time></trkpt><trkpt lat="55.8333144" lon="48.9466401"><time>2021-04-17T10:53:03.490</time></trkpt><trkpt lat="55.8332340" lon="48.9466212"><time>2021-04-17T10:53:09.633</time></trkpt><trkpt lat="55.8331788" lon="48.9466106"><time>2021-04-17T10:53:15.493</time></trkpt><trkpt lat="55.8331330" lon="48.9466022"><time>2021-04-17T10:53:17.627</time></trkpt><trkpt lat="55.8330909" lon="48.9466261"><time>2021-04-17T10:53:20.383</time></trkpt><trkpt lat="55.8330793" lon="48.9466267"><time>2021-04-17T10:53:20.587</time></trkpt><trkpt lat="55.8330299" lon="48.9465839"><time>2021-04-17T10:53:24.593</time></trkpt><trkpt lat="55.8329859" lon="48.9465466"><time>2021-04-17T10:53:27.573</time></trkpt><trkpt lat="55.8329355" lon="48.9465293"><time>2021-04-17T10:53:31.597</time></trkpt><trkpt lat="55.8328915" lon="48.9464944"><time>2021-04-17T10:53:41.493</time></trkpt><trkpt lat="55.8328848" lon="48.9464073"><time>2021-04-17T10:53:49.747</time></trkpt><trkpt lat="55.8328867" lon="48.9462811"><time>2021-04-17T10:53:59.750</time></trkpt><trkpt lat="55.8328709" lon="48.9462030"><time>2021-04-17T10:54:12.493</time></trkpt><trkpt lat="55.8328300" lon="48.9461649"><time>2021-04-17T10:54:21.493</time></trkpt><trkpt lat="55.8327892" lon="48.9461273"><time>2021-04-17T10:54:30.487</time></trkpt><trkpt lat="55.8328071" lon="48.9460504"><time>2021-04-17T10:54:40.487</time></trkpt><trkpt lat="55.8327613" lon="48.9460354"><time>2021-04-17T10:54:44.490</time></trkpt><trkpt lat="55.8327226" lon="48.9459744"><time>2021-04-17T10:54:52.490</time></trkpt><trkpt lat="55.8326833" lon="48.9459297"><time>2021-04-17T10:54:57.657</time></trkpt><trkpt lat="55.8326276" lon="48.9459175"><time>2021-04-17T10:55:01.653</time></trkpt><trkpt lat="55.8325824" lon="48.9459124"><time>2021-04-17T10:55:07.647</time></trkpt><trkpt lat="55.8325414" lon="48.9458729"><time>2021-04-17T10:55:13.793</time></trkpt><trkpt lat="55.8324952" lon="48.9458623"><time>2021-04-17T10:55:20.790</time></trkpt><trkpt lat="55.8324433" lon="48.9458548"><time>2021-04-17T10:55:28.390</time></trkpt><trkpt lat="55.8323912" lon="48.9458029"><time>2021-04-17T10:55:35.497</time></trkpt><trkpt lat="55.8323530" lon="48.9457465"><time>2021-04-17T10:55:40.490</time></trkpt><trkpt lat="55.8322979" lon="48.9457338"><time>2021-04-17T10:55:47.493</time></trkpt><trkpt lat="55.8322494" lon="48.9456922"><time>2021-04-17T10:55:54.497</time></trkpt><trkpt lat="55.8322207" lon="48.9456222"><time>2021-04-17T10:56:02.667</time></trkpt><trkpt lat="55.8322113" lon="48.9455196"><time>2021-04-17T10:56:09.987</time></trkpt><trkpt lat="55.8322033" lon="48.9454264"><time>2021-04-17T10:56:14.713</time></trkpt><trkpt lat="55.8321677" lon="48.9453767"><time>2021-04-17T10:56:19.567</time></trkpt><trkpt lat="55.8321670" lon="48.9452850"><time>2021-04-17T10:56:23.557</time></trkpt><trkpt lat="55.8321551" lon="48.9451843"><time>2021-04-17T10:56:28.560</time></trkpt><trkpt lat="55.8321836" lon="48.9451005"><time>2021-04-17T10:56:34.563</time></trkpt><trkpt lat="55.8322030" lon="48.9450227"><time>2021-04-17T10:56:38.573</time></trkpt><trkpt lat="55.8321858" lon="48.9449254"><time>2021-04-17T10:56:42.570</time></trkpt><trkpt lat="55.8321880" lon="48.9448382"><time>2021-04-17T10:56:45.563</time></trkpt><trkpt lat="55.8321976" lon="48.9447462"><time>2021-04-17T10:56:50.567</time></trkpt><trkpt lat="55.8322023" lon="48.9446565"><time>2021-04-17T10:56:53.573</time></trkpt><trkpt lat="55.8322009" lon="48.9445672"><time>2021-04-17T10:56:56.577</time></trkpt><trkpt lat="55.8322200" lon="48.9444794"><time>2021-04-17T10:56:59.583</time></trkpt><trkpt lat="55.8322291" lon="48.9443880"><time>2021-04-17T10:57:03.587</time></trkpt><trkpt lat="55.8322328" lon="48.9443064"><time>2021-04-17T10:57:06.590</time></trkpt><trkpt lat="55.8322379" lon="48.9442209"><time>2021-04-17T10:57:10.580</time></trkpt><trkpt lat="55.8322252" lon="48.9441221"><time>2021-04-17T10:57:15.593</time></trkpt><trkpt lat="55.8322410" lon="48.9440320"><time>2021-04-17T10:57:19.580</time></trkpt><trkpt lat="55.8322247" lon="48.9439337"><time>2021-04-17T10:57:24.697</time></trkpt><trkpt lat="55.8322276" lon="48.9438289"><time>2021-04-17T10:57:27.493</time></trkpt><trkpt lat="55.8322205" lon="48.9437453"><time>2021-04-17T10:57:30.397</time></trkpt><trkpt lat="55.8322310" lon="48.9436473"><time>2021-04-17T10:57:36.807</time></trkpt><trkpt lat="55.8322182" lon="48.9435611"><time>2021-04-17T10:57:39.633</time></trkpt><trkpt lat="55.8321760" lon="48.9434669"><time>2021-04-17T10:57:42.490</time></trkpt><trkpt lat="55.8321285" lon="48.9433920"><time>2021-04-17T10:57:45.793</time></trkpt><trkpt lat="55.8320846" lon="48.9433176"><time>2021-04-17T10:57:48.460</time></trkpt><trkpt lat="55.8320688" lon="48.9432208"><time>2021-04-17T10:57:51.617</time></trkpt><trkpt lat="55.8320506" lon="48.9431464"><time>2021-04-17T10:57:54.810</time></trkpt><trkpt lat="55.8320242" lon="48.9430789"><time>2021-04-17T10:57:56.510</time></trkpt><trkpt lat="55.8319896" lon="48.9430274"><time>2021-04-17T10:57:58.727</time></trkpt><trkpt lat="55.8319479" lon="48.9429585"><time>2021-04-17T10:58:01.493</time></trkpt><trkpt lat="55.8318979" lon="48.9429048"><time>2021-04-17T10:58:04.427</time></trkpt><trkpt lat="55.8318968" lon="48.9428210"><time>2021-04-17T10:58:08.833</time></trkpt><trkpt lat="55.8318701" lon="48.9427542"><time>2021-04-17T10:58:11.893</time></trkpt><trkpt lat="55.8318487" lon="48.9426772"><time>2021-04-17T10:58:14.873</time></trkpt><trkpt lat="55.8318173" lon="48.9426149"><time>2021-04-17T10:58:17.867</time></trkpt><trkpt lat="55.8317690" lon="48.9425527"><time>2021-04-17T10:58:20.880</time></trkpt><trkpt lat="55.8317304" lon="48.9424893"><time>2021-04-17T10:58:23.743</time></trkpt><trkpt lat="55.8317113" lon="48.9424130"><time>2021-04-17T10:58:27.577</time></trkpt><trkpt lat="55.8316984" lon="48.9423320"><time>2021-04-17T10:58:31.510</time></trkpt><trkpt lat="55.8316926" lon="48.9422482"><time>2021-04-17T10:58:36.487</time></trkpt><trkpt lat="55.8316930" lon="48.9421635"><time>2021-04-17T10:58:41.390</time></trkpt><trkpt lat="55.8317041" lon="48.9420595"><time>2021-04-17T10:58:44.393</time></trkpt><trkpt lat="55.8317047" lon="48.9419841"><time>2021-04-17T10:58:48.947</time></trkpt><trkpt lat="55.8317016" lon="48.9419612"><time>2021-04-17T10:58:49.397</time></trkpt><trkpt lat="55.8316616" lon="48.9419235"><time>2021-04-17T10:58:53.333</time></trkpt><trkpt lat="55.8316161" lon="48.9419167"><time>2021-04-17T10:58:56.330</time></trkpt><trkpt lat="55.8315624" lon="48.9419424"><time>2021-04-17T10:59:00.310</time></trkpt><trkpt lat="55.8315730" lon="48.9420280"><time>2021-04-17T10:59:15.773</time></trkpt><trkpt lat="55.8315596" lon="48.9421070"><time>2021-04-17T10:59:24.777</time></trkpt><trkpt lat="55.8315562" lon="48.9422022"><time>2021-04-17T10:59:33.770</time></trkpt><trkpt lat="55.8315779" lon="48.9422783"><time>2021-04-17T10:59:42.493</time></trkpt><trkpt lat="55.8316042" lon="48.9423481"><time>2021-04-17T10:59:51.577</time></trkpt><trkpt lat="55.8315966" lon="48.9424409"><time>2021-04-17T11:00:06.483</time></trkpt><trkpt lat="55.8316073" lon="48.9425390"><time>2021-04-17T11:00:20.620</time></trkpt><trkpt lat="55.8316150" lon="48.9426309"><time>2021-04-17T11:00:27.630</time></trkpt><trkpt lat="55.8315837" lon="48.9427090"><time>2021-04-17T11:00:32.487</time></trkpt><trkpt lat="55.8315640" lon="48.9427914"><time>2021-04-17T11:00:37.487</time></trkpt><trkpt lat="55.8315304" lon="48.9428731"><time>2021-04-17T11:00:44.417</time></trkpt><trkpt lat="55.8314906" lon="48.9429492"><time>2021-04-17T11:00:49.397</time></trkpt><trkpt lat="55.8314683" lon="48.9430356"><time>2021-04-17T11:00:54.490</time></trkpt><trkpt lat="55.8314428" lon="48.9431204"><time>2021-04-17T11:00:58.493</time></trkpt><trkpt lat="55.8314393" lon="48.9432080"><time>2021-04-17T11:01:01.403</time></trkpt><trkpt lat="55.8314376" lon="48.9432910"><time>2021-04-17T11:01:05.767</time></trkpt><trkpt lat="55.8314324" lon="48.9433715"><time>2021-04-17T11:01:09.480</time></trkpt><trkpt lat="55.8314040" lon="48.9434585"><time>2021-04-17T11:01:13.487</time></trkpt><trkpt lat="55.8313862" lon="48.9435335"><time>2021-04-17T11:01:17.427</time></trkpt><trkpt lat="55.8313689" lon="48.9436088"><time>2021-04-17T11:01:21.760</time></trkpt><trkpt lat="55.8313534" lon="48.9437117"><time>2021-04-17T11:01:26.900</time></trkpt><trkpt lat="55.8313301" lon="48.9437900"><time>2021-04-17T11:01:30.887</time></trkpt><trkpt lat="55.8313197" lon="48.9438927"><time>2021-04-17T11:01:35.910</time></trkpt><trkpt lat="55.8313202" lon="48.9439744"><time>2021-04-17T11:01:40.493</time></trkpt><trkpt lat="55.8313362" lon="48.9440566"><time>2021-04-17T11:01:46.493</time></trkpt><trkpt lat="55.8313835" lon="48.9440694"><time>2021-04-17T11:01:54.487</time></trkpt><trkpt lat="55.8314298" lon="48.9440929"><time>2021-04-17T11:01:58.487</time></trkpt><trkpt lat="55.8314712" lon="48.9441267"><time>2021-04-17T11:02:01.757</time></trkpt><trkpt lat="55.8315205" lon="48.9441254"><time>2021-04-17T11:02:05.740</time></trkpt><trkpt lat="55.8315786" lon="48.9441588"><time>2021-04-17T11:02:10.747</time></trkpt><trkpt lat="55.8316238" lon="48.9442091"><time>2021-04-17T11:02:15.630</time></trkpt><trkpt lat="55.8316675" lon="48.9442697"><time>2021-04-17T11:02:19.493</time></trkpt><trkpt lat="55.8316902" lon="48.9443421"><time>2021-04-17T11:02:24.437</time></trkpt><trkpt lat="55.8317378" lon="48.9443803"><time>2021-04-17T11:02:29.857</time></trkpt><trkpt lat="55.8317895" lon="48.9444103"><time>2021-04-17T11:02:33.857</time></trkpt><trkpt lat="55.8318385" lon="48.9444465"><time>2021-04-17T11:02:37.853</time></trkpt><trkpt lat="55.8318908" lon="48.9444926"><time>2021-04-17T11:02:42.880</time></trkpt><trkpt lat="55.8319288" lon="48.9445523"><time>2021-04-17T11:02:46.870</time></trkpt><trkpt lat="55.8319779" lon="48.9445856"><time>2021-04-17T11:02:51.873</time></trkpt><trkpt lat="55.8320234" lon="48.9446261"><time>2021-04-17T11:02:56.877</time></trkpt><trkpt lat="55.8320567" lon="48.9447126"><time>2021-04-17T11:03:01.880</time></trkpt><trkpt lat="55.8320939" lon="48.9447727"><time>2021-04-17T11:03:05.877</time></trkpt><trkpt lat="55.8321261" lon="48.9448465"><time>2021-04-17T11:03:10.870</time></trkpt><trkpt lat="55.8321697" lon="48.9449196"><time>2021-04-17T11:03:14.867</time></trkpt><trkpt lat="55.8321990" lon="48.9449931"><time>2021-04-17T11:03:17.867</time></trkpt><trkpt lat="55.8322340" lon="48.9450567"><time>2021-04-17T11:03:21.870</time></trkpt><trkpt lat="55.8322760" lon="48.9451302"><time>2021-04-17T11:03:26.867</time></trkpt><trkpt lat="55.8323194" lon="48.9451790"><time>2021-04-17T11:03:32.863</time></trkpt><trkpt lat="55.8323677" lon="48.9452727"><time>2021-04-17T11:03:47.867</time></trkpt><trkpt lat="55.8324076" lon="48.9453224"><time>2021-04-17T11:03:54.867</time></trkpt><trkpt lat="55.8324369" lon="48.9453940"><time>2021-04-17T11:03:59.880</time></trkpt><trkpt lat="55.8324095" lon="48.9454705"><time>2021-04-17T11:04:06.873</time></trkpt><trkpt lat="55.8324544" lon="48.9455124"><time>2021-04-17T11:04:15.877</time></trkpt><trkpt lat="55.8324891" lon="48.9455749"><time>2021-04-17T11:04:21.873</time></trkpt><trkpt lat="55.8325358" lon="48.9455927"><time>2021-04-17T11:04:25.873</time></trkpt><trkpt lat="55.8325622" lon="48.9456590"><time>2021-04-17T11:04:35.870</time></trkpt><trkpt lat="55.8325606" lon="48.9457415"><time>2021-04-17T11:04:42.873</time></trkpt><trkpt lat="55.8326077" lon="48.9457596"><time>2021-04-17T11:04:48.993</time></trkpt><trkpt lat="55.8326575" lon="48.9458378"><time>2021-04-17T11:05:14.887</time></trkpt><trkpt lat="55.8327174" lon="48.9458750"><time>2021-04-17T11:05:21.887</time></trkpt><trkpt lat="55.8327629" lon="48.9458890"><time>2021-04-17T11:05:25.887</time></trkpt><trkpt lat="55.8328036" lon="48.9459236"><time>2021-04-17T11:05:29.563</time></trkpt><trkpt lat="55.8328597" lon="48.9459162"><time>2021-04-17T11:05:34.490</time></trkpt><trkpt lat="55.8329047" lon="48.9459637"><time>2021-04-17T11:05:40.493</time></trkpt><trkpt lat="55.8329610" lon="48.9459994"><time>2021-04-17T11:05:46.580</time></trkpt><trkpt lat="55.8330020" lon="48.9460408"><time>2021-04-17T11:05:50.487</time></trkpt><trkpt lat="55.8330452" lon="48.9460779"><time>2021-04-17T11:05:53.620</time></trkpt><trkpt lat="55.8330877" lon="48.9461274"><time>2021-04-17T11:05:56.627</time></trkpt><trkpt lat="55.8331390" lon="48.9461739"><time>2021-04-17T11:06:00.627</time></trkpt><trkpt lat="55.8331829" lon="48.9461948"><time>2021-04-17T11:06:03.857</time></trkpt><trkpt lat="55.8332268" lon="48.9462441"><time>2021-04-17T11:06:06.853</time></trkpt><trkpt lat="55.8332699" lon="48.9462862"><time>2021-04-17T11:06:10.630</time></trkpt><trkpt lat="55.8333071" lon="48.9463560"><time>2021-04-17T11:06:14.620</time></trkpt><trkpt lat="55.8333568" lon="48.9463819"><time>2021-04-17T11:06:18.487</time></trkpt><trkpt lat="55.8334096" lon="48.9463982"><time>2021-04-17T11:06:21.483</time></trkpt><trkpt lat="55.8334568" lon="48.9463890"><time>2021-04-17T11:06:23.487</time></trkpt><trkpt lat="55.8335101" lon="48.9463838"><time>2021-04-17T11:06:29.400</time></trkpt><trkpt lat="55.8335636" lon="48.9463868"><time>2021-04-17T11:06:33.457</time></trkpt><trkpt lat="55.8336098" lon="48.9464097"><time>2021-04-17T11:06:36.400</time></trkpt><trkpt lat="55.8336522" lon="48.9464421"><time>2021-04-17T11:06:40.490</time></trkpt><trkpt lat="55.8337058" lon="48.9464697"><time>2021-04-17T11:06:43.493</time></trkpt><trkpt lat="55.8337596" lon="48.9464217"><time>2021-04-17T11:06:48.487</time></trkpt><trkpt lat="55.8337969" lon="48.9463508"><time>2021-04-17T11:06:52.400</time></trkpt><trkpt lat="55.8338247" lon="48.9462861"><time>2021-04-17T11:06:55.490</time></trkpt><trkpt lat="55.8338548" lon="48.9462050"><time>2021-04-17T11:06:59.487</time></trkpt><trkpt lat="55.8338844" lon="48.9461424"><time>2021-04-17T11:07:02.703</time></trkpt><trkpt lat="55.8339111" lon="48.9460689"><time>2021-04-17T11:07:06.637</time></trkpt><trkpt lat="55.8339388" lon="48.9460004"><time>2021-04-17T11:07:10.623</time></trkpt><trkpt lat="55.8339582" lon="48.9459224"><time>2021-04-17T11:07:14.860</time></trkpt><trkpt lat="55.8339708" lon="48.9458237"><time>2021-04-17T11:07:19.873</time></trkpt><trkpt lat="55.8339948" lon="48.9457549"><time>2021-04-17T11:07:22.873</time></trkpt><trkpt lat="55.8340211" lon="48.9456868"><time>2021-04-17T11:07:25.860</time></trkpt><trkpt lat="55.8340340" lon="48.9456049"><time>2021-04-17T11:07:28.880</time></trkpt><trkpt lat="55.8340409" lon="48.9455219"><time>2021-04-17T11:07:32.993</time></trkpt><trkpt lat="55.8340644" lon="48.9454332"><time>2021-04-17T11:07:36.490</time></trkpt><trkpt lat="55.8340518" lon="48.9453416"><time>2021-04-17T11:07:41.487</time></trkpt><trkpt lat="55.8340876" lon="48.9452783"><time>2021-04-17T11:07:46.483</time></trkpt><trkpt lat="55.8341142" lon="48.9452041"><time>2021-04-17T11:07:50.483</time></trkpt><trkpt lat="55.8341150" lon="48.9450772"><time>2021-04-17T11:07:56.493</time></trkpt><trkpt lat="55.8341370" lon="48.9449795"><time>2021-04-17T11:08:01.490</time></trkpt><trkpt lat="55.8341616" lon="48.9448845"><time>2021-04-17T11:08:04.487</time></trkpt><trkpt lat="55.8341910" lon="48.9448001"><time>2021-04-17T11:08:08.507</time></trkpt><trkpt lat="55.8342082" lon="48.9447169"><time>2021-04-17T11:08:11.520</time></trkpt><trkpt lat="55.8342381" lon="48.9446280"><time>2021-04-17T11:08:14.517</time></trkpt><trkpt lat="55.8342639" lon="48.9445613"><time>2021-04-17T11:08:17.640</time></trkpt><trkpt lat="55.8342954" lon="48.9444728"><time>2021-04-17T11:08:21.733</time></trkpt><trkpt lat="55.8343137" lon="48.9443786"><time>2021-04-17T11:08:25.723</time></trkpt><trkpt lat="55.8343380" lon="48.9443003"><time>2021-04-17T11:08:28.493</time></trkpt><trkpt lat="55.8343594" lon="48.9442013"><time>2021-04-17T11:08:32.490</time></trkpt><trkpt lat="55.8343828" lon="48.9441123"><time>2021-04-17T11:08:36.487</time></trkpt><trkpt lat="55.8343910" lon="48.9440112"><time>2021-04-17T11:08:40.497</time></trkpt><trkpt lat="55.8343968" lon="48.9439080"><time>2021-04-17T11:08:44.503</time></trkpt><trkpt lat="55.8344215" lon="48.9438222"><time>2021-04-17T11:08:48.483</time></trkpt><trkpt lat="55.8344380" lon="48.9437342"><time>2021-04-17T11:08:52.493</time></trkpt><trkpt lat="55.8344641" lon="48.9436662"><time>2021-04-17T11:08:55.493</time></trkpt><trkpt lat="55.8344878" lon="48.9435944"><time>2021-04-17T11:08:58.493</time></trkpt><trkpt lat="55.8345089" lon="48.9435162"><time>2021-04-17T11:09:01.493</time></trkpt><trkpt lat="55.8345328" lon="48.9434401"><time>2021-04-17T11:09:05.490</time></trkpt><trkpt lat="55.8345671" lon="48.9433704"><time>2021-04-17T11:09:08.483</time></trkpt><trkpt lat="55.8345917" lon="48.9432979"><time>2021-04-17T11:09:11.490</time></trkpt><trkpt lat="55.8346219" lon="48.9432198"><time>2021-04-17T11:09:15.487</time></trkpt><trkpt lat="55.8346500" lon="48.9431291"><time>2021-04-17T11:09:19.607</time></trkpt><trkpt lat="55.8346781" lon="48.9430602"><time>2021-04-17T11:09:21.613</time></trkpt><trkpt lat="55.8346976" lon="48.9429695"><time>2021-04-17T11:09:25.860</time></trkpt><trkpt lat="55.8347257" lon="48.9428816"><time>2021-04-17T11:09:28.867</time></trkpt><trkpt lat="55.8347399" lon="48.9427794"><time>2021-04-17T11:09:31.850</time></trkpt><trkpt lat="55.8347523" lon="48.9426881"><time>2021-04-17T11:09:34.490</time></trkpt><trkpt lat="55.8347663" lon="48.9425961"><time>2021-04-17T11:09:37.490</time></trkpt><trkpt lat="55.8347961" lon="48.9425188"><time>2021-04-17T11:09:40.483</time></trkpt><trkpt lat="55.8348427" lon="48.9424751"><time>2021-04-17T11:09:43.493</time></trkpt><trkpt lat="55.8348905" lon="48.9424061"><time>2021-04-17T11:09:48.490</time></trkpt><trkpt lat="55.8349109" lon="48.9423272"><time>2021-04-17T11:09:53.563</time></trkpt><trkpt lat="55.8349253" lon="48.9422455"><time>2021-04-17T11:09:57.490</time></trkpt><trkpt lat="55.8349520" lon="48.9421701"><time>2021-04-17T11:10:01.487</time></trkpt><trkpt lat="55.8349825" lon="48.9420695"><time>2021-04-17T11:10:04.483</time></trkpt><trkpt lat="55.8350083" lon="48.9419991"><time>2021-04-17T11:10:07.490</time></trkpt><trkpt lat="55.8350343" lon="48.9419174"><time>2021-04-17T11:10:12.490</time></trkpt><trkpt lat="55.8350628" lon="48.9418440"><time>2021-04-17T11:10:16.487</time></trkpt><trkpt lat="55.8350855" lon="48.9417610"><time>2021-04-17T11:10:20.487</time></trkpt><trkpt lat="55.8351061" lon="48.9416706"><time>2021-04-17T11:10:24.483</time></trkpt><trkpt lat="55.8351318" lon="48.9415787"><time>2021-04-17T11:10:27.600</time></trkpt><trkpt lat="55.8351507" lon="48.9414953"><time>2021-04-17T11:10:30.603</time></trkpt><trkpt lat="55.8351932" lon="48.9414283"><time>2021-04-17T11:10:34.857</time></trkpt><trkpt lat="55.8352252" lon="48.9413632"><time>2021-04-17T11:10:36.857</time></trkpt><trkpt lat="55.8352513" lon="48.9412796"><time>2021-04-17T11:10:39.847</time></trkpt><trkpt lat="55.8352594" lon="48.9411965"><time>2021-04-17T11:10:43.493</time></trkpt><trkpt lat="55.8352883" lon="48.9411150"><time>2021-04-17T11:10:47.487</time></trkpt><trkpt lat="55.8353113" lon="48.9410202"><time>2021-04-17T11:10:51.487</time></trkpt><trkpt lat="55.8353461" lon="48.9409623"><time>2021-04-17T11:10:54.497</time></trkpt><trkpt lat="55.8353736" lon="48.9408729"><time>2021-04-17T11:10:57.767</time></trkpt><trkpt lat="55.8354036" lon="48.9407778"><time>2021-04-17T11:11:02.487</time></trkpt><trkpt lat="55.8354239" lon="48.9407037"><time>2021-04-17T11:11:06.433</time></trkpt><trkpt lat="55.8354376" lon="48.9406117"><time>2021-04-17T11:11:12.217</time></trkpt><trkpt lat="55.8354119" lon="48.9405706"><time>2021-04-17T11:11:15.783</time></trkpt><trkpt lat="55.8353958" lon="48.9405395"><time>2021-04-17T11:11:17.427</time></trkpt><trkpt lat="55.8353597" lon="48.9404869"><time>2021-04-17T11:11:20.433</time></trkpt><trkpt lat="55.8353082" lon="48.9404831"><time>2021-04-17T11:11:23.430</time></trkpt><trkpt lat="55.8352408" lon="48.9404961"><time>2021-04-17T11:11:27.353</time></trkpt><trkpt lat="55.8351888" lon="48.9405008"><time>2021-04-17T11:11:31.340</time></trkpt><trkpt lat="55.8351600" lon="48.9405773"><time>2021-04-17T11:11:41.833</time></trkpt><trkpt lat="55.8351355" lon="48.9406523"><time>2021-04-17T11:11:48.697</time></trkpt><trkpt lat="55.8351188" lon="48.9407307"><time>2021-04-17T11:12:00.487</time></trkpt><trkpt lat="55.8350945" lon="48.9408121"><time>2021-04-17T11:12:08.487</time></trkpt><trkpt lat="55.8350718" lon="48.9408864"><time>2021-04-17T11:12:14.487</time></trkpt><trkpt lat="55.8350543" lon="48.9409620"><time>2021-04-17T11:12:20.607</time></trkpt><trkpt lat="55.8350248" lon="48.9410322"><time>2021-04-17T11:12:27.493</time></trkpt><trkpt lat="55.8350090" lon="48.9411168"><time>2021-04-17T11:12:34.487</time></trkpt><trkpt lat="55.8350305" lon="48.9411886"><time>2021-04-17T11:12:43.610</time></trkpt><trkpt lat="55.8350191" lon="48.9412899"><time>2021-04-17T11:12:49.797</time></trkpt><trkpt lat="55.8350122" lon="48.9413724"><time>2021-04-17T11:12:53.797</time></trkpt><trkpt lat="55.8350280" lon="48.9414646"><time>2021-04-17T11:12:58.530</time></trkpt><trkpt lat="55.8350096" lon="48.9415577"><time>2021-04-17T11:13:05.490</time></trkpt><trkpt lat="55.8349935" lon="48.9416567"><time>2021-04-17T11:13:10.493</time></trkpt><trkpt lat="55.8350062" lon="48.9417424"><time>2021-04-17T11:13:15.490</time></trkpt><trkpt lat="55.8350209" lon="48.9418376"><time>2021-04-17T11:13:21.503</time></trkpt><trkpt lat="55.8350206" lon="48.9419217"><time>2021-04-17T11:13:25.487</time></trkpt><trkpt lat="55.8350190" lon="48.9420144"><time>2021-04-17T11:13:28.490</time></trkpt><trkpt lat="55.8350050" lon="48.9420999"><time>2021-04-17T11:13:33.490</time></trkpt><trkpt lat="55.8349968" lon="48.9421926"><time>2021-04-17T11:13:38.403</time></trkpt><trkpt lat="55.8349823" lon="48.9423002"><time>2021-04-17T11:13:41.493</time></trkpt><trkpt lat="55.8349615" lon="48.9423888"><time>2021-04-17T11:13:44.490</time></trkpt><trkpt lat="55.8349538" lon="48.9425071"><time>2021-04-17T11:13:50.403</time></trkpt><trkpt lat="55.8349377" lon="48.9425818"><time>2021-04-17T11:13:54.770</time></trkpt><trkpt lat="55.8349165" lon="48.9426680"><time>2021-04-17T11:13:58.863</time></trkpt><trkpt lat="55.8349104" lon="48.9427529"><time>2021-04-17T11:14:03.860</time></trkpt><trkpt lat="55.8348953" lon="48.9428312"><time>2021-04-17T11:14:06.493</time></trkpt><trkpt lat="55.8349041" lon="48.9429105"><time>2021-04-17T11:14:10.483</time></trkpt><trkpt lat="55.8348936" lon="48.9430132"><time>2021-04-17T11:14:14.800</time></trkpt><trkpt lat="55.8348860" lon="48.9430992"><time>2021-04-17T11:14:18.707</time></trkpt><trkpt lat="55.8348528" lon="48.9431809"><time>2021-04-17T11:14:21.500</time></trkpt><trkpt lat="55.8348259" lon="48.9432498"><time>2021-04-17T11:14:23.413</time></trkpt><trkpt lat="55.8348053" lon="48.9433262"><time>2021-04-17T11:14:25.403</time></trkpt><trkpt lat="55.8347857" lon="48.9434083"><time>2021-04-17T11:14:28.493</time></trkpt><trkpt lat="55.8347655" lon="48.9434865"><time>2021-04-17T11:14:31.380</time></trkpt><trkpt lat="55.8347400" lon="48.9435957"><time>2021-04-17T11:14:34.607</time></trkpt><trkpt lat="55.8347289" lon="48.9437112"><time>2021-04-17T11:14:37.577</time></trkpt><trkpt lat="55.8347155" lon="48.9437936"><time>2021-04-17T11:14:40.483</time></trkpt><trkpt lat="55.8347262" lon="48.9438761"><time>2021-04-17T11:14:43.497</time></trkpt><trkpt lat="55.8347140" lon="48.9439804"><time>2021-04-17T11:14:47.397</time></trkpt><trkpt lat="55.8346885" lon="48.9440573"><time>2021-04-17T11:14:51.487</time></trkpt><trkpt lat="55.8346860" lon="48.9441458"><time>2021-04-17T11:14:55.487</time></trkpt><trkpt lat="55.8346506" lon="48.9442152"><time>2021-04-17T11:15:00.627</time></trkpt><trkpt lat="55.8346237" lon="48.9442849"><time>2021-04-17T11:15:04.977</time></trkpt><trkpt lat="55.8345894" lon="48.9443598"><time>2021-04-17T11:15:07.857</time></trkpt><trkpt lat="55.8345605" lon="48.9444282"><time>2021-04-17T11:15:10.977</time></trkpt><trkpt lat="55.8345293" lon="48.9445075"><time>2021-04-17T11:15:15.493</time></trkpt><trkpt lat="55.8345191" lon="48.9445948"><time>2021-04-17T11:15:19.393</time></trkpt><trkpt lat="55.8344956" lon="48.9446862"><time>2021-04-17T11:15:23.513</time></trkpt><trkpt lat="55.8344750" lon="48.9447587"><time>2021-04-17T11:15:26.703</time></trkpt><trkpt lat="55.8344572" lon="48.9448389"><time>2021-04-17T11:15:29.637</time></trkpt><trkpt lat="55.8344354" lon="48.9449354"><time>2021-04-17T11:15:33.687</time></trkpt><trkpt lat="55.8344192" lon="48.9450264"><time>2021-04-17T11:15:36.493</time></trkpt><trkpt lat="55.8343986" lon="48.9451213"><time>2021-04-17T11:15:41.403</time></trkpt><trkpt lat="55.8343853" lon="48.9452109"><time>2021-04-17T11:15:46.493</time></trkpt><trkpt lat="55.8343851" lon="48.9453066"><time>2021-04-17T11:15:50.400</time></trkpt><trkpt lat="55.8343744" lon="48.9453951"><time>2021-04-17T11:15:54.493</time></trkpt><trkpt lat="55.8343681" lon="48.9454756"><time>2021-04-17T11:16:00.493</time></trkpt><trkpt lat="55.8343353" lon="48.9455837"><time>2021-04-17T11:16:08.407</time></trkpt><trkpt lat="55.8343176" lon="48.9456598"><time>2021-04-17T11:16:12.400</time></trkpt><trkpt lat="55.8343001" lon="48.9457386"><time>2021-04-17T11:16:17.860</time></trkpt><trkpt lat="55.8342718" lon="48.9458103"><time>2021-04-17T11:16:21.653</time></trkpt><trkpt lat="55.8342442" lon="48.9458867"><time>2021-04-17T11:16:25.487</time></trkpt><trkpt lat="55.8342201" lon="48.9459796"><time>2021-04-17T11:16:31.620</time></trkpt><trkpt lat="55.8342063" lon="48.9460782"><time>2021-04-17T11:16:36.627</time></trkpt><trkpt lat="55.8341793" lon="48.9461703"><time>2021-04-17T11:16:41.407</time></trkpt><trkpt lat="55.8341709" lon="48.9462537"><time>2021-04-17T11:16:44.400</time></trkpt><trkpt lat="55.8341519" lon="48.9463495"><time>2021-04-17T11:16:50.563</time></trkpt><trkpt lat="55.8341243" lon="48.9464179"><time>2021-04-17T11:16:54.490</time></trkpt><trkpt lat="55.8340918" lon="48.9465080"><time>2021-04-17T11:16:58.590</time></trkpt><trkpt lat="55.8340686" lon="48.9465805"><time>2021-04-17T11:17:01.407</time></trkpt><trkpt lat="55.8340524" lon="48.9466743"><time>2021-04-17T11:17:05.503</time></trkpt><trkpt lat="55.8340615" lon="48.9467724"><time>2021-04-17T11:17:08.400</time></trkpt><trkpt lat="55.8340821" lon="48.9468732"><time>2021-04-17T11:17:11.423</time></trkpt><trkpt lat="55.8340877" lon="48.9469634"><time>2021-04-17T11:17:14.427</time></trkpt><trkpt lat="55.8341134" lon="48.9470335"><time>2021-04-17T11:17:17.523</time></trkpt><trkpt lat="55.8341233" lon="48.9471365"><time>2021-04-17T11:17:21.547</time></trkpt><trkpt lat="55.8341576" lon="48.9472136"><time>2021-04-17T11:17:25.870</time></trkpt><trkpt lat="55.8341877" lon="48.9472818"><time>2021-04-17T11:17:28.787</time></trkpt><trkpt lat="55.8342128" lon="48.9473529"><time>2021-04-17T11:17:31.677</time></trkpt><trkpt lat="55.8342225" lon="48.9474456"><time>2021-04-17T11:17:34.613</time></trkpt><trkpt lat="55.8342427" lon="48.9475280"><time>2021-04-17T11:17:38.520</time></trkpt><trkpt lat="55.8342609" lon="48.9476140"><time>2021-04-17T11:17:42.537</time></trkpt><trkpt lat="55.8342789" lon="48.9476966"><time>2021-04-17T11:17:46.410</time></trkpt><trkpt lat="55.8342747" lon="48.9477847"><time>2021-04-17T11:17:50.487</time></trkpt><trkpt lat="55.8342847" lon="48.9478803"><time>2021-04-17T11:17:54.397</time></trkpt><trkpt lat="55.8342785" lon="48.9479750"><time>2021-04-17T11:17:58.500</time></trkpt><trkpt lat="55.8343107" lon="48.9480320"><time>2021-04-17T11:18:01.400</time></trkpt><trkpt lat="55.8343468" lon="48.9481079"><time>2021-04-17T11:18:05.407</time></trkpt><trkpt lat="55.8343711" lon="48.9481859"><time>2021-04-17T11:18:08.487</time></trkpt><trkpt lat="55.8343953" lon="48.9482575"><time>2021-04-17T11:18:12.490</time></trkpt><trkpt lat="55.8344262" lon="48.9483416"><time>2021-04-17T11:18:16.487</time></trkpt><trkpt lat="55.8344346" lon="48.9484282"><time>2021-04-17T11:18:20.407</time></trkpt><trkpt lat="55.8344508" lon="48.9485456"><time>2021-04-17T11:18:24.917</time></trkpt><trkpt lat="55.8344789" lon="48.9486195"><time>2021-04-17T11:18:27.867</time></trkpt><trkpt lat="55.8345146" lon="48.9486826"><time>2021-04-17T11:18:31.007</time></trkpt><trkpt lat="55.8345322" lon="48.9487629"><time>2021-04-17T11:18:33.887</time></trkpt><trkpt lat="55.8345490" lon="48.9488452"><time>2021-04-17T11:18:36.743</time></trkpt><trkpt lat="55.8345753" lon="48.9489307"><time>2021-04-17T11:18:40.487</time></trkpt><trkpt lat="55.8345856" lon="48.9490106"><time>2021-04-17T11:18:43.383</time></trkpt><trkpt lat="55.8346069" lon="48.9490858"><time>2021-04-17T11:18:46.490</time></trkpt><trkpt lat="55.8346304" lon="48.9491829"><time>2021-04-17T11:18:50.423</time></trkpt><trkpt lat="55.8346677" lon="48.9492630"><time>2021-04-17T11:18:53.393</time></trkpt><trkpt lat="55.8346971" lon="48.9493421"><time>2021-04-17T11:18:56.423</time></trkpt><trkpt lat="55.8347303" lon="48.9493997"><time>2021-04-17T11:18:59.390</time></trkpt><trkpt lat="55.8347542" lon="48.9494870"><time>2021-04-17T11:19:02.417</time></trkpt><trkpt lat="55.8347735" lon="48.9495591"><time>2021-04-17T11:19:05.390</time></trkpt><trkpt lat="55.8347769" lon="48.9496580"><time>2021-04-17T11:19:09.490</time></trkpt><trkpt lat="55.8347820" lon="48.9497434"><time>2021-04-17T11:19:12.490</time></trkpt><trkpt lat="55.8347837" lon="48.9498291"><time>2021-04-17T11:19:15.740</time></trkpt><trkpt lat="55.8348004" lon="48.9499349"><time>2021-04-17T11:19:19.500</time></trkpt><trkpt lat="55.8348298" lon="48.9500222"><time>2021-04-17T11:19:23.583</time></trkpt><trkpt lat="55.8348401" lon="48.9501145"><time>2021-04-17T11:19:26.493</time></trkpt><trkpt lat="55.8348648" lon="48.9501861"><time>2021-04-17T11:19:29.587</time></trkpt><trkpt lat="55.8348958" lon="48.9502448"><time>2021-04-17T11:19:33.587</time></trkpt><trkpt lat="55.8348908" lon="48.9503315"><time>2021-04-17T11:19:36.583</time></trkpt><trkpt lat="55.8348979" lon="48.9504199"><time>2021-04-17T11:19:39.580</time></trkpt><trkpt lat="55.8349044" lon="48.9504997"><time>2021-04-17T11:19:42.880</time></trkpt><trkpt lat="55.8349252" lon="48.9505796"><time>2021-04-17T11:19:46.693</time></trkpt><trkpt lat="55.8349466" lon="48.9506614"><time>2021-04-17T11:19:49.493</time></trkpt><trkpt lat="55.8349624" lon="48.9507417"><time>2021-04-17T11:19:53.500</time></trkpt><trkpt lat="55.8349983" lon="48.9508164"><time>2021-04-17T11:19:57.493</time></trkpt><trkpt lat="55.8350326" lon="48.9508968"><time>2021-04-17T11:20:02.633</time></trkpt><trkpt lat="55.8350655" lon="48.9509599"><time>2021-04-17T11:20:05.640</time></trkpt><trkpt lat="55.8350857" lon="48.9510444"><time>2021-04-17T11:20:09.490</time></trkpt><trkpt lat="55.8350903" lon="48.9511306"><time>2021-04-17T11:20:13.487</time></trkpt><trkpt lat="55.8351024" lon="48.9512216"><time>2021-04-17T11:20:16.407</time></trkpt><trkpt lat="55.8351228" lon="48.9513163"><time>2021-04-17T11:20:20.483</time></trkpt><trkpt lat="55.8351488" lon="48.9514128"><time>2021-04-17T11:20:24.483</time></trkpt><trkpt lat="55.8351711" lon="48.9514980"><time>2021-04-17T11:20:27.497</time></trkpt><trkpt lat="55.8351841" lon="48.9516029"><time>2021-04-17T11:20:30.490</time></trkpt><trkpt lat="55.8351890" lon="48.9516824"><time>2021-04-17T11:20:33.490</time></trkpt><trkpt lat="55.8351970" lon="48.9517652"><time>2021-04-17T11:20:36.487</time></trkpt><trkpt lat="55.8352149" lon="48.9518474"><time>2021-04-17T11:20:39.620</time></trkpt><trkpt lat="55.8352370" lon="48.9519344"><time>2021-04-17T11:20:42.613</time></trkpt><trkpt lat="55.8352810" lon="48.9520110"><time>2021-04-17T11:20:46.727</time></trkpt><trkpt lat="55.8353208" lon="48.9520576"><time>2021-04-17T11:20:49.487</time></trkpt><trkpt lat="55.8353692" lon="48.9521035"><time>2021-04-17T11:20:53.500</time></trkpt><trkpt lat="55.8353954" lon="48.9521794"><time>2021-04-17T11:20:58.487</time></trkpt><trkpt lat="55.8354381" lon="48.9522323"><time>2021-04-17T11:21:04.490</time></trkpt><trkpt lat="55.8354732" lon="48.9523172"><time>2021-04-17T11:21:09.490</time></trkpt><trkpt lat="55.8355110" lon="48.9523728"><time>2021-04-17T11:21:12.520</time></trkpt><trkpt lat="55.8355350" lon="48.9524498"><time>2021-04-17T11:21:16.493</time></trkpt><trkpt lat="55.8355620" lon="48.9525189"><time>2021-04-17T11:21:20.387</time></trkpt><trkpt lat="55.8356095" lon="48.9525610"><time>2021-04-17T11:21:23.497</time></trkpt><trkpt lat="55.8356136" lon="48.9526533"><time>2021-04-17T11:21:30.847</time></trkpt><trkpt lat="55.8356244" lon="48.9527433"><time>2021-04-17T11:21:35.493</time></trkpt><trkpt lat="55.8356338" lon="48.9528273"><time>2021-04-17T11:21:39.487</time></trkpt><trkpt lat="55.8356513" lon="48.9529099"><time>2021-04-17T11:21:42.600</time></trkpt><trkpt lat="55.8356547" lon="48.9530018"><time>2021-04-17T11:21:46.613</time></trkpt><trkpt lat="55.8356509" lon="48.9530909"><time>2021-04-17T11:21:54.623</time></trkpt><trkpt lat="55.8356311" lon="48.9531753"><time>2021-04-17T11:21:59.490</time></trkpt><trkpt lat="55.8356073" lon="48.9532556"><time>2021-04-17T11:22:05.493</time></trkpt><trkpt lat="55.8355816" lon="48.9533440"><time>2021-04-17T11:22:11.490</time></trkpt><trkpt lat="55.8355597" lon="48.9534262"><time>2021-04-17T11:22:14.393</time></trkpt><trkpt lat="55.8355353" lon="48.9534988"><time>2021-04-17T11:22:19.490</time></trkpt><trkpt lat="55.8354951" lon="48.9535750"><time>2021-04-17T11:22:24.487</time></trkpt><trkpt lat="55.8354564" lon="48.9536287"><time>2021-04-17T11:22:28.393</time></trkpt><trkpt lat="55.8354195" lon="48.9536915"><time>2021-04-17T11:22:32.450</time></trkpt><trkpt lat="55.8353864" lon="48.9537534"><time>2021-04-17T11:22:36.487</time></trkpt><trkpt lat="55.8353595" lon="48.9538356"><time>2021-04-17T11:22:39.393</time></trkpt><trkpt lat="55.8353421" lon="48.9539142"><time>2021-04-17T11:22:42.487</time></trkpt><trkpt lat="55.8353315" lon="48.9539953"><time>2021-04-17T11:22:45.487</time></trkpt><trkpt lat="55.8353134" lon="48.9540776"><time>2021-04-17T11:22:48.597</time></trkpt><trkpt lat="55.8353035" lon="48.9541675"><time>2021-04-17T11:22:51.767</time></trkpt><trkpt lat="55.8353021" lon="48.9542730"><time>2021-04-17T11:22:54.783</time></trkpt><trkpt lat="55.8352802" lon="48.9543784"><time>2021-04-17T11:22:57.830</time></trkpt><trkpt lat="55.8352612" lon="48.9544736"><time>2021-04-17T11:23:00.780</time></trkpt><trkpt lat="55.8352353" lon="48.9545641"><time>2021-04-17T11:23:03.767</time></trkpt><trkpt lat="55.8352023" lon="48.9546505"><time>2021-04-17T11:23:06.797</time></trkpt><trkpt lat="55.8351796" lon="48.9547355"><time>2021-04-17T11:23:09.803</time></trkpt><trkpt lat="55.8351424" lon="48.9548277"><time>2021-04-17T11:23:12.923</time></trkpt><trkpt lat="55.8351043" lon="48.9549282"><time>2021-04-17T11:23:15.813</time></trkpt><trkpt lat="55.8350658" lon="48.9550206"><time>2021-04-17T11:23:18.907</time></trkpt><trkpt lat="55.8350435" lon="48.9550992"><time>2021-04-17T11:23:21.817</time></trkpt><trkpt lat="55.8350277" lon="48.9551773"><time>2021-04-17T11:23:24.933</time></trkpt><trkpt lat="55.8350084" lon="48.9552602"><time>2021-04-17T11:23:27.800</time></trkpt><trkpt lat="55.8349886" lon="48.9553379"><time>2021-04-17T11:23:30.937</time></trkpt><trkpt lat="55.8349824" lon="48.9554199"><time>2021-04-17T11:23:33.820</time></trkpt><trkpt lat="55.8349567" lon="48.9555125"><time>2021-04-17T11:23:36.807</time></trkpt><trkpt lat="55.8349361" lon="48.9555903"><time>2021-04-17T11:23:38.800</time></trkpt><trkpt lat="55.8348991" lon="48.9556572"><time>2021-04-17T11:23:42.803</time></trkpt><trkpt lat="55.8348789" lon="48.9557571"><time>2021-04-17T11:23:46.803</time></trkpt><trkpt lat="55.8348667" lon="48.9558421"><time>2021-04-17T11:23:49.810</time></trkpt><trkpt lat="55.8348572" lon="48.9559282"><time>2021-04-17T11:23:53.810</time></trkpt><trkpt lat="55.8348469" lon="48.9560198"><time>2021-04-17T11:23:57.810</time></trkpt><trkpt lat="55.8348475" lon="48.9561083"><time>2021-04-17T11:24:00.807</time></trkpt><trkpt lat="55.8348415" lon="48.9561922"><time>2021-04-17T11:24:03.807</time></trkpt><trkpt lat="55.8348296" lon="48.9562819"><time>2021-04-17T11:24:06.810</time></trkpt><trkpt lat="55.8348332" lon="48.9563692"><time>2021-04-17T11:24:09.913</time></trkpt><trkpt lat="55.8348117" lon="48.9564699"><time>2021-04-17T11:24:13.803</time></trkpt><trkpt lat="55.8348015" lon="48.9565710"><time>2021-04-17T11:24:17.813</time></trkpt><trkpt lat="55.8347774" lon="48.9566624"><time>2021-04-17T11:24:21.800</time></trkpt><trkpt lat="55.8347489" lon="48.9567442"><time>2021-04-17T11:24:24.803</time></trkpt><trkpt lat="55.8347101" lon="48.9568414"><time>2021-04-17T11:24:27.813</time></trkpt><trkpt lat="55.8346834" lon="48.9569182"><time>2021-04-17T11:24:30.807</time></trkpt><trkpt lat="55.8346503" lon="48.9570097"><time>2021-04-17T11:24:33.803</time></trkpt><trkpt lat="55.8346348" lon="48.9570993"><time>2021-04-17T11:24:36.903</time></trkpt><trkpt lat="55.8346112" lon="48.9571789"><time>2021-04-17T11:24:39.797</time></trkpt><trkpt lat="55.8345925" lon="48.9572624"><time>2021-04-17T11:24:42.780</time></trkpt><trkpt lat="55.8345602" lon="48.9573448"><time>2021-04-17T11:24:45.800</time></trkpt><trkpt lat="55.8345354" lon="48.9574253"><time>2021-04-17T11:24:48.797</time></trkpt><trkpt lat="55.8345128" lon="48.9574992"><time>2021-04-17T11:24:51.803</time></trkpt><trkpt lat="55.8344955" lon="48.9576017"><time>2021-04-17T11:24:54.920</time></trkpt></trkseg></trk></gpx>